GFSSE_700_spd_000.txt.gz
Wind_Speed
33 35 36 32 32 29 27 26 25 23 23 22 23 22 20 19 18 17 16 15 11 9 9 9 9 9 9 10 10 10 8 8 11 12 14 15 14 13 12 12 11 9 8
30 31 31 28 29 27 25 24 23 22 23 24 23 21 19 17 16 15 13 11 10 10 9 9 8 8 9 10 11 11 8 6 5 13 15 16 14 12 12 12 10 11 11
27 29 29 27 27 26 25 22 22 22 23 23 22 20 18 17 16 14 11 10 9 10 9 9 8 8 9 10 10 10 11 9 6 8 14 16 13 11 11 11 10 8 10
25 27 27 26 26 25 23 20 20 22 23 22 20 21 19 17 15 13 11 10 9 9 7 6 6 7 9 10 10 10 9 8 7 8 12 15 15 11 9 10 7 9 11
27 25 25 24 24 22 20 19 20 21 21 20 20 19 18 15 14 12 10 8 7 5 4 5 7 8 8 9 9 9 9 8 9 10 11 14 13 11 8 8 8 9 10
24 23 23 23 21 19 18 18 20 21 20 20 18 18 16 14 11 9 7 6 4 4 4 6 6 7 8 8 8 9 9 9 6 7 6 12 13 11 9 8 8 6 8
21 21 21 21 19 18 18 18 19 19 19 18 16 14 13 10 8 6 4 3 3 4 5 6 6 6 7 8 8 8 8 8 8 6 4 9 12 9 9 8 8 8 8
18 19 20 19 17 16 16 16 17 17 15 14 13 11 9 6 4 2 3 4 4 5 5 5 5 5 6 8 9 9 9 7 7 6 4 6 9 10 7 8 6 6 6
17 16 16 15 15 14 13 13 13 13 13 12 10 8 6 5 2 2 4 3 4 5 4 4 3 4 5 8 8 9 9 8 7 5 5 4 6 8 7 6 6 4 3
15 14 13 13 13 12 13 12 11 11 10 8 7 6 5 2 0 2 3 4 3 3 3 4 4 5 5 6 8 7 8 8 7 4 2 4 4 5 7 4 5 4 2
15 14 13 12 12 10 10 11 11 10 10 9 7 5 3 1 3 3 2 1 2 2 3 4 4 4 5 6 8 9 7 8 8 5 2 3 1 2 5 4 3 3 3
14 12 12 11 10 9 9 9 8 8 7 6 5 4 4 3 2 2 3 2 4 4 5 5 4 5 7 8 9 10 10 10 9 7 5 3 2 1 2 4 3 1 1
11 11 9 9 10 9 7 7 6 6 6 6 5 4 5 4 5 5 3 4 5 6 8 8 7 8 9 10 12 13 13 12 9 9 7 6 5 3 3 1 2 1 0
12 12 11 11 10 9 9 8 8 7 7 6 5 5 5 5 6 7 7 8 8 7 9 11 11 12 13 15 15 16 14 14 12 10 10 8 8 7 6 6 3 3 2
13 12 12 12 10 10 9 6 8 8 8 8 7 6 6 6 8 10 10 11 12 12 12 14 15 15 16 18 18 18 17 14 13 11 10 10 8 8 8 9 8 7 5
14 13 12 11 11 9 10 8 7 8 8 6 5 6 7 9 9 11 13 14 15 14 14 15 16 18 20 21 22 21 20 19 16 15 13 12 11 10 10 11 10 9 8
11 12 9 9 9 7 8 10 10 8 7 7 7 8 8 9 11 12 14 15 16 14 17 17 18 18 20 23 22 20 19 20 19 16 16 15 15 13 11 11 13 12 11
13 10 10 9 11 11 8 9 10 10 8 9 9 10 11 11 13 14 15 16 16 18 20 21 23 23 22 21 19 18 17 17 16 15 15 16 18 18 17 14 16 15 14
10 11 8 8 9 10 10 8 8 8 9 10 10 11 12 13 13 13 14 17 18 22 24 23 22 20 18 17 16 16 14 13 14 13 12 12 15 18 19 19 17 17 17
11 11 11 10 10 10 10 8 8 10 10 11 12 13 13 14 15 16 14 17 19 21 20 18 18 18 17 15 12 12 12 12 12 12 13 13 11 13 17 20 22 21 19
12 12 10 9 9 11 6 5 5 6 7 7 9 11 12 14 15 15 16 18 20 17 16 15 16 16 17 12 10 10 10 12 13 12 12 13 13 12 12 15 21 24 25
13 11 10 8 5 4 8 8 6 4 2 3 4 4 6 9 9 9 9 11 12 13 13 14 14 14 13 12 10 8 11 12 13 12 12 12 13 13 13 14 16 19 25
12 10 9 8 8 11 13 13 14 13 11 10 10 9 9 9 9 9 9 10 12 13 15 15 14 13 11 10 10 10 8 9 10 14 14 14 14 15 16 16 16 17 19
15 15 13 13 13 13 12 12 13 14 15 16 17 18 17 14 12 10 11 11 12 14 14 15 14 12 11 11 11 11 10 8 8 10 13 14 15 15 16 16 18 18 18
16 16 18 17 16 15 15 13 12 11 11 11 12 15 17 17 18 15 13 13 14 15 14 14 13 13 13 13 12 12 13 13 12 9 10 13 16 17 18 20 20 21 21
15 17 20 20 19 17 17 16 14 12 8 5 6 9 12 14 19 20 20 18 17 16 14 13 12 11 12 13 14 13 13 14 16 18 16 13 13 14 17 18 21 23 24

GFSSE_700_spd_003.txt.gz
Wind_Speed
37 33 33 34 33 33 31 29 25 24 25 24 23 22 21 21 19 17 16 12 8 8 8 9 8 7 9 10 10 9 7 9 14 18 15 13 12 13 12 11 10 9 10
32 33 33 30 28 27 26 24 23 23 23 23 22 21 20 19 18 16 13 9 7 8 8 7 6 8 10 10 10 10 8 6 6 14 16 15 11 12 13 12 13 12 13
29 32 31 26 24 24 23 23 23 24 24 22 22 20 19 18 16 13 10 9 8 8 7 6 8 9 10 11 10 10 11 9 6 9 13 15 13 12 12 11 11 11 10
28 28 27 24 22 21 21 22 23 24 23 21 21 20 19 17 15 12 11 9 7 6 4 7 9 9 9 10 10 9 9 11 9 8 12 13 14 12 12 9 10 10 9
28 26 25 24 22 21 21 23 23 23 22 21 21 19 18 16 14 11 9 7 6 5 6 8 8 9 9 9 9 9 9 7 7 7 11 13 12 12 9 10 10 11 11
27 27 25 23 21 20 22 23 24 22 21 21 19 18 16 14 12 9 7 6 5 5 6 7 8 9 8 9 9 8 8 6 5 4 7 12 10 12 9 9 9 8 8
26 25 23 20 19 20 21 22 21 20 19 18 17 14 13 12 10 7 5 4 4 4 5 5 6 7 8 9 9 8 8 7 7 5 4 7 10 8 9 8 10 8 7
23 22 21 19 17 17 18 18 18 17 17 16 14 11 10 9 6 4 4 2 2 2 3 4 5 6 6 8 8 10 9 7 5 5 5 8 7 7 7 8 8 9 7
21 20 19 18 16 16 17 17 17 16 15 13 11 8 6 5 4 3 5 2 2 3 4 6 6 6 7 8 9 8 8 9 7 4 4 4 5 7 5 6 5 7 7
20 19 17 17 16 16 17 17 16 15 13 11 8 7 5 4 1 1 1 3 2 2 3 4 5 5 6 9 10 10 8 8 7 6 6 5 4 5 3 4 5 4 5
19 18 16 15 15 14 14 14 13 13 11 10 9 7 5 3 1 2 3 1 1 1 3 5 4 5 6 8 10 11 12 10 7 5 5 6 4 2 4 3 3 3 3
16 15 15 14 13 12 12 11 10 9 8 8 7 6 5 3 3 2 3 3 4 5 5 4 5 6 8 9 10 12 13 12 9 7 5 4 3 3 1 2 2 1 2
14 14 13 13 13 12 11 10 9 8 7 7 6 5 5 5 5 5 4 5 5 6 7 8 8 9 10 12 14 16 15 13 11 8 6 6 5 5 4 1 2 0 1
14 14 12 11 10 11 11 10 10 8 7 6 6 6 5 6 7 7 6 7 8 9 11 12 12 13 14 16 17 18 18 16 14 10 9 7 7 8 8 7 5 4 3
15 13 12 11 11 10 10 8 8 8 7 7 6 7 8 8 8 8 8 9 10 12 13 14 15 16 16 18 20 21 20 17 15 14 11 10 9 9 10 10 9 9 7
14 13 13 12 11 11 10 9 7 8 9 7 8 9 8 9 10 10 9 11 11 13 13 13 16 18 19 19 20 19 19 16 14 14 14 13 12 12 11 12 12 11 10
14 15 11 11 10 9 9 11 9 8 6 7 9 10 10 9 9 10 12 13 13 15 14 16 17 19 20 20 17 16 14 13 13 11 12 14 14 14 13 14 14 14 14
16 13 13 11 10 11 8 9 10 10 9 9 10 11 9 11 12 13 14 15 15 16 17 19 20 18 18 17 16 14 11 10 9 9 8 9 12 15 17 16 16 16 16
14 15 12 11 10 13 11 9 9 10 9 10 9 11 12 13 14 13 15 17 18 16 15 19 20 17 16 15 13 13 11 8 7 7 7 7 8 10 15 19 19 18 18
14 16 15 13 12 12 11 11 10 10 10 10 12 14 14 13 14 16 17 18 17 14 18 17 16 15 15 13 12 12 10 8 9 9 8 8 9 8 10 15 19 21 20
15 14 13 13 11 14 10 11 11 11 13 12 13 13 11 12 13 13 14 16 17 18 15 14 15 14 14 11 11 12 9 10 10 8 9 9 9 9 10 10 14 20 23
16 13 14 13 11 11 12 11 10 10 9 9 7 5 5 5 4 4 6 7 8 11 13 14 15 13 11 9 9 11 11 11 11 10 10 9 9 9 10 11 13 14 17
19 15 14 12 12 14 16 15 14 12 12 11 9 8 6 5 5 6 6 7 8 10 11 11 11 10 9 9 9 9 9 10 11 11 11 11 12 12 13 13 14 15 15
18 18 18 17 16 16 17 17 17 17 16 14 13 13 12 12 11 10 10 10 11 11 11 11 10 9 9 9 9 8 7 8 9 11 13 14 15 15 16 17 17 17 18
20 20 20 19 19 17 17 16 16 17 16 13 11 9 9 11 12 12 13 12 12 12 12 11 11 10 10 9 9 8 9 9 9 8 9 12 16 17 18 18 19 21 21
22 22 21 20 18 18 17 16 16 15 14 12 8 7 6 7 8 11 12 14 15 14 14 13 12 12 10 10 9 8 9 11 13 14 12 13 14 16 18 20 20 20 22

GFSSE_700_spd_006.txt.gz
Wind_Speed
28 31 30 31 30 30 29 28 26 26 24 23 23 23 22 19 17 15 12 8 8 8 7 7 8 9 9 9 8 6 3 6 13 15 15 10 9 11 9 7 9 7 10
29 31 31 29 30 28 25 24 25 24 23 23 22 22 21 18 17 14 9 8 8 7 6 6 8 9 9 10 9 8 5 4 9 12 15 11 10 11 10 11 11 12 12
32 30 29 26 26 24 22 23 23 23 22 22 22 22 20 18 15 11 8 8 7 7 6 8 9 9 10 10 9 9 8 7 7 11 12 14 11 10 10 11 11 11 11
30 28 26 24 24 23 23 23 24 24 23 22 21 21 19 16 12 10 8 7 5 6 6 7 8 9 9 10 9 9 9 10 7 9 13 12 10 10 10 7 10 9 11
27 26 24 23 22 22 23 25 25 24 21 20 20 19 17 14 12 9 7 5 4 6 6 7 7 8 8 8 8 8 7 5 6 6 11 12 8 10 10 10 11 12 11
25 24 23 22 21 22 23 23 22 21 20 19 19 18 15 13 10 8 5 4 5 6 6 7 7 8 9 8 7 8 7 7 6 4 7 10 9 10 8 9 9 10 9
24 22 21 19 19 20 21 21 20 19 19 18 17 15 13 11 9 6 4 3 4 4 5 6 8 8 9 9 9 9 8 7 7 4 4 8 9 7 5 8 8 7 7
23 21 19 19 19 19 20 19 18 18 17 16 14 12 10 8 6 4 3 2 3 4 6 6 7 7 8 9 9 9 8 7 6 6 5 4 7 4 5 6 7 8 8
22 20 19 18 19 19 19 19 18 17 16 14 12 9 7 4 3 2 3 2 3 3 4 6 6 6 7 8 9 9 8 8 6 4 4 5 5 5 3 4 6 6 7
21 19 18 18 18 19 19 19 18 16 15 12 10 8 5 3 1 2 2 1 1 2 4 5 5 5 6 7 9 10 9 7 7 7 5 4 4 4 2 2 3 5 4
21 20 18 18 18 16 17 16 15 14 13 11 8 7 5 3 0 2 2 2 3 4 5 6 5 5 5 5 6 8 10 10 8 5 5 4 2 1 3 0 2 3 4
20 19 18 17 16 17 15 14 13 12 11 9 8 7 6 3 2 2 3 5 4 5 5 6 6 6 8 10 12 11 12 10 8 7 7 5 4 2 2 1 1 2 2
17 17 17 17 16 15 14 13 13 11 11 10 8 7 6 5 4 4 4 5 6 6 8 9 11 11 11 13 15 16 16 13 10 8 9 8 6 6 4 3 2 1 1
16 16 15 15 15 15 14 13 12 11 10 9 8 7 5 5 5 6 7 7 8 8 10 10 13 13 14 15 16 17 18 17 14 10 11 10 9 8 8 8 6 2 0
16 15 14 13 12 12 12 12 12 10 9 9 8 7 6 7 7 8 9 9 9 11 13 13 13 14 16 18 19 19 19 17 14 13 12 10 10 10 9 10 9 9 5
17 16 15 14 13 12 12 10 11 11 11 9 9 9 9 9 10 11 11 10 11 11 13 15 14 17 18 18 20 19 17 14 11 10 12 13 12 12 12 10 11 10 10
17 16 15 15 14 12 13 13 10 11 10 10 11 10 10 10 10 10 11 12 12 14 14 16 18 18 18 15 16 15 12 11 9 7 8 12 13 13 14 14 12 13 13
18 18 16 15 12 14 12 12 12 12 10 9 10 11 12 12 12 12 14 14 15 14 16 17 16 19 18 15 13 12 10 7 6 4 4 6 10 14 15 17 15 15 16
18 17 17 15 12 13 14 11 10 11 12 12 12 11 11 13 13 14 15 16 17 17 16 17 21 18 17 15 14 13 8 6 5 5 3 5 6 9 14 17 18 18 18
19 19 19 16 15 13 13 13 12 11 12 13 12 11 13 14 14 15 15 17 18 17 19 18 21 19 17 15 14 13 9 6 6 6 5 4 7 9 10 12 16 21 20
18 18 20 18 15 15 16 14 13 13 14 14 14 14 15 14 14 15 15 14 15 17 19 19 16 16 16 15 14 13 11 9 7 7 7 6 5 8 10 11 13 17 21
20 18 19 17 18 17 18 16 16 16 16 15 14 12 12 12 11 10 8 9 9 11 12 13 12 13 13 13 13 11 6 13 8 8 8 7 5 7 9 10 13 14 16
23 21 19 19 18 19 17 18 17 16 14 12 11 10 9 8 7 4 2 0 2 5 8 9 10 9 10 11 9 9 8 4 12 12 10 9 9 10 10 11 12 13 16
24 23 21 22 21 20 19 19 17 16 15 13 12 12 11 10 8 6 5 5 7 9 11 12 11 10 10 11 10 8 10 11 8 4 11 14 13 13 12 13 14 15 16
27 26 22 24 22 20 20 20 20 19 18 16 14 11 9 9 7 7 8 10 11 12 13 14 13 12 11 11 10 10 9 9 9 9 7 9 16 18 17 15 15 17 17
26 25 25 25 21 20 20 20 22 21 19 18 15 10 7 5 3 5 8 10 13 14 15 15 14 12 11 9 9 10 11 10 9 9 11 12 15 17 19 18 18 19 19

GFSSE_700_spd_009.txt.gz
Wind_Speed
28 30 32 32 30 30 29 28 27 25 25 23 21 21 18 15 13 12 10 9 9 9 9 9 10 10 9 9 7 4 2 6 12 14 10 9 10 9 6 8 8 11 10
28 29 30 29 29 30 29 27 26 25 23 21 21 20 16 14 12 9 9 9 9 9 7 9 9 9 10 9 8 7 5 5 9 12 11 9 12 9 9 10 9 11 9
27 27 28 29 28 26 25 25 24 23 21 22 20 18 16 14 10 8 8 9 9 8 8 8 8 9 9 9 7 8 6 4 9 13 12 14 13 9 10 10 11 10 10
29 27 25 24 24 24 24 23 23 22 22 21 19 17 15 12 9 8 8 9 7 7 7 8 8 8 8 8 8 7 8 9 8 13 17 3 11 8 7 9 11 10 12
25 23 23 22 21 22 22 22 22 20 19 18 18 16 14 10 9 8 7 7 6 6 7 8 8 8 8 8 8 8 7 6 6 8 10 8 6 7 8 10 10 11 11
24 22 20 20 21 22 22 22 21 20 19 18 17 15 12 10 7 6 6 5 5 5 7 8 8 9 9 10 9 9 8 7 7 9 9 8 5 6 7 7 9 8 7
22 21 20 20 21 22 22 21 20 19 18 18 16 14 11 8 6 4 5 5 5 6 7 7 7 8 10 10 10 10 9 7 7 5 3 7 9 6 5 4 6 6 6
20 19 18 19 21 22 21 20 19 18 17 16 14 12 9 6 4 5 4 4 5 6 8 8 7 8 9 9 8 8 10 9 8 5 7 6 7 5 3 4 4 6 7
18 17 18 18 19 20 19 19 18 17 16 13 11 9 6 4 2 3 4 5 6 6 7 7 6 6 7 8 9 9 8 8 8 9 3 5 5 4 3 2 3 4 5
18 16 16 18 19 19 18 18 16 15 12 10 8 5 3 1 1 3 3 4 6 7 7 9 7 6 6 6 8 9 10 7 8 7 5 3 4 3 1 3 3 4 3
18 17 18 17 18 18 18 17 14 12 11 8 6 5 2 1 2 4 4 5 4 5 6 7 7 5 5 4 6 8 10 9 7 6 7 4 3 2 1 2 3 2 4
19 11 15 15 15 16 16 14 13 12 10 9 6 5 4 5 2 2 5 5 5 5 7 6 7 8 9 11 15 10 8 9 7 13 11 9 5 4 3 2 2 3 4
17 16 16 15 14 14 14 15 14 13 11 9 7 7 5 7 4 3 5 9 8 7 8 12 11 9 12 11 10 9 13 12 7 8 13 11 7 6 5 3 2 2 2
17 17 18 16 16 16 14 14 10 9 10 9 9 7 6 6 4 3 8 7 11 4 10 11 12 14 14 16 16 17 15 15 14 12 17 9 10 8 7 7 6 3 2
17 17 16 16 15 15 14 13 12 11 11 9 11 9 8 7 7 10 7 8 8 10 9 13 14 16 17 12 17 19 16 16 12 10 16 11 11 10 8 9 8 9 5
19 18 16 15 15 14 14 13 13 15 13 11 10 11 10 10 10 10 10 10 10 12 12 13 15 17 18 18 19 16 12 11 9 8 10 11 13 12 11 9 11 10 10
19 18 17 15 14 14 13 13 13 11 10 10 10 14 11 10 10 10 10 12 12 13 12 14 14 17 15 13 15 15 12 10 7 6 6 9 10 13 13 13 12 12 12
17 18 17 17 15 14 14 13 12 9 11 10 11 15 12 11 12 12 11 15 14 15 15 16 16 9 22 18 15 13 11 8 4 4 7 6 10 9 13 15 15 14 13
20 20 18 17 15 13 15 14 12 12 14 14 14 15 14 13 13 13 12 15 14 16 18 18 18 16 24 19 15 13 10 7 2 7 5 4 6 7 9 12 16 17 16
21 21 20 18 17 15 14 14 13 13 14 14 16 16 12 12 13 14 15 16 16 17 16 13 16 21 22 21 10 11 9 7 4 3 4 3 6 8 10 12 8 18 21
23 22 21 21 18 17 14 16 17 16 16 15 14 17 12 13 14 15 16 17 15 16 16 19 20 20 17 17 10 6 10 9 8 1 4 4 6 9 11 10 13 12 14
21 19 18 18 19 18 18 18 19 14 11 16 16 16 14 13 14 13 13 14 12 13 14 14 14 15 14 13 7 5 2 10 10 7 9 5 7 8 10 12 13 12 17
24 21 19 17 18 20 19 20 21 19 17 16 15 14 12 10 9 9 7 5 4 7 10 10 11 10 10 13 6 4 3 3 6 14 14 8 7 10 10 12 13 12 15
27 23 21 20 19 21 22 23 19 18 18 14 12 9 8 7 5 3 3 1 3 6 10 13 14 13 10 9 13 7 7 9 11 2 10 21 18 10 6 9 14 12 13
29 27 24 23 22 23 24 22 21 21 17 13 12 13 10 9 7 5 3 1 4 7 9 12 13 13 11 9 9 9 8 7 7 9 6 7 9 16 19 13 12 14 13
30 29 28 26 24 23 23 23 21 20 18 15 15 16 13 11 8 4 1 3 6 9 11 11 11 12 13 12 10 10 8 5 4 6 8 9 10 13 16 21 18 16 15

GFSSE_700_spd_012.txt.gz
Wind_Speed
28 29 28 32 36 32 28 28 27 26 26 24 20 18 14 14 13 11 11 13 12 13 12 12 11 11 10 10 8 4 5 7 11 11 10 11 14 11 7 6 6 10 10
32 31 32 31 31 28 28 26 24 25 23 21 19 16 13 13 11 9 11 11 11 10 11 10 10 11 11 10 10 7 7 7 12 11 11 13 17 14 10 9 11 14 12
30 29 30 29 29 28 27 26 23 21 20 19 17 15 13 11 8 9 10 10 9 9 10 9 10 10 11 11 10 11 8 7 12 12 8 13 16 11 10 12 12 12 13
28 27 28 27 26 26 26 23 21 20 20 19 16 14 12 9 8 9 8 8 8 8 9 8 9 10 10 10 9 7 7 7 9 14 11 11 10 10 9 9 11 12 11
27 25 23 22 23 23 23 21 20 20 20 18 15 13 11 8 8 7 6 7 8 8 7 8 9 10 10 9 9 9 8 8 7 9 16 12 11 10 9 8 10 12 10
22 21 21 21 22 22 22 21 20 19 18 16 14 12 9 8 7 6 6 8 9 8 8 8 10 10 10 10 11 10 9 9 6 5 12 12 11 9 7 8 9 8 7
22 21 19 20 21 22 21 19 18 17 17 15 13 11 9 7 6 6 7 9 9 9 10 10 10 10 10 10 11 12 11 8 6 4 7 10 9 7 6 5 5 5 6
19 19 18 19 20 20 20 19 18 17 16 15 12 9 7 6 6 7 8 9 10 9 10 9 9 9 9 10 11 12 12 11 5 2 7 8 7 6 4 5 6 5 5
19 18 18 19 20 20 19 18 17 16 15 13 10 8 5 4 4 8 8 8 7 8 9 8 8 8 8 9 9 10 13 14 11 11 13 11 6 5 4 3 5 6 4
13 17 18 19 19 19 18 17 16 14 12 10 7 5 3 3 3 5 6 6 8 8 8 9 8 6 6 6 8 10 12 13 13 13 4 8 8 6 2 3 2 4 4
14 18 18 18 19 18 17 16 14 12 9 7 5 3 2 2 3 5 5 5 5 3 3 6 8 7 7 8 5 10 13 14 14 17 13 6 6 6 4 1 3 2 3
16 13 18 18 17 17 16 14 12 11 9 7 5 3 3 1 4 5 7 4 2 5 1 5 5 6 8 13 13 10 9 4 9 15 10 7 4 3 3 2 2 2 2
17 21 14 16 14 15 15 14 12 10 9 7 6 4 4 3 4 9 1 5 3 9 8 6 8 9 15 11 12 12 12 12 9 14 15 6 4 4 3 1 2 1 1
11 18 15 16 16 15 17 13 12 12 10 9 8 5 6 4 4 8 7 13 8 12 14 10 14 13 13 17 13 10 18 15 11 16 16 7 4 5 6 5 4 1 3
17 13 14 15 13 13 12 12 5 6 8 2 11 6 8 8 6 5 5 10 9 9 10 10 11 12 15 17 17 16 12 13 10 8 11 4 6 6 6 7 7 7 4
15 14 14 16 13 11 10 11 13 13 13 8 9 10 8 8 7 6 7 7 8 8 9 12 13 12 14 16 18 20 15 11 10 6 9 3 7 8 7 8 8 8 9
19 18 13 11 14 12 12 10 10 11 12 13 9 11 7 9 8 9 9 10 10 13 11 10 12 12 12 17 15 20 14 11 8 7 5 7 4 9 10 10 10 9 10
23 20 16 13 14 13 12 12 11 11 13 10 15 13 9 8 9 9 9 8 11 9 16 13 15 14 11 18 18 16 12 9 6 7 5 4 7 4 10 12 13 12 11
22 17 16 16 13 11 13 14 14 15 14 13 11 13 14 13 10 10 10 12 14 14 16 13 13 11 16 19 17 14 11 9 1 6 6 5 7 6 7 7 12 14 14
20 19 17 17 16 12 12 14 14 15 14 13 14 16 10 12 11 11 12 12 14 15 16 15 13 19 20 19 13 10 6 9 6 4 3 8 2 4 9 5 7 12 14
23 20 18 18 17 17 13 13 15 14 12 14 16 17 18 14 11 11 11 14 13 12 14 15 17 17 17 15 10 9 7 10 10 4 6 9 6 8 9 7 12 7 9
23 20 19 18 18 19 17 14 14 15 16 11 9 15 12 14 14 11 9 11 9 9 9 9 11 12 12 11 6 1 1 5 8 14 15 7 10 11 8 6 7 12 12
26 23 19 16 16 16 19 17 18 19 16 13 12 19 13 10 10 7 5 5 2 4 7 8 9 9 10 9 5 1 8 5 2 8 15 10 8 10 12 11 7 11 14
30 25 22 20 18 17 19 20 20 19 17 16 14 10 8 8 6 4 4 1 2 4 7 9 12 11 10 9 9 1 9 12 9 5 8 13 15 5 6 9 11 8 14
31 28 24 22 21 19 18 20 20 20 19 17 11 10 7 7 8 6 3 1 1 4 7 10 12 13 12 12 8 8 5 7 13 15 7 6 9 14 20 14 11 12 12
25 28 25 24 22 21 20 20 21 18 18 15 10 10 10 11 9 7 7 3 4 6 8 10 11 13 13 12 10 7 6 7 4 6 11 17 15 9 13 19 20 18 11

GFSSE_700_spd_015.txt.gz
Wind_Speed
25 24 27 34 33 33 30 29 27 27 26 22 20 17 15 14 14 13 14 14 12 13 12 12 13 11 10 11 9 6 9 10 8 8 10 9 11 13 10 9 8 11 11
28 30 38 33 33 32 30 27 26 26 23 21 18 15 13 13 13 14 14 13 11 11 10 12 13 12 12 11 10 7 7 10 10 8 14 12 14 14 12 13 12 11 12
31 34 33 30 32 30 27 26 24 22 21 19 16 13 12 12 13 13 12 10 10 9 10 12 12 12 12 12 11 9 7 8 12 4 6 12 13 14 13 14 14 13 12
31 31 28 28 28 28 26 23 22 21 19 17 15 13 11 12 12 10 9 9 9 9 11 12 11 12 11 11 10 7 6 6 9 11 8 13 13 11 12 12 13 14 14
28 28 28 26 26 26 23 21 20 19 18 16 15 12 11 11 10 9 9 9 9 10 12 12 13 12 12 13 12 9 8 8 7 15 12 13 12 10 11 11 12 13 12
28 26 24 24 23 22 21 20 20 19 17 15 14 11 11 10 9 8 9 9 10 12 12 12 12 12 13 13 13 12 11 7 4 9 12 14 9 9 9 11 11 9 8
25 23 22 22 21 21 20 20 19 18 16 14 13 11 10 8 8 9 9 11 12 12 12 12 11 11 12 12 12 14 13 6 11 8 8 11 9 6 7 7 7 7 7
21 21 21 21 20 20 19 19 18 17 15 13 12 10 9 8 9 9 11 11 11 10 10 9 9 10 11 13 14 15 13 13 11 4 4 13 10 6 5 5 5 7 8
19 18 20 20 20 20 19 18 17 16 15 13 11 8 6 6 7 9 9 9 9 9 9 8 8 8 8 9 10 12 13 12 10 10 5 10 8 6 3 4 5 6 7
19 18 19 20 19 18 18 17 16 15 14 12 9 6 4 4 5 7 7 6 7 8 6 6 7 7 7 7 7 8 9 11 9 12 10 9 8 7 4 3 2 4 5
20 19 20 20 19 18 17 16 15 13 11 10 7 5 4 4 4 5 6 3 7 4 0 5 5 6 6 9 9 8 5 9 9 10 4 4 7 4 6 3 3 2 3
21 21 20 20 18 17 16 15 13 11 10 8 5 3 4 1 1 2 6 8 5 3 1 6 5 4 6 7 11 12 11 13 13 9 7 3 3 3 4 2 2 4 3
19 21 21 19 17 16 15 14 11 10 9 6 3 1 0 2 2 2 2 6 5 8 5 8 7 6 9 13 9 8 5 16 12 9 9 4 1 3 3 2 2 3 4
16 23 20 17 17 17 17 14 11 10 8 7 6 6 1 3 5 6 3 6 6 8 6 4 10 12 15 11 13 10 10 8 13 9 7 1 3 3 3 3 2 2 4
14 16 14 15 13 14 14 13 12 11 12 9 9 6 3 6 6 5 4 6 7 7 6 9 12 13 12 12 13 14 16 10 5 7 3 1 4 4 3 3 3 5 3
11 12 13 13 13 10 11 10 7 9 6 4 2 0 6 5 5 3 6 7 9 8 7 12 9 10 13 12 19 17 16 13 9 6 4 1 3 5 5 5 4 5 6
10 10 15 13 12 11 9 8 6 7 8 7 7 6 8 5 4 4 5 9 10 12 6 11 11 9 14 14 19 17 14 11 7 5 4 2 1 5 7 7 6 5 6
14 14 14 14 11 12 9 8 8 8 7 13 12 10 5 5 7 6 8 7 8 11 10 12 11 11 8 13 15 14 11 10 5 6 2 2 1 4 7 7 8 8 8
18 13 13 12 13 10 11 10 11 12 11 12 12 10 7 3 7 6 8 8 13 12 13 13 12 11 12 14 13 12 9 6 3 6 6 2 6 1 3 7 8 10 11
21 15 14 11 10 12 12 12 13 14 12 15 12 6 9 7 8 5 9 8 10 11 10 11 10 12 14 11 11 7 2 6 5 2 6 9 7 7 2 5 6 8 8
25 19 16 16 12 12 12 12 11 12 12 10 9 11 10 11 10 8 9 8 11 9 9 11 13 12 12 10 7 6 2 5 8 7 13 14 9 10 13 5 7 7 3
23 19 18 18 18 14 12 11 11 11 12 11 12 14 12 10 9 8 8 6 5 6 7 10 12 15 15 11 6 1 2 2 7 5 6 10 10 5 5 7 8 8 9
26 22 19 17 19 16 12 13 14 16 14 12 15 8 9 6 7 5 3 1 3 6 9 11 13 14 16 15 8 3 2 3 6 8 5 9 7 8 6 3 9 11 9
30 25 22 19 19 17 17 13 16 17 14 12 9 7 7 6 5 3 3 3 4 6 9 9 11 14 16 16 14 8 4 7 9 6 8 7 10 10 8 1 4 9 10
20 23 25 22 22 20 20 17 16 17 15 14 11 9 6 7 6 7 4 2 3 3 6 9 15 20 25 23 17 15 10 6 13 12 12 5 10 12 10 10 10 7 10
17 19 22 26 25 23 21 19 16 15 14 14 12 11 11 11 11 7 5 4 1 3 6 7 11 19 26 23 17 14 14 11 7 13 17 18 16 15 16 14 9 15 11

GFSSE_700_spd_018.txt.gz
Wind_Speed
24 26 33 32 33 31 30 29 27 27 25 23 19 16 14 13 14 15 14 14 12 13 13 13 13 13 12 9 8 9 14 13 12 13 10 8 10 10 9 9 9 10 12
27 31 33 29 33 32 30 28 27 24 23 20 17 15 12 13 14 14 12 13 12 12 12 12 13 13 12 11 9 10 12 13 7 8 11 11 12 10 10 12 11 10 9
30 33 33 33 31 30 27 26 24 22 22 18 16 13 13 13 14 13 13 12 12 12 12 12 13 13 11 10 11 10 9 12 9 8 7 10 13 13 13 12 12 13 11
34 32 32 32 30 27 26 24 22 21 19 16 15 13 13 13 13 13 12 11 12 12 12 13 14 14 12 11 11 10 9 8 12 7 8 11 13 12 12 12 12 13 13
30 29 32 30 27 26 24 23 21 19 17 15 15 13 13 12 12 12 11 11 12 12 12 14 15 15 15 13 13 10 8 8 11 9 11 12 13 10 12 12 12 12 10
28 28 28 27 25 23 23 22 20 18 16 15 14 13 12 11 10 10 11 12 11 11 12 14 14 14 14 13 13 11 11 10 8 6 12 12 12 11 10 10 10 8 7
27 27 25 24 22 22 21 20 19 18 16 15 13 12 10 10 10 10 11 11 12 11 12 12 12 13 12 12 12 13 13 11 11 9 10 8 12 10 9 7 5 4 5
23 24 23 22 21 21 20 19 18 17 16 14 12 10 10 10 10 10 9 9 10 10 10 10 10 9 8 10 10 10 10 8 12 9 4 5 9 10 8 5 5 5 7
21 21 21 21 21 21 19 18 17 16 15 13 11 9 9 8 8 7 7 6 6 9 9 8 7 5 7 9 10 11 10 9 12 16 12 6 5 10 9 6 6 6 6
21 20 20 21 20 19 18 18 17 16 14 11 9 8 7 5 5 5 6 5 5 8 8 7 6 6 6 8 11 9 6 8 6 7 6 6 5 7 9 7 6 5 5
22 21 21 20 19 19 18 17 16 15 12 10 7 6 4 6 4 6 3 4 5 5 5 4 4 5 7 7 7 10 8 9 8 4 5 4 4 7 8 6 4 5 5
23 23 21 20 19 18 17 16 15 13 11 8 6 4 3 4 2 4 6 5 5 6 4 4 4 5 4 6 4 7 9 7 8 4 1 4 5 6 7 7 5 4 4
21 22 21 20 19 17 16 15 13 12 9 7 6 5 2 3 2 3 2 4 5 5 1 2 3 5 4 6 10 9 7 10 9 3 3 6 8 7 7 6 6 5 4
21 21 20 20 18 18 17 16 14 11 9 7 5 3 3 3 2 4 2 1 2 4 2 1 4 6 7 9 9 7 9 9 6 5 2 4 6 7 7 7 6 6 5
18 20 20 19 18 18 16 15 14 12 11 9 8 6 5 4 2 1 3 3 3 3 4 3 7 9 12 9 16 13 10 8 5 4 2 5 5 6 6 8 8 6 5
18 19 19 17 16 15 15 14 12 12 12 10 12 9 7 4 1 1 3 4 7 7 9 7 13 9 11 14 15 15 10 8 4 4 2 3 6 7 8 7 7 9 8
18 18 17 15 16 15 14 13 9 9 11 9 6 6 2 2 3 4 4 6 3 6 8 8 13 7 10 9 13 12 8 7 6 3 3 3 5 7 8 8 8 8 10
18 16 15 15 14 14 13 10 9 6 6 6 4 4 4 4 6 5 6 7 8 10 10 8 9 8 6 7 12 8 7 4 3 3 2 3 3 5 8 8 8 9 9
15 14 14 12 13 12 11 10 10 8 8 7 6 6 5 5 7 8 8 8 8 10 8 7 5 4 5 9 10 5 3 2 3 4 4 1 1 2 4 7 9 9 10
16 13 12 14 14 12 11 12 13 13 11 9 8 8 8 9 8 8 7 8 9 9 6 7 9 11 10 9 8 1 2 3 4 2 5 3 1 1 3 5 6 7 8
18 17 17 16 15 14 12 10 10 11 11 10 7 11 10 12 12 10 9 8 5 6 10 13 15 16 14 14 8 3 3 2 7 4 6 8 5 1 3 4 5 4 6
21 20 20 19 17 14 13 13 11 11 11 11 11 11 12 11 10 10 7 2 8 9 9 11 14 15 17 17 14 7 3 5 3 0 5 8 7 6 4 3 4 5 5
24 22 18 17 17 17 15 15 16 16 13 11 12 11 10 7 8 5 3 7 8 7 7 10 15 19 24 17 14 11 7 5 5 4 4 7 10 3 5 3 4 5 6
27 23 22 20 19 17 17 16 16 16 12 10 11 8 8 9 9 7 9 7 7 7 8 10 14 15 23 23 9 10 10 7 7 8 6 9 11 9 1 8 6 5 7
29 28 25 22 22 21 21 18 16 17 13 14 13 11 10 11 10 11 10 9 8 7 6 9 12 15 25 20 9 10 11 10 11 11 10 11 13 11 9 8 8 8 6
18 20 21 22 27 25 25 21 18 16 14 15 13 11 9 11 14 14 12 10 7 5 5 6 8 11 19 24 19 17 15 15 14 12 11 13 13 14 15 12 10 9 11

GFSSE_700_spd_021.txt.gz
Wind_Speed
25 29 33 30 31 28 27 25 26 24 22 20 18 14 13 14 15 13 12 12 12 12 13 13 11 10 11 10 10 12 14 10 11 14 11 9 9 9 9 10 11 9 8
28 33 33 33 29 29 27 26 25 23 21 18 15 13 14 14 13 12 11 11 12 13 14 12 11 13 14 12 10 11 14 12 11 12 10 11 7 10 11 11 9 7 7
29 31 32 31 31 29 27 26 24 22 19 16 13 13 15 14 12 11 11 12 13 13 14 13 12 13 12 11 10 11 13 17 11 12 8 11 12 12 13 12 10 10 9
31 29 33 32 30 28 26 25 23 20 17 14 13 14 15 13 12 11 12 12 13 15 14 13 13 14 13 11 12 12 12 15 13 9 7 8 12 12 11 12 11 12 11
32 33 32 31 28 26 25 23 21 18 15 14 13 13 13 12 11 11 12 12 13 14 13 12 14 14 13 13 13 11 11 11 15 13 4 7 10 12 13 11 12 11 11
32 32 30 29 26 24 23 22 20 17 15 14 13 12 10 10 10 11 12 12 12 11 10 9 11 12 12 13 11 12 10 7 10 10 6 4 9 12 11 10 9 8 7
31 30 28 26 24 22 21 20 19 17 15 13 12 10 8 9 9 11 11 11 10 10 9 9 10 12 13 12 12 11 10 8 7 2 2 3 7 10 8 8 6 5 6
26 27 25 24 23 21 20 19 18 17 14 12 11 9 8 8 9 8 8 8 8 8 7 7 7 8 9 9 9 9 8 8 5 9 7 4 6 8 8 6 6 5 5
25 24 23 22 22 21 20 18 17 16 13 11 9 7 7 8 8 7 7 8 8 8 7 6 7 7 7 8 9 9 7 7 10 14 8 7 7 5 7 7 7 6 5
23 22 21 21 20 20 19 18 17 15 13 10 8 6 6 7 7 6 6 6 5 5 5 5 5 6 6 7 7 8 5 7 3 6 8 8 8 5 7 8 6 6 5
24 23 22 21 20 19 19 17 16 14 11 8 7 5 6 7 6 5 4 3 2 1 2 3 4 5 7 9 8 5 5 4 4 2 3 4 7 6 7 8 7 6 5
24 24 23 22 20 19 18 17 15 13 10 7 5 4 6 4 3 4 4 4 4 3 1 1 3 7 8 9 8 6 4 3 3 3 5 5 4 6 7 8 8 7 6
22 23 23 22 20 18 17 16 15 12 10 8 6 5 4 1 4 3 1 2 5 5 4 4 6 7 7 7 8 8 5 4 4 4 7 8 7 6 5 7 7 7 6
21 22 22 21 19 18 18 16 14 13 10 8 8 5 4 4 3 0 1 3 5 5 5 6 7 8 6 6 12 10 6 4 4 4 6 10 10 8 8 6 6 6 6
21 22 21 20 19 19 18 17 15 13 11 11 9 6 3 4 2 2 0 3 5 4 4 4 9 8 6 7 10 12 9 5 5 6 6 8 11 10 10 10 7 6 6
19 21 21 20 19 18 16 14 14 13 12 10 10 8 6 5 4 2 0 3 4 5 10 5 11 11 9 9 11 12 8 3 4 2 5 8 8 10 9 10 10 9 7
18 20 18 18 19 17 15 15 14 12 12 9 7 8 4 3 4 2 2 3 5 6 6 9 12 10 10 10 11 11 7 2 2 4 6 8 8 7 9 9 9 10 11
21 20 19 19 17 16 15 14 13 11 8 8 7 5 5 4 4 2 5 6 8 9 11 11 12 12 11 11 11 11 7 2 3 5 3 5 7 7 8 10 11 10 11
21 20 20 19 18 17 15 13 12 12 8 6 6 5 6 6 4 4 6 6 8 9 9 8 6 8 8 9 9 7 4 4 2 4 3 2 5 6 9 10 10 11 11
20 19 18 17 17 16 15 14 15 13 10 8 6 6 7 10 7 7 6 5 6 5 6 9 11 12 13 12 7 4 2 3 1 4 5 3 0 3 3 7 8 11 11
21 21 20 18 16 16 15 14 13 11 8 5 5 5 7 10 11 9 6 4 1 7 9 12 13 14 14 14 11 6 2 1 1 2 2 5 4 2 3 4 5 6 9
22 22 21 19 18 16 15 13 12 11 10 10 10 9 12 13 13 12 7 1 8 8 12 12 16 17 17 12 9 7 6 3 5 3 6 6 6 4 3 4 4 5 6
24 24 21 18 18 17 16 16 14 15 13 11 11 9 9 14 13 7 6 10 9 10 11 11 12 16 19 7 6 7 8 9 8 8 8 4 7 5 5 4 3 3 5
26 25 23 22 22 20 19 18 17 16 14 10 10 11 10 11 11 10 12 12 11 10 9 9 8 17 19 13 10 11 10 9 8 8 9 9 10 9 6 7 7 8 7
21 24 24 23 23 23 21 20 19 18 16 16 16 13 11 9 12 15 16 15 13 10 8 5 7 13 20 18 14 12 11 10 10 10 9 9 10 12 10 8 8 6 3
12 17 26 26 24 24 23 22 21 19 18 19 18 15 12 10 15 18 19 17 14 11 8 5 6 11 14 19 18 16 12 11 11 9 9 11 12 13 12 13 13 9 8

GFSSE_700_spd_024.txt.gz
Wind_Speed
23 24 30 31 30 27 26 26 27 25 21 18 15 13 15 15 14 13 12 12 12 12 12 12 12 10 9 10 13 17 13 12 13 11 11 8 7 9 11 12 13 10 7
26 29 33 30 29 28 26 27 25 23 19 17 14 13 14 13 12 12 12 12 12 12 13 14 13 13 12 12 12 14 17 15 15 12 10 8 8 9 10 12 11 9 8
30 30 30 28 28 28 26 25 24 21 18 14 13 13 13 12 12 11 11 12 13 12 13 14 12 13 12 13 12 12 16 15 15 13 12 11 12 11 12 12 10 9 7
31 32 30 28 28 26 25 24 22 19 16 13 14 13 12 12 11 11 11 12 13 13 14 14 12 12 11 11 11 11 15 15 17 15 10 10 11 13 12 12 11 10 8
32 31 31 29 27 26 24 22 20 17 15 14 14 12 11 11 10 10 11 11 12 12 13 14 14 14 13 12 12 10 9 13 16 14 12 8 9 11 12 11 10 9 9
31 30 29 28 26 25 22 20 18 16 14 14 12 11 10 9 10 11 10 10 10 10 12 13 13 13 14 13 11 9 10 8 7 12 11 8 8 11 12 10 11 9 8
31 29 27 27 24 23 21 19 17 16 14 12 10 10 10 10 10 11 10 9 9 9 11 11 10 11 12 10 9 9 7 7 5 7 11 8 7 8 11 8 7 7 8
28 28 26 25 24 22 20 18 16 15 13 11 9 10 10 10 11 10 9 8 7 8 8 8 8 8 8 8 7 8 6 8 6 10 11 7 7 5 6 7 6 8 7
26 24 23 24 24 22 20 18 16 14 12 10 9 9 10 9 9 9 8 7 6 6 6 6 6 6 7 8 8 7 6 8 8 8 8 7 8 7 6 7 6 7 6
25 23 22 21 22 21 20 18 16 13 11 9 8 8 7 6 8 7 6 5 4 4 5 5 6 6 7 9 8 4 4 4 7 6 7 6 7 8 8 8 7 7 6
25 23 21 20 20 20 19 18 16 13 10 9 7 6 7 5 6 5 5 3 3 2 5 6 7 10 9 9 9 5 2 1 5 7 7 6 5 5 4 5 6 7 7
24 24 23 21 20 20 19 17 15 13 10 8 6 5 5 3 4 7 6 7 7 4 7 7 8 12 11 11 10 6 4 4 4 6 7 7 7 6 5 5 6 6 7
22 23 23 23 21 20 18 16 15 13 10 7 6 4 2 1 3 4 4 3 5 5 6 7 8 9 9 10 10 8 5 1 5 6 7 8 7 7 6 6 6 5 5
22 23 23 23 22 20 18 16 15 12 10 8 6 4 2 2 1 2 2 3 5 4 5 6 8 9 8 7 9 10 7 1 2 4 7 9 9 9 7 6 7 6 6
21 23 23 22 21 20 18 17 15 13 11 9 6 5 4 4 1 1 1 3 5 6 8 4 8 11 10 10 9 10 8 2 4 5 8 11 10 9 9 7 7 7 6
21 22 23 22 21 19 18 16 14 13 12 10 9 8 6 5 3 2 0 2 4 6 8 9 10 14 10 9 11 9 8 2 3 5 8 11 11 10 8 9 8 6 6
20 22 21 21 20 19 17 16 15 13 12 11 10 10 6 6 4 2 1 2 5 6 9 11 12 13 11 10 10 10 7 3 1 4 7 9 10 10 10 10 10 9 8
21 21 21 21 19 18 17 16 15 13 10 11 8 6 7 6 3 3 1 3 5 7 9 10 9 9 8 7 8 9 6 2 4 2 4 7 9 10 10 11 10 10 10
20 23 22 20 18 17 17 16 15 13 10 10 9 9 8 6 4 4 2 3 6 6 6 7 8 10 10 8 7 7 4 1 3 2 4 4 6 8 10 9 10 11 11
21 23 22 20 19 18 18 16 15 14 12 10 8 8 9 8 6 4 2 3 3 6 8 8 9 10 10 8 6 3 2 2 3 3 3 2 2 4 5 10 12 11 11
25 24 22 21 20 20 18 16 12 10 10 10 10 9 9 10 9 7 2 1 3 8 9 10 11 11 13 9 9 7 5 5 4 5 5 3 4 1 3 3 6 10 12
25 22 22 21 21 19 17 14 12 9 11 12 12 12 10 11 10 8 5 4 9 10 10 10 9 10 10 6 9 11 9 9 7 4 6 5 7 5 4 2 3 5 6
27 25 23 21 20 19 17 16 15 14 13 12 12 10 8 9 10 9 8 14 14 12 10 7 11 11 8 8 10 12 11 9 9 7 6 6 6 8 7 5 3 2 3
29 27 25 23 24 23 21 18 17 14 13 9 7 10 10 10 10 12 15 18 16 13 10 6 12 16 15 13 12 12 12 11 9 8 7 8 8 7 6 7 8 8 6
27 29 28 27 27 25 22 19 18 17 14 14 14 13 12 9 12 16 21 20 17 14 11 7 9 16 17 16 16 14 13 12 11 9 7 7 8 9 8 8 8 7 5
17 29 31 31 29 27 25 22 20 17 15 16 17 16 13 11 13 21 23 21 19 16 14 9 8 7 9 13 15 14 14 13 12 12 7 6 7 9 10 10 10 8 5

GFSSE_700_spd_027.txt.gz
Wind_Speed
24 31 30 30 31 30 30 29 26 24 20 17 16 16 16 15 12 12 12 12 12 12 11 12 11 10 10 11 12 10 9 10 11 9 6 5 6 8 12 12 10 8 5
24 32 30 27 29 29 30 28 24 21 19 17 15 15 14 13 12 11 12 11 11 12 12 12 12 11 10 10 11 13 13 13 12 10 9 8 7 8 10 11 10 7 6
24 29 30 27 27 29 28 25 22 20 18 15 15 14 12 11 11 11 10 11 11 11 12 11 12 11 9 11 12 14 14 15 15 13 13 11 10 10 11 11 10 7 5
29 30 29 28 27 27 26 23 20 18 15 15 15 13 11 10 11 10 11 11 12 12 13 13 13 11 10 10 10 14 15 15 15 14 13 13 12 13 12 11 9 7 5
32 30 30 29 27 26 24 21 19 16 15 14 13 12 10 10 10 10 10 11 12 13 13 13 13 12 12 10 10 11 9 14 13 14 13 11 13 14 13 12 9 8 7
31 30 29 28 28 25 23 20 17 15 14 12 11 10 10 10 10 10 10 9 11 13 13 13 13 13 12 11 10 10 7 5 8 12 14 12 12 13 14 13 11 9 8
31 29 28 27 26 24 22 18 16 15 14 12 10 10 10 11 10 10 9 9 9 11 12 11 10 10 9 9 9 7 9 6 4 9 12 12 12 11 11 10 8 7 7
29 28 27 26 25 23 20 17 16 14 12 11 10 11 11 10 8 8 8 8 8 9 9 8 8 7 8 7 5 5 7 7 8 8 11 11 10 9 7 8 10 10 9
29 26 26 25 24 22 19 17 15 13 12 10 9 11 10 9 7 7 7 8 8 8 7 8 9 8 10 9 8 4 8 9 7 6 7 9 8 8 6 7 9 10 10
28 26 25 24 23 21 19 17 15 13 11 9 9 8 8 7 7 6 6 7 7 7 7 8 8 9 10 10 8 6 5 6 7 6 7 6 6 6 6 5 6 8 9
28 26 24 23 22 21 19 18 16 13 11 9 7 7 7 7 7 6 6 7 6 5 8 8 9 11 9 9 7 5 4 2 5 6 6 7 6 6 6 6 5 5 6
27 26 24 23 22 21 20 18 16 12 10 8 6 6 5 5 7 7 7 8 8 5 7 8 9 10 10 11 10 5 1 3 6 7 7 7 6 6 6 5 5 5 5
24 25 24 24 23 21 20 18 15 12 10 8 5 4 3 3 6 4 4 5 6 6 7 8 10 9 9 10 11 8 1 3 4 7 10 9 8 5 5 5 6 5 5
23 24 24 24 23 22 21 18 15 12 10 7 5 3 2 3 3 2 3 4 5 6 7 6 10 13 11 11 9 8 6 2 3 6 10 11 10 8 5 4 4 5 6
23 24 24 24 23 22 20 18 15 13 11 9 6 4 3 3 2 1 1 2 3 4 8 7 9 14 12 11 10 7 6 1 1 4 8 11 10 9 8 6 5 5 4
23 24 25 24 24 22 20 18 16 14 12 9 7 6 5 4 2 1 1 3 4 6 7 8 9 12 12 10 9 8 6 1 1 3 6 9 9 9 8 9 7 6 5
21 24 24 25 24 22 20 19 17 15 13 10 9 8 8 7 4 2 1 3 4 5 6 9 9 12 9 9 3 6 6 2 3 5 7 7 9 9 9 9 9 8 7
23 23 25 25 23 22 20 18 17 15 12 11 11 8 10 9 7 4 1 1 3 5 6 7 5 5 7 7 6 6 5 2 4 5 8 9 9 10 10 10 9 10 10
23 24 25 25 23 21 20 19 17 16 13 12 12 8 12 9 7 5 1 1 3 4 5 5 7 8 9 8 7 6 1 2 6 3 6 7 7 9 9 10 10 10 11
25 26 26 25 23 22 21 20 19 17 15 13 11 11 10 9 8 5 2 1 1 4 5 6 6 8 10 9 7 5 4 3 1 3 4 4 4 5 6 10 11 10 11
27 28 28 26 24 23 20 19 17 15 15 12 11 11 11 11 10 8 4 2 5 6 5 4 5 8 9 7 7 8 9 8 5 5 3 4 3 2 4 4 7 10 11
28 27 27 25 22 20 19 18 16 14 13 12 12 12 12 11 10 9 6 5 10 9 7 5 9 8 3 7 9 11 11 11 8 6 6 6 6 5 2 1 3 5 7
30 29 27 24 21 20 20 20 19 18 16 15 13 13 12 11 12 10 8 11 14 11 8 8 10 9 10 10 11 11 11 10 10 9 8 7 7 7 5 4 3 3 3
27 27 26 25 24 23 23 21 18 15 12 9 8 11 14 13 14 14 11 17 17 14 10 9 12 11 10 11 11 11 11 10 8 6 5 5 5 5 6 7 8 6 2
24 27 26 26 26 25 25 22 20 17 14 14 15 15 16 15 14 15 17 21 20 17 12 9 12 13 14 14 13 13 13 12 11 6 3 4 5 5 5 5 6 7 7
25 29 29 30 28 27 26 24 23 20 17 16 16 16 14 13 12 16 23 23 22 19 16 12 9 8 9 11 12 13 14 14 14 13 8 4 4 5 6 6 6 7 6

GFSSE_700_spd_030.txt.gz
Wind_Speed
36 38 33 31 35 36 32 28 24 20 18 17 18 16 14 13 12 11 11 11 10 10 9 8 8 8 9 11 10 8 8 8 8 5 5 6 7 9 10 10 9 7 5
33 33 36 36 34 32 29 26 22 19 18 18 18 15 13 12 11 11 11 11 11 10 10 9 10 9 9 11 11 10 10 11 10 8 7 7 7 7 10 9 7 6 4
24 33 34 32 30 29 27 24 21 18 19 17 15 13 12 10 11 11 11 11 11 10 10 11 10 9 10 11 13 11 11 11 12 12 10 9 8 9 10 9 8 4 2
27 31 32 31 30 28 26 22 19 18 18 17 14 12 11 10 10 11 12 13 12 12 11 11 10 9 9 10 11 12 12 11 11 13 15 11 11 11 11 9 7 6 4
29 29 29 30 28 26 23 21 18 18 17 15 13 11 10 10 10 10 12 12 12 12 12 12 11 10 9 9 10 10 10 11 10 12 14 15 12 13 14 10 8 8 6
29 28 27 28 27 24 21 19 18 17 15 13 11 10 10 10 10 10 11 11 11 13 12 12 12 11 10 9 8 8 4 6 7 10 13 14 15 14 14 13 10 10 9
29 28 27 28 26 22 20 18 16 15 14 11 11 10 11 10 10 10 11 11 11 11 10 11 10 10 10 9 7 7 7 5 7 9 11 12 13 12 10 11 10 9 8
29 28 27 27 25 21 19 17 15 14 12 11 11 11 10 9 9 10 9 10 10 9 9 9 8 9 8 9 8 7 7 6 8 8 8 10 9 10 8 7 8 8 8
29 28 26 26 25 22 19 17 15 13 12 10 11 10 9 8 8 9 10 9 9 9 8 9 9 7 9 8 7 6 9 7 8 8 7 7 7 6 7 8 8 7 8
28 27 26 26 25 22 19 17 15 13 12 10 9 9 8 7 7 8 8 6 7 9 8 9 10 10 9 9 5 5 3 5 7 7 8 7 7 6 7 7 7 7 7
28 27 25 25 24 22 19 17 15 13 11 9 8 8 7 6 7 8 8 7 6 9 9 8 9 10 9 10 5 3 2 4 4 5 6 6 7 6 7 7 7 6 7
27 26 26 25 24 22 19 17 15 13 10 8 7 8 7 5 6 7 9 8 7 7 9 9 9 10 13 9 11 10 8 1 4 5 5 5 6 6 6 6 5 5 5
25 25 26 25 24 22 20 18 15 12 10 8 6 5 4 4 5 4 5 7 6 7 8 8 14 7 9 7 9 6 1 5 1 6 6 6 5 7 6 5 4 4 4
26 25 25 25 23 22 20 18 16 13 10 8 5 4 3 4 2 3 4 5 6 8 6 6 4 10 12 9 8 6 4 4 1 3 9 8 7 5 5 4 4 4 3
24 25 25 25 23 22 20 19 17 14 11 9 6 4 3 4 3 3 2 3 3 4 5 7 7 9 9 8 8 5 3 2 2 3 8 10 8 6 5 4 3 4 4
25 25 25 24 23 22 20 18 16 14 12 10 7 6 4 4 3 3 2 2 3 5 7 7 6 9 11 7 5 4 4 2 3 5 5 10 8 7 6 5 5 4 3
23 25 25 24 24 22 20 18 17 14 13 10 8 7 6 5 3 2 1 3 4 5 3 4 6 7 7 8 2 2 3 5 0 5 5 4 9 7 7 8 8 6 6
24 26 26 26 25 23 21 19 17 15 13 11 9 8 7 7 5 2 2 2 4 5 2 4 5 6 6 7 4 4 3 2 3 3 5 5 7 5 9 9 9 10 10
26 26 27 27 25 24 22 20 18 16 14 12 11 9 8 9 9 7 3 1 3 2 2 3 4 6 7 7 6 3 2 3 7 2 4 6 7 7 7 9 10 10 11
28 28 28 27 27 25 24 21 19 17 15 13 11 11 10 11 10 8 5 2 1 2 2 2 4 7 6 5 4 2 5 3 5 4 2 1 6 7 8 9 9 11 11
29 30 30 29 28 27 25 21 19 16 15 13 11 12 11 11 11 9 5 2 3 3 1 3 5 4 4 6 7 8 6 5 5 4 5 4 2 4 5 6 9 12 12
29 30 31 29 28 27 24 21 19 17 16 15 14 14 12 11 11 11 7 5 6 5 2 5 5 4 6 8 10 8 5 6 4 4 4 4 2 1 1 4 6 7 10
29 30 30 29 28 27 25 23 21 19 19 18 17 14 12 10 11 11 10 9 11 8 3 5 8 9 9 8 8 10 7 3 4 4 3 3 3 4 3 1 1 2 5
24 29 29 29 29 27 25 25 22 19 16 15 14 14 13 13 12 13 13 13 15 11 6 5 7 8 9 9 9 10 9 6 6 3 1 1 2 0 1 3 4 3 2
22 29 30 30 30 28 27 24 22 20 17 17 17 16 16 16 14 14 16 18 19 16 11 9 11 12 12 11 11 12 12 11 9 4 3 6 4 3 4 3 4 5 4
25 28 32 32 29 28 26 26 24 21 19 18 16 15 14 13 14 14 17 23 23 19 15 12 11 10 10 9 9 10 10 10 10 10 6 1 4 9 8 8 7 7 8

GFSSE_700_spd_033.txt.gz
Wind_Speed
38 30 36 32 32 30 27 23 20 17 18 18 16 14 12 11 10 10 10 9 8 7 7 7 6 8 9 8 7 6 7 7 6 5 4 6 7 8 9 7 6 3 1
35 32 33 33 30 28 24 21 18 18 19 17 15 13 11 11 10 11 11 11 10 10 9 8 7 8 9 11 9 9 9 10 9 10 7 6 7 8 9 7 3 3 0
31 32 36 35 30 27 23 20 18 18 19 16 14 12 11 11 11 12 12 11 11 10 9 8 8 8 10 12 13 11 10 11 12 13 11 11 8 8 10 8 4 3 2
30 38 36 34 30 26 22 19 18 18 17 15 13 12 11 11 12 13 13 12 12 11 9 8 8 9 9 10 11 12 10 10 11 11 11 12 11 11 13 9 6 4 4
34 35 34 31 29 24 21 19 19 18 16 14 13 12 11 12 13 12 12 12 12 12 11 12 12 11 8 8 8 7 9 8 9 11 11 13 12 13 14 11 8 7 5
31 31 32 30 27 23 21 20 19 17 15 13 12 12 12 12 12 11 11 11 12 13 13 12 11 10 9 7 8 7 4 6 6 13 9 12 15 12 12 8 7 7 8
30 30 30 28 25 22 20 19 18 16 14 13 13 13 12 12 12 11 10 10 10 10 9 9 9 9 8 7 6 7 6 5 8 5 9 12 13 12 10 9 8 7 7
28 29 28 27 24 21 19 18 17 15 14 14 13 12 11 11 11 10 10 9 9 9 9 10 9 10 9 8 8 10 6 5 9 9 10 10 10 9 7 7 7 6 6
26 27 26 24 23 21 19 18 16 15 13 13 12 12 11 10 10 10 9 9 9 9 9 10 11 10 10 7 7 9 8 8 8 6 8 7 6 7 6 7 7 6 6
23 27 25 23 21 21 19 17 15 14 13 12 10 10 10 8 8 8 7 8 8 8 9 10 12 12 12 10 8 9 7 6 7 3 5 6 4 5 6 7 6 7 6
23 27 25 23 22 21 19 16 15 13 12 9 9 10 11 11 11 10 9 8 8 9 9 12 13 13 14 18 15 13 5 8 5 4 2 4 5 5 5 5 5 6 6
25 24 23 24 21 20 18 16 14 13 10 9 9 9 15 10 7 7 8 8 7 7 10 12 7 16 21 22 17 12 8 5 1 4 4 4 4 4 5 5 5 4 4
23 23 23 23 22 21 18 16 14 12 9 8 9 1 10 5 4 5 6 7 7 8 4 3 15 10 11 12 6 7 7 12 10 10 4 3 4 4 5 5 5 5 5
26 24 23 23 24 22 18 18 13 10 8 6 5 5 7 9 4 7 4 3 6 11 4 10 13 7 7 8 1 6 3 9 7 12 7 5 4 3 4 4 4 4 3
24 25 24 24 23 21 19 18 14 13 9 6 5 3 4 3 2 6 1 3 4 3 5 6 6 6 3 5 6 9 2 9 11 9 6 7 5 4 2 2 2 2 2
23 25 25 24 22 20 19 17 15 13 11 9 6 4 3 4 5 3 2 4 3 4 4 7 6 2 5 4 2 1 5 4 10 11 2 6 5 4 4 2 2 2 1
25 26 25 23 22 21 19 17 15 13 10 9 7 5 4 4 4 7 2 2 1 4 4 2 3 7 13 9 4 9 5 5 1 10 5 7 6 6 5 5 6 4 4
25 26 24 23 23 22 20 18 16 14 12 11 9 7 6 6 5 2 3 3 4 6 3 5 2 6 3 2 3 7 7 4 2 8 8 5 7 3 8 7 7 7 7
26 26 25 25 24 22 21 19 17 15 13 12 10 9 7 7 6 4 1 4 5 4 4 2 3 5 3 5 14 4 3 6 12 5 9 6 4 5 7 8 8 8 8
27 27 27 27 26 24 23 21 18 16 14 13 11 10 7 8 7 6 5 4 4 3 1 2 4 4 1 3 10 7 6 6 5 3 13 4 8 3 9 11 9 3 9
29 29 29 29 28 26 25 22 19 16 15 14 12 11 11 9 10 9 6 5 3 6 3 5 7 5 3 2 8 5 4 5 9 9 5 2 5 4 6 7 6 9 5
28 29 30 30 29 27 25 23 22 18 17 15 14 13 13 11 10 10 10 7 5 6 3 6 4 5 3 2 11 5 6 4 5 3 5 3 6 3 3 2 4 6 8
30 29 30 30 30 28 26 25 23 21 19 17 16 15 13 13 12 11 11 10 8 7 4 1 5 5 4 4 6 14 7 3 1 6 5 5 3 3 4 4 4 3 6
27 28 29 31 30 29 28 27 24 20 19 17 17 16 15 14 12 12 13 12 12 11 6 4 4 5 6 8 8 8 11 11 9 3 5 7 4 3 4 7 9 4 5
25 26 28 30 31 30 29 27 24 23 20 18 17 18 17 16 15 14 15 14 13 14 8 6 6 8 10 11 10 9 9 9 7 8 5 8 15 10 8 3 1 10 7
22 27 30 33 33 31 28 28 25 23 22 21 20 18 17 17 15 14 14 15 16 19 13 9 11 10 9 9 9 8 8 9 7 8 3 7 8 10 8 10 10 7 10

GFSSE_700_spd_036.txt.gz
Wind_Speed
29 34 33 32 30 27 24 20 18 17 17 17 15 14 14 13 12 11 11 10 9 8 7 8 8 9 9 8 7 8 7 7 6 5 6 6 6 8 6 4 5 4 4
26 34 31 32 29 25 21 19 17 17 18 16 14 14 14 13 12 12 12 12 12 10 10 9 8 9 11 11 10 10 10 10 10 8 9 9 7 9 8 6 5 4 5
29 32 30 30 27 23 20 18 17 18 18 15 14 14 14 13 13 12 12 12 12 11 10 9 8 9 11 12 13 12 11 12 12 13 9 13 12 11 11 8 5 5 5
32 30 29 28 25 22 19 17 18 18 16 15 14 14 14 14 13 14 14 13 13 12 11 11 10 8 9 11 13 13 11 11 12 10 12 15 14 14 13 8 7 5 5
33 33 31 28 24 20 18 18 18 17 15 14 13 14 15 14 14 13 13 13 14 13 13 12 10 10 8 10 10 9 9 8 10 12 10 13 15 13 11 8 7 6 4
36 36 30 27 23 20 19 19 18 17 15 14 14 14 14 12 12 12 13 13 13 12 11 10 10 9 8 8 10 8 6 7 13 11 10 13 16 13 12 9 7 7 7
34 34 29 26 22 20 20 19 18 16 15 15 15 15 14 12 11 12 12 11 11 11 10 10 11 10 9 9 8 7 6 8 13 10 13 13 11 10 8 9 9 8 7
31 31 29 25 22 20 19 18 17 15 15 16 15 14 13 12 11 11 11 10 10 10 11 11 11 12 10 10 9 9 9 5 11 10 11 10 10 8 7 7 7 7 6
31 29 27 24 22 21 19 17 17 15 15 15 14 13 13 12 11 10 9 9 10 11 13 15 15 17 14 12 12 11 12 10 10 7 9 7 6 6 6 7 6 6 6
28 27 24 22 21 20 18 17 16 15 15 14 12 12 12 11 12 9 7 9 11 12 12 12 14 18 25 19 14 10 8 6 8 5 7 6 4 5 5 6 6 6 6
23 26 23 21 21 20 18 16 15 14 14 11 9 10 12 10 11 13 8 9 11 9 10 14 17 17 22 20 17 12 7 7 6 6 5 4 4 4 4 5 6 6 6
20 25 23 21 20 19 17 16 14 13 12 8 9 18 15 17 14 13 9 7 8 8 13 12 15 12 11 19 17 18 9 7 5 5 4 3 3 3 3 3 4 4 4
20 26 23 22 21 19 18 15 13 12 11 10 8 14 5 13 11 8 8 8 9 5 7 9 9 9 9 15 9 11 10 11 9 7 1 2 2 2 2 2 3 4 3
17 15 17 22 21 20 19 15 13 10 8 8 0 5 10 4 11 4 6 7 6 8 7 8 9 9 5 11 4 9 3 2 4 10 4 1 2 3 3 2 2 3 3
23 21 18 21 21 20 19 16 12 6 7 0 5 2 3 7 6 3 6 4 6 5 5 10 9 6 6 2 5 6 5 10 10 4 1 3 1 2 3 3 3 2 2
27 25 26 21 23 20 17 19 19 13 6 12 7 5 3 5 3 3 7 4 9 9 3 5 6 7 4 5 2 5 2 5 12 2 4 2 2 2 1 1 1 1 2
31 28 29 21 22 20 17 14 10 14 11 8 9 5 2 1 3 3 3 3 6 6 3 3 6 9 7 10 6 11 7 3 5 4 5 5 3 2 1 1 1 2 3
20 28 26 22 22 21 18 16 14 11 10 7 6 4 4 4 3 2 1 4 4 6 4 3 5 5 8 14 10 3 6 6 12 4 4 6 2 1 4 4 2 3 4
28 27 24 22 21 20 19 17 15 13 9 8 7 5 5 5 5 5 3 3 6 3 5 7 6 4 6 9 8 9 7 10 8 9 7 5 4 2 2 3 5 5 6
32 28 24 22 21 21 20 19 17 14 11 9 8 9 4 5 4 4 3 1 5 6 6 6 6 5 1 6 5 4 4 4 6 13 9 4 12 7 1 5 4 6 6
31 25 25 25 24 23 22 19 17 15 13 11 10 10 5 6 5 5 5 4 5 4 5 7 10 5 6 6 5 0 7 6 11 13 6 6 11 8 7 10 9 4 6
26 23 25 27 26 23 21 19 18 16 14 12 11 11 8 7 6 7 6 5 5 3 5 8 7 5 8 4 13 9 10 12 8 7 6 9 1 7 5 8 8 7 8
27 22 24 27 27 24 23 22 21 20 17 14 13 12 10 9 8 9 10 8 5 4 1 3 4 3 8 6 6 11 9 1 1 6 6 8 6 7 6 8 9 10 10
23 21 22 27 28 26 26 25 23 20 17 14 13 14 11 10 9 10 10 10 6 6 2 2 2 2 7 9 7 8 11 5 0 2 5 10 13 12 9 12 10 9 10
18 18 20 25 28 28 29 26 23 21 19 18 16 14 13 12 12 11 11 11 9 8 6 3 3 4 8 9 12 10 7 5 5 3 2 9 9 13 12 7 12 9 8
22 21 22 25 29 30 30 28 24 22 21 20 17 16 15 13 13 13 11 12 12 10 9 6 8 7 8 7 8 11 7 6 4 2 3 8 12 12 12 14 9 9 9

GFSSE_700_spd_039.txt.gz
Wind_Speed
33 34 32 30 28 24 21 19 17 17 18 18 17 15 13 13 13 12 12 11 9 9 9 9 12 12 10 9 8 8 6 6 7 8 9 10 10 10 8 6 6 8 7
34 34 31 29 26 23 19 17 17 18 18 17 16 14 14 14 14 14 14 13 11 10 10 12 13 13 13 12 12 10 9 8 8 8 10 13 12 11 9 7 6 8 7
35 33 30 27 24 20 18 17 17 19 17 16 15 15 14 14 14 14 14 13 12 11 11 11 11 12 14 15 14 11 12 13 10 9 12 15 16 13 11 9 7 8 7
33 32 29 25 22 18 17 17 19 18 17 16 15 15 15 14 15 15 14 13 13 13 12 12 10 10 11 10 12 12 10 10 13 11 12 16 18 15 13 9 8 7 6
33 30 27 23 20 18 18 19 19 18 17 16 16 15 15 15 16 16 15 14 14 14 13 11 10 9 10 11 9 10 11 9 14 13 15 17 18 15 11 8 6 6 6
33 29 26 22 19 17 19 19 18 17 16 16 16 15 14 14 15 15 14 13 13 12 12 11 11 10 10 10 10 10 11 12 14 17 18 16 15 12 10 8 7 7 8
35 31 27 22 19 19 21 20 18 17 17 16 16 16 15 14 15 14 13 12 12 12 11 10 10 11 11 12 10 11 9 9 17 16 15 14 13 11 9 8 8 8 8
32 31 27 22 21 22 21 19 18 18 18 18 16 15 15 14 13 13 12 12 12 13 11 11 12 11 12 14 14 12 11 7 14 17 14 13 11 10 8 8 7 7 8
30 28 26 23 23 22 21 19 18 19 18 17 16 15 14 13 13 12 12 12 11 11 13 14 18 17 16 16 17 13 12 11 14 14 12 10 9 8 7 7 7 7 7
29 27 24 23 22 21 20 19 18 18 17 15 14 13 13 12 12 11 11 11 10 14 15 13 14 20 21 22 17 16 14 12 13 10 8 8 8 8 7 7 8 8 8
29 26 24 23 22 21 20 18 18 17 16 14 12 12 11 12 12 11 10 10 14 16 15 15 15 18 17 20 21 14 13 11 12 12 8 7 6 6 6 6 7 7 7
30 27 23 23 22 20 20 18 17 16 15 11 12 12 12 13 12 12 9 9 13 11 10 12 12 13 11 11 10 12 11 9 9 13 7 6 5 5 6 6 5 5 6
28 26 24 22 21 20 19 16 15 14 15 11 10 14 12 10 9 11 9 7 9 6 10 7 9 8 7 11 13 11 10 6 7 9 4 6 7 5 6 5 5 4 4
28 25 24 23 21 21 20 17 13 13 15 12 17 8 10 7 7 10 9 5 7 7 7 7 10 11 6 12 7 6 5 5 4 8 3 5 8 6 6 5 5 5 5
24 24 24 22 21 21 20 18 15 14 13 12 10 9 8 8 6 10 6 3 7 7 3 10 9 12 6 2 2 1 2 3 4 4 1 5 5 6 5 5 5 5 5
17 20 24 24 22 20 20 19 17 15 12 4 4 4 4 5 5 6 5 7 8 5 6 8 11 8 4 10 6 4 2 2 3 1 2 4 3 3 3 4 4 4 3
16 15 18 24 21 19 16 12 15 16 10 12 7 7 3 5 4 3 3 4 5 7 7 7 3 4 12 13 12 5 5 2 11 4 3 1 3 1 1 1 0 1 1
22 19 17 21 22 18 16 13 9 13 15 10 9 6 3 3 3 3 2 4 7 8 4 7 6 11 11 12 15 7 6 5 10 1 3 4 3 7 1 2 2 2 2
22 22 19 20 22 21 18 16 13 11 9 8 9 8 5 4 5 4 1 1 6 7 9 7 6 6 6 5 9 13 11 10 7 14 9 5 6 2 3 3 3 1 3
17 19 17 19 23 22 21 19 17 15 12 9 6 6 5 5 5 6 4 2 6 8 8 6 4 5 2 2 3 7 4 8 8 10 11 9 7 4 3 3 4 4 3
20 19 18 19 21 24 22 21 18 15 13 11 8 4 5 5 5 6 4 1 5 6 7 9 6 4 3 5 15 8 4 12 7 6 6 8 12 6 7 10 8 7 8
20 18 19 20 21 24 22 19 18 16 14 11 10 7 6 6 6 6 6 3 1 6 5 6 9 7 9 16 14 17 15 11 10 8 11 11 14 12 12 10 11 12 9
25 19 19 21 21 22 22 22 21 20 19 16 12 9 6 6 7 5 5 5 1 4 3 4 8 7 6 9 8 13 11 5 6 8 8 8 16 12 12 10 10 11 9
20 19 20 23 23 22 24 24 22 17 15 12 12 10 7 7 7 7 7 6 4 3 3 3 7 7 6 8 9 7 7 7 8 4 11 13 13 11 11 8 9 9 10
18 19 20 23 24 24 25 24 22 20 17 15 14 12 10 10 9 8 7 7 7 3 6 3 5 8 7 7 10 9 8 9 7 10 11 10 13 12 13 14 12 10 9
19 18 22 25 25 26 26 25 22 21 19 18 15 13 11 12 10 8 8 8 8 4 6 5 7 10 9 8 7 8 9 9 9 8 8 5 8 14 14 17 19 15 15

GFSSE_700_spd_042.txt.gz
Wind_Speed
35 34 33 30 28 25 22 20 20 21 20 18 17 15 14 11 11 11 10 9 8 8 9 11 12 12 11 10 8 6 5 7 9 11 13 15 13 11 9 7 6 8 8
34 34 32 29 25 22 20 19 19 20 19 17 17 15 14 13 13 12 12 10 10 10 10 11 15 15 13 11 11 10 8 7 10 12 14 15 14 11 7 7 5 7 7
33 32 31 26 22 20 19 18 19 20 18 17 16 14 14 15 15 14 13 13 12 10 10 10 12 13 13 13 11 12 12 8 9 12 14 17 17 13 10 9 7 7 7
31 30 29 24 20 18 17 18 19 19 17 17 15 15 15 15 15 15 15 14 13 13 12 10 9 11 9 10 11 11 12 11 11 13 13 16 18 15 10 9 7 7 7
31 30 26 22 18 17 19 20 19 18 17 16 15 16 16 16 16 16 16 15 14 12 11 9 8 8 8 9 10 11 11 12 13 14 15 17 18 15 10 7 6 7 8
31 29 24 20 17 17 20 20 19 18 17 16 16 16 16 17 16 15 15 13 11 10 9 8 8 8 9 9 10 13 13 15 15 16 17 16 14 11 8 6 7 8 9
31 28 23 19 16 19 21 19 19 18 17 17 16 16 17 16 15 14 13 13 11 8 7 7 9 9 9 11 12 13 13 17 19 19 18 16 13 10 9 8 8 9 9
29 27 22 19 18 20 20 19 18 18 17 17 16 16 16 16 14 13 12 12 11 12 10 10 13 13 13 14 13 14 13 16 18 19 16 14 11 10 9 8 7 8 8
29 27 22 20 21 21 20 19 19 19 18 16 15 15 14 15 14 13 13 14 13 14 16 17 17 18 20 18 19 18 15 13 15 16 14 12 11 9 8 7 8 8 7
27 25 22 22 22 21 20 20 20 18 16 15 14 13 11 11 13 14 14 15 15 18 18 17 18 21 18 18 20 18 15 11 12 12 11 10 10 10 8 7 8 8 8
28 25 24 24 22 21 20 20 19 17 15 13 12 11 11 10 11 11 15 15 15 15 15 15 16 18 18 15 15 17 17 14 12 12 11 10 10 9 8 7 7 7 8
30 27 25 24 22 22 20 19 18 15 14 13 12 12 13 10 9 9 12 12 12 11 9 11 13 10 10 8 12 12 12 11 10 12 11 9 9 8 7 7 7 7 7
29 27 27 25 22 21 19 18 16 15 13 15 11 14 13 9 9 10 9 9 8 9 8 7 9 9 10 10 9 7 12 6 5 9 9 9 9 8 7 7 6 6 6
31 26 26 25 23 22 19 18 15 18 16 14 14 14 9 9 9 12 5 6 7 9 10 7 7 7 5 10 8 7 9 6 6 7 8 7 8 10 8 7 6 6 5
30 28 26 25 23 21 20 19 17 14 15 16 17 11 10 8 8 5 2 6 6 7 8 6 4 7 6 6 7 6 5 5 7 6 7 6 6 7 8 6 5 5 5
29 28 25 24 23 21 19 18 19 16 15 14 17 11 8 8 5 6 5 9 9 5 6 6 9 4 1 5 2 3 0 7 7 8 6 5 5 5 5 4 4 5 5
28 28 27 25 25 22 19 16 16 17 19 15 16 14 10 9 7 4 5 6 6 6 4 8 8 11 7 9 7 4 8 9 11 7 4 3 4 3 3 2 1 2 3
24 29 28 27 26 23 20 14 13 15 12 11 13 12 10 7 6 5 5 7 7 5 6 6 9 7 11 11 7 10 12 15 7 6 3 6 5 2 3 1 1 1 1
19 27 31 28 26 23 20 17 13 12 11 10 9 9 8 6 5 4 2 4 6 4 6 7 3 4 9 10 8 16 13 9 10 10 8 5 2 1 2 2 1 1 2
21 18 25 26 24 23 22 19 17 14 10 7 6 5 5 4 5 4 3 4 6 5 8 6 1 4 3 8 7 8 9 8 11 10 8 9 5 7 5 4 2 3 3
19 19 21 26 24 23 23 22 19 15 12 8 7 7 6 6 6 6 5 2 4 5 9 8 5 5 4 9 6 11 9 4 11 9 14 14 12 12 10 10 10 8 5
19 18 21 22 25 23 21 20 17 15 13 11 10 9 8 7 7 6 4 2 2 4 6 9 5 6 10 13 14 14 15 10 11 11 11 14 13 12 11 12 11 9 11
23 18 20 22 23 24 22 22 22 22 21 18 13 10 9 9 8 7 6 5 3 3 5 7 5 6 7 7 8 12 10 7 8 13 12 13 15 12 11 11 9 9 9
23 21 19 21 24 26 26 26 25 20 16 12 11 11 11 10 9 8 8 6 5 5 6 6 5 6 8 9 11 13 12 7 10 13 15 12 14 14 13 9 8 8 9
26 22 22 21 24 26 28 28 25 23 19 17 16 14 13 12 10 9 8 7 7 6 6 6 5 7 10 11 13 13 12 10 12 9 8 13 14 16 17 14 12 9 8
18 19 22 25 26 27 29 30 28 24 22 20 18 16 14 12 11 9 8 6 6 8 9 8 9 9 13 12 12 11 11 11 9 9 9 10 13 15 13 14 14 12 10

GFSSE_700_spd_045.txt.gz
Wind_Speed
33 30 29 25 22 19 16 15 15 16 15 14 13 13 12 12 11 10 9 9 9 10 12 12 11 10 9 8 6 6 7 11 11 13 14 11 9 9 8 6 5 5 5
33 31 30 25 22 19 17 17 16 16 14 13 13 14 12 11 10 9 9 9 10 10 12 13 13 12 11 10 10 9 7 8 11 13 14 13 12 8 7 6 5 5 5
32 31 30 25 22 19 19 18 18 16 14 14 14 14 14 13 13 12 12 11 10 9 9 10 9 11 13 13 14 11 8 7 11 12 15 15 13 8 6 6 5 5 5
31 30 28 24 20 19 18 19 18 17 15 15 15 15 14 14 14 13 13 12 11 10 9 8 8 10 11 12 10 12 11 9 13 14 15 16 15 11 7 7 5 5 5
31 28 25 21 19 17 18 19 18 17 15 15 16 16 16 16 15 15 14 12 10 8 8 6 7 8 9 10 9 9 11 13 12 14 14 16 14 10 8 5 6 6 7
31 27 23 19 17 17 18 19 18 16 15 15 16 16 16 16 15 13 11 9 7 7 5 6 7 8 11 12 15 12 11 13 13 14 15 14 13 8 6 5 7 7 8
30 26 21 18 17 18 19 18 17 16 16 15 15 16 15 14 13 11 10 8 8 6 5 7 8 9 11 13 15 15 15 16 14 14 15 13 10 8 7 8 8 8 8
27 24 19 18 18 19 18 17 17 16 16 15 14 15 15 14 13 11 11 12 11 10 10 11 12 14 14 14 14 16 16 18 19 16 14 12 10 9 9 8 7 7 7
26 22 18 16 19 19 17 17 16 16 15 15 14 12 13 12 13 12 13 16 15 15 17 16 18 17 19 17 18 17 16 16 16 16 13 12 10 9 8 8 7 7 7
25 21 17 18 19 18 17 17 16 16 15 13 13 11 10 9 11 12 14 15 17 19 18 18 17 18 17 17 18 15 14 12 13 14 13 13 11 10 9 8 8 7 7
26 22 19 19 19 18 18 18 17 15 14 13 13 11 10 10 10 11 14 15 15 16 16 15 16 17 18 15 16 15 13 11 11 12 11 11 12 10 9 8 8 7 8
26 23 22 21 19 19 18 17 15 14 13 12 11 11 11 11 9 10 12 12 13 11 11 11 9 11 10 14 14 13 13 11 10 11 11 10 11 10 8 7 7 8 8
24 23 24 22 20 18 17 16 15 14 13 11 12 12 13 12 9 8 9 9 8 8 9 6 8 9 10 13 10 8 8 9 9 10 10 9 8 9 9 7 7 6 7
25 23 24 23 21 19 18 16 13 11 15 11 14 10 11 14 12 8 6 7 8 7 8 7 5 6 10 11 10 8 7 5 7 9 10 9 7 8 8 8 7 7 7
26 25 25 24 22 19 18 17 16 13 13 13 13 9 11 11 8 4 5 6 4 5 6 7 6 5 6 10 9 6 5 6 10 9 7 7 7 7 8 7 6 7 7
27 26 26 24 22 20 19 18 18 14 13 10 14 12 12 11 8 7 6 7 2 3 4 5 3 3 1 7 5 4 3 10 12 10 7 6 5 5 6 5 6 5 5
27 27 27 25 23 21 18 17 17 15 12 10 9 9 11 10 9 5 5 2 5 6 3 5 6 7 6 4 5 6 9 12 10 9 5 5 3 3 4 3 3 3 3
29 29 28 27 24 22 19 16 14 14 13 13 11 8 9 8 7 6 2 5 6 5 5 7 9 11 11 9 6 11 14 10 9 8 5 4 2 2 2 2 2 2 2
29 30 29 28 26 23 20 16 14 15 16 13 12 10 8 8 6 6 1 3 5 4 5 7 7 8 8 8 15 15 12 10 10 7 7 4 0 1 3 1 2 3 2
25 29 30 29 27 24 21 20 17 16 17 14 10 8 9 8 6 5 3 4 4 4 4 4 5 9 9 6 13 12 13 14 11 9 9 8 4 5 4 3 5 4 4
26 25 32 30 29 28 25 23 20 17 15 14 11 7 7 7 6 5 2 3 4 5 7 6 4 4 7 8 7 11 12 12 12 12 13 9 10 11 10 8 7 4 2
30 29 29 31 32 29 27 22 18 15 13 12 12 10 7 6 6 7 5 1 3 5 5 6 7 5 9 9 8 9 12 11 11 12 13 13 12 10 10 11 10 8 7
25 31 33 33 33 30 27 24 22 21 19 17 14 10 8 7 7 7 7 4 3 3 4 6 8 6 9 9 13 13 12 10 10 11 11 11 12 11 10 10 9 8 8
24 27 31 33 32 30 28 26 24 22 18 13 11 11 11 10 8 7 6 6 5 4 4 3 8 8 8 8 11 11 11 11 11 11 11 11 11 11 9 7 8 8 7
25 27 29 30 31 30 28 27 25 23 19 16 15 14 13 13 11 9 8 9 8 6 6 6 7 8 8 9 9 10 11 11 10 11 11 11 10 11 11 9 7 7 5
19 25 27 29 31 30 30 28 27 25 22 21 20 17 15 14 12 10 9 10 10 9 8 8 9 9 10 10 10 10 10 9 9 11 12 11 10 11 10 8 8 7 7

GFSSE_700_spd_048.txt.gz
Wind_Speed
30 29 27 23 21 17 15 17 17 17 16 15 14 14 13 13 13 12 12 12 13 14 13 11 11 9 8 5 4 6 8 9 11 11 10 9 8 7 7 8 6 6 7
29 29 26 22 19 16 15 16 16 16 15 14 13 13 12 12 12 12 12 10 11 12 14 15 13 11 9 9 8 6 7 10 10 12 11 9 8 7 7 6 4 5 6
27 27 25 21 16 14 15 16 16 14 13 13 13 12 12 12 12 11 11 10 10 9 10 11 12 12 12 11 10 8 8 10 12 12 13 11 8 7 6 4 4 4 5
26 26 23 19 15 14 15 15 15 14 12 12 13 13 13 12 11 11 10 9 9 8 8 8 9 10 11 10 11 10 10 13 14 15 16 12 9 8 7 5 4 4 6
26 24 21 18 15 14 15 14 13 13 13 13 14 14 13 12 12 11 11 9 7 6 6 6 7 9 10 11 11 12 14 15 15 15 16 14 10 8 7 5 4 6 8
27 24 20 17 15 14 15 15 14 13 13 14 15 14 14 13 12 10 8 7 5 5 5 6 9 11 13 14 12 13 15 17 16 15 16 13 10 6 5 5 6 8 8
27 23 19 16 14 15 16 16 14 13 13 14 14 13 12 11 10 10 8 7 6 7 9 8 10 12 14 14 15 17 15 15 17 16 14 11 7 6 6 7 8 8 8
25 22 18 16 16 16 16 16 15 13 12 12 13 11 10 9 9 10 10 9 10 11 11 11 12 12 14 14 15 16 17 17 16 15 13 11 9 9 8 8 8 7 7
25 19 16 15 17 17 16 15 14 13 12 12 11 9 8 9 8 11 15 14 16 14 16 15 15 14 14 14 16 16 16 16 16 14 12 12 10 9 8 8 7 8 8
25 19 15 15 17 16 16 15 14 13 12 11 10 8 7 8 10 11 16 16 20 17 16 15 17 16 15 16 16 14 15 13 13 13 12 11 11 11 10 9 9 8 8
25 20 16 17 17 16 16 15 14 13 12 12 11 8 8 9 10 10 12 16 15 16 15 16 14 14 14 14 14 12 11 10 11 12 12 11 12 12 11 10 9 9 8
26 21 19 19 17 16 16 15 13 12 12 11 10 9 9 9 11 11 9 12 12 11 12 9 11 10 12 14 13 11 10 9 10 12 11 10 11 11 10 10 10 9 8
24 21 21 20 18 16 16 14 13 12 11 10 10 10 10 9 10 9 7 7 9 8 9 8 8 7 14 8 8 9 10 10 9 11 11 10 10 11 10 10 10 8 7
24 21 22 21 19 17 17 15 13 12 11 11 13 10 11 11 11 7 5 5 7 4 6 7 7 9 11 7 9 8 6 7 9 11 11 10 8 9 9 10 9 8 7
24 23 22 21 20 18 17 15 12 13 12 14 12 11 10 10 8 7 5 3 2 4 3 3 7 7 8 8 8 7 6 8 9 10 10 10 9 8 9 9 8 7 6
24 23 23 22 20 18 17 15 12 15 12 12 8 11 10 9 7 6 5 6 2 4 3 2 3 6 6 5 5 7 9 10 11 10 8 8 8 6 7 7 6 5 4
24 24 24 22 21 19 17 16 14 11 12 13 9 9 8 9 9 7 7 7 3 4 4 4 4 6 8 4 5 8 12 11 11 8 7 7 6 5 4 3 2 2 1
26 25 26 24 22 20 18 16 14 13 11 11 9 10 8 8 7 7 6 7 3 3 4 7 8 13 9 6 5 11 11 10 10 6 5 5 4 3 3 3 3 3 3
25 27 28 26 23 20 19 17 14 14 12 11 11 11 9 8 7 4 4 6 3 2 3 4 7 11 11 13 16 12 9 11 9 7 5 4 4 4 4 3 5 5 3
27 28 28 28 25 23 21 19 17 14 15 13 11 8 8 8 7 5 4 3 2 1 3 3 5 8 5 8 10 9 13 10 9 6 7 7 5 5 3 5 6 5 3
29 30 31 31 29 27 24 22 19 15 16 15 13 10 7 7 7 6 5 2 2 3 3 2 4 9 9 8 5 11 12 6 8 9 10 11 11 8 5 5 3 2 1
28 29 33 33 31 28 25 21 18 16 16 16 16 12 8 6 7 7 5 3 3 4 3 3 2 7 7 9 9 9 11 9 8 8 10 10 10 10 10 9 8 7 5
33 31 30 33 32 30 27 24 22 23 23 22 16 12 9 7 6 6 5 5 4 3 3 4 3 5 6 7 10 12 10 7 6 5 7 8 7 8 9 9 8 7 5
33 33 29 30 32 31 30 28 25 22 20 17 15 12 10 9 7 7 7 6 4 4 3 4 4 6 8 9 11 11 11 10 8 6 5 5 5 6 6 6 6 5 4
29 34 34 32 33 34 32 30 27 23 20 18 16 14 13 11 9 9 9 8 7 5 5 4 5 7 10 12 11 10 10 10 9 8 7 7 6 6 7 7 6 6 5
20 29 35 36 35 36 35 33 29 26 23 20 17 16 14 12 11 10 10 10 9 8 7 7 8 8 9 10 11 11 11 10 10 10 10 10 9 9 9 10 9 10 9

GFSSE_700_spd_051.txt.gz
Wind_Speed
29 26 24 22 21 20 19 19 18 18 17 17 16 16 15 15 15 14 13 13 13 13 12 10 9 7 6 4 6 7 8 10 9 9 9 7 6 7 9 9 7 7 9
26 24 22 21 19 19 18 18 18 16 15 15 15 14 13 13 12 12 12 12 13 14 14 12 10 8 7 7 7 8 11 11 12 10 9 7 6 6 7 7 6 7 9
25 24 22 20 18 18 18 17 16 14 14 14 15 14 13 13 12 11 10 11 11 10 11 10 10 10 10 8 7 8 10 12 11 11 9 7 6 5 5 6 6 7 8
25 24 22 19 17 17 17 17 16 14 13 13 14 14 14 12 11 10 9 10 9 9 8 8 8 9 9 10 7 9 10 12 12 11 10 8 7 7 5 5 6 6 8
25 23 20 18 16 16 17 16 14 13 13 14 14 13 13 12 11 10 9 8 6 6 6 7 8 8 10 10 9 12 13 14 13 13 11 9 8 7 5 5 5 7 8
24 21 17 15 15 16 16 15 14 12 13 13 14 13 12 11 10 8 7 5 5 5 7 8 9 9 12 12 14 14 15 15 15 15 13 9 7 6 4 5 7 8 8
24 19 17 14 13 14 15 15 14 13 12 13 14 13 11 10 8 7 6 5 5 8 11 11 11 12 13 15 16 16 17 16 16 15 12 9 6 5 5 7 8 9 9
22 19 16 14 13 14 14 14 13 13 12 13 13 11 9 9 9 8 8 9 11 12 13 14 13 13 13 15 16 17 17 16 16 14 11 8 7 7 7 8 8 8 8
23 18 15 14 15 16 15 14 14 12 12 12 12 10 8 9 10 13 15 14 14 15 14 15 14 13 14 15 16 15 16 15 14 12 9 8 8 8 8 8 8 8 9
23 18 16 15 17 16 15 14 13 12 11 12 11 10 9 9 11 15 17 16 15 17 16 16 14 13 13 15 14 14 12 11 11 11 9 9 9 9 9 9 8 9 9
24 19 16 16 17 16 15 15 14 12 11 11 11 10 9 10 12 13 15 14 15 15 15 15 15 13 11 12 12 11 10 9 10 11 11 10 10 10 9 9 9 8 8
24 20 17 18 17 16 15 14 13 12 11 10 11 10 9 11 11 11 12 12 12 12 12 12 12 12 13 11 10 8 8 8 9 10 11 9 10 9 9 10 9 8 8
23 19 18 19 18 17 17 15 13 12 11 9 10 10 9 11 10 8 8 8 8 10 11 10 7 8 10 9 9 8 7 9 9 10 10 9 10 8 9 9 8 8 8
23 19 20 20 18 18 17 15 13 12 10 10 11 10 9 9 8 8 7 6 6 8 9 8 8 9 7 8 8 7 6 9 9 10 9 9 10 8 8 8 7 7 7
22 20 21 20 19 17 16 14 13 12 12 13 11 10 10 7 7 9 7 5 4 5 6 7 7 8 5 6 9 6 6 8 10 10 9 9 9 8 7 6 6 6 6
23 21 21 20 19 17 15 13 12 13 13 12 11 9 8 5 8 8 8 5 2 5 5 5 5 5 6 6 6 5 7 10 9 9 7 6 8 7 6 5 4 5 4
22 22 21 20 19 17 15 14 12 16 15 12 13 10 8 7 7 8 10 7 6 6 6 3 3 4 5 3 5 9 8 10 10 9 8 5 5 5 3 2 1 1 1
24 22 23 22 20 17 15 14 13 14 12 14 12 10 7 7 6 8 9 8 6 8 7 7 8 9 6 3 8 11 9 9 9 8 8 5 5 4 4 2 2 2 3
24 23 24 22 21 18 16 15 14 13 12 12 9 9 8 7 6 7 7 6 7 6 5 5 6 8 6 10 11 9 8 7 7 6 6 6 5 5 4 2 4 3 3
27 26 25 24 23 22 18 17 15 12 11 10 10 10 7 6 6 5 5 6 6 3 3 2 5 6 8 9 7 5 7 7 4 4 4 4 4 4 4 4 5 4 4
30 29 28 27 26 24 22 19 17 13 12 11 11 10 7 6 5 5 4 4 5 4 1 1 2 6 6 5 3 7 4 2 4 5 6 4 4 3 3 3 3 2 2
31 30 31 29 29 25 23 20 17 14 14 15 14 12 10 7 7 6 4 3 4 3 3 2 1 4 6 8 6 7 4 4 4 4 6 6 6 5 6 6 6 6 6
32 31 32 31 30 28 25 24 22 21 20 20 17 13 11 9 7 7 6 5 4 3 3 2 1 3 4 7 8 8 6 2 3 4 4 6 7 6 5 5 6 5 5
33 31 31 33 33 31 29 27 24 22 19 17 15 14 12 10 8 8 7 5 3 4 3 3 3 4 5 9 11 11 8 6 5 3 3 5 5 5 5 5 5 4 4
32 33 32 33 36 35 32 30 27 25 22 21 19 17 14 11 9 8 7 7 5 4 4 4 4 5 7 9 10 10 9 9 6 5 5 6 7 7 8 8 8 7 7
32 34 35 34 34 38 35 32 30 27 25 24 22 19 15 12 11 10 9 8 7 6 6 5 6 7 8 8 9 10 10 9 8 8 8 8 10 11 13 12 12 12 14

GFSSE_700_spd_054.txt.gz
Wind_Speed
30 28 27 23 22 22 22 20 18 17 16 16 16 16 15 13 12 11 11 10 9 8 7 5 4 3 4 5 6 7 8 8 6 6 6 6 7 8 9 11 10 10 11
28 26 25 23 21 21 20 19 18 17 16 16 15 14 13 12 11 10 10 11 11 10 9 7 6 5 3 5 7 8 9 10 8 7 6 6 7 7 8 10 10 10 11
26 24 23 21 20 20 19 18 16 15 15 15 14 13 12 11 10 9 10 10 9 9 8 7 7 7 6 5 8 12 11 11 10 8 7 6 5 7 8 9 9 9 10
24 23 21 20 19 18 17 17 15 14 14 13 13 14 12 10 10 9 10 8 7 6 6 6 7 6 6 6 7 11 14 12 12 10 8 6 6 6 7 7 7 9 10
23 22 20 20 19 17 16 15 14 14 14 13 13 13 11 9 9 9 8 6 6 5 5 6 6 6 6 5 9 11 13 13 13 11 9 7 7 7 7 7 8 9 10
22 21 19 19 18 17 16 15 14 13 13 13 13 12 12 10 8 7 5 4 5 5 6 7 8 8 7 10 12 13 15 15 15 13 9 6 5 6 7 8 8 9 9
23 20 19 18 18 18 15 14 14 14 13 13 13 12 10 9 8 5 4 4 5 7 9 11 11 11 12 12 12 14 14 14 15 12 8 5 4 6 7 8 8 9 9
22 19 17 18 18 18 15 15 13 13 13 12 12 12 10 9 8 7 8 10 10 11 12 12 12 12 14 14 14 14 14 14 14 12 8 4 5 6 7 7 7 8 8
22 17 16 17 18 18 16 14 13 12 12 11 12 12 10 10 10 13 13 15 15 14 14 14 13 14 15 16 14 14 14 12 12 9 6 5 5 6 6 6 7 7 8
21 17 15 17 18 18 16 14 13 12 12 11 11 13 11 12 13 15 15 15 16 16 14 14 13 14 14 13 14 14 12 10 8 7 6 5 6 7 6 7 7 8 8
22 18 15 17 18 17 16 15 14 13 12 10 11 12 11 12 13 13 14 15 15 15 14 13 13 14 13 11 11 11 9 8 7 7 6 7 8 7 6 7 7 8 8
22 19 17 19 18 17 16 15 14 13 12 11 11 11 12 12 13 12 12 13 12 12 13 12 12 12 11 8 9 8 9 7 7 7 6 7 7 7 7 7 8 7 8
21 19 18 19 19 18 18 16 15 13 12 11 11 11 12 10 10 9 10 11 9 7 9 9 10 11 12 7 7 8 7 6 6 7 6 7 7 7 6 7 7 7 7
21 18 19 20 20 19 19 16 13 12 11 11 11 10 10 9 7 7 10 9 8 8 7 6 6 7 7 8 6 7 6 6 6 7 6 7 6 6 6 6 6 6 5
21 18 20 20 20 20 18 15 13 12 12 13 12 11 10 9 7 7 8 7 8 7 7 6 6 4 5 6 6 5 6 5 7 8 6 6 6 5 5 6 6 5 5
21 19 20 21 20 19 16 15 14 13 14 12 13 12 10 10 8 7 5 6 6 6 6 6 5 5 5 5 9 5 6 7 5 8 6 6 5 5 4 4 5 4 4
21 20 20 20 20 19 17 15 14 14 16 12 11 9 9 9 9 8 8 8 7 6 5 4 4 4 5 5 7 6 7 7 6 7 6 5 4 2 3 2 1 2 2
24 22 21 20 19 18 16 13 16 16 15 11 11 9 7 7 7 7 8 9 8 7 5 5 6 5 4 5 7 7 7 7 6 5 5 4 4 3 2 1 2 2 3
25 24 23 21 19 18 16 16 15 16 14 12 11 8 7 6 5 5 7 8 8 7 7 6 6 7 5 5 7 7 6 6 4 4 4 4 4 4 5 3 4 5 5
27 26 25 23 21 19 17 16 16 15 13 11 9 8 6 6 5 4 5 6 6 6 3 5 4 9 9 10 4 5 4 3 2 2 2 3 4 3 4 5 4 4 5
30 28 27 26 24 21 18 16 15 14 12 11 9 8 7 6 6 5 4 5 5 6 4 3 2 2 5 5 4 5 5 2 0 1 2 3 4 5 5 6 5 6 7
31 30 29 28 26 23 20 18 16 15 14 13 11 9 7 6 5 6 5 4 4 3 4 1 3 4 4 4 7 4 4 6 4 3 3 3 5 6 7 7 8 9 8
32 31 29 29 28 26 24 22 20 18 16 16 14 12 9 8 7 5 4 3 2 3 4 3 2 2 3 6 5 10 4 3 2 4 4 3 4 6 7 7 7 8 8
32 31 31 30 30 29 27 25 23 19 16 15 14 14 12 11 10 8 6 4 3 3 3 2 2 3 5 5 7 9 13 11 6 3 4 5 6 6 7 7 8 8 8
34 32 31 32 32 31 30 28 26 24 20 18 18 16 14 12 11 9 8 6 5 4 3 3 2 4 6 7 8 7 7 8 8 11 3 4 10 10 11 12 12 11 11
34 35 33 33 34 34 32 31 29 27 24 23 20 17 15 13 11 10 9 8 7 6 5 4 3 5 7 7 8 9 8 5 1 4 3 5 9 11 13 14 13 13 13

GFSSE_700_spd_057.txt.gz
Wind_Speed
32 29 26 24 23 21 20 17 15 15 14 13 11 11 11 10 8 8 7 6 5 5 5 4 4 4 4 5 7 9 8 7 6 6 6 7 9 11 11 11 12 11 12
30 27 25 24 22 21 19 17 16 15 14 13 12 10 9 8 7 7 9 8 8 7 5 4 4 4 4 6 7 8 8 8 7 6 6 8 8 10 10 11 12 12 13
27 25 23 23 21 20 18 16 15 14 13 12 11 10 8 7 7 7 8 8 7 7 6 5 5 6 4 5 8 10 10 10 8 8 6 8 7 10 10 12 11 13 13
25 23 22 22 20 20 17 16 14 14 13 11 10 9 7 6 6 7 6 6 5 5 5 6 5 5 5 4 8 11 11 11 10 8 6 8 8 10 11 11 12 12 12
23 21 21 21 20 19 17 14 14 14 13 11 11 9 7 6 6 6 4 3 3 3 5 5 5 4 4 5 9 13 13 13 11 8 7 8 9 9 10 11 10 11 12
19 20 19 19 19 18 16 14 13 13 13 12 11 9 8 7 5 4 2 2 2 4 5 6 6 5 6 9 11 13 14 13 12 10 6 8 9 9 10 9 9 10 10
18 19 18 18 18 17 15 14 13 14 13 12 11 9 7 5 4 2 2 3 6 8 8 9 9 8 11 12 15 15 15 13 13 9 6 6 7 8 9 8 8 9 10
19 20 18 18 18 17 15 14 14 14 13 12 11 9 7 6 5 6 7 7 9 11 11 10 11 13 13 15 15 15 13 15 5 7 4 6 7 8 7 8 7 9 9
17 19 17 19 18 17 15 14 14 14 13 11 11 10 10 10 11 11 10 11 11 13 12 12 13 14 16 15 15 14 13 9 10 12 2 5 6 6 7 7 7 8 8
18 19 18 19 19 18 15 14 14 14 12 11 12 12 13 13 13 13 13 13 12 12 12 12 14 16 16 16 15 13 13 9 9 4 5 4 4 6 6 6 7 7 7
18 17 16 17 20 18 16 15 14 13 11 10 12 13 12 14 13 12 12 13 14 13 12 12 12 15 16 14 13 10 9 13 8 1 4 4 4 5 6 6 7 7 8
18 18 15 18 20 19 17 15 15 13 10 10 12 13 12 11 12 12 11 11 12 12 11 11 11 11 17 13 14 5 11 8 8 6 4 4 4 5 6 6 7 7 8
19 20 17 19 21 17 17 16 15 11 10 10 11 15 11 12 10 11 11 9 10 8 8 10 10 14 11 9 12 6 12 9 6 6 3 3 3 4 5 6 7 6 7
21 22 18 19 20 17 19 13 14 2 8 10 10 11 10 10 7 3 3 9 13 2 6 7 7 7 10 10 8 13 11 6 4 4 3 3 3 3 4 5 6 5 6
22 21 20 20 20 20 19 17 11 13 10 9 9 9 13 4 5 6 7 6 4 7 5 6 8 3 8 5 2 5 3 7 10 2 4 3 3 4 4 4 5 6 6
22 19 20 19 19 20 21 19 15 15 13 10 10 9 10 11 6 3 7 3 5 5 6 5 7 7 6 4 10 3 3 5 5 5 6 3 3 3 3 3 4 5 6
22 20 19 19 19 19 18 16 15 9 10 8 9 9 8 9 8 7 4 4 5 6 3 4 5 12 4 3 7 7 4 5 4 3 0 1 2 2 2 2 3 4 6
23 21 21 20 19 18 16 16 19 12 11 12 9 9 8 7 8 8 6 6 7 4 1 5 11 10 6 2 8 7 1 2 2 1 2 2 1 2 1 3 4 5 6
24 23 24 22 20 17 15 14 17 15 15 10 8 7 7 6 6 5 8 5 3 12 5 10 6 10 8 5 5 1 6 0 7 5 2 3 5 7 3 3 4 5 6
26 24 25 23 21 19 17 14 18 15 16 13 9 5 6 5 5 5 2 6 5 11 5 4 9 6 13 12 6 5 4 1 3 7 6 5 3 2 6 3 3 4 5
28 26 27 26 23 21 18 16 14 14 16 11 11 12 6 5 5 3 2 5 8 1 8 1 9 11 10 11 8 4 10 4 6 4 3 1 7 6 8 9 9 10 10
29 27 27 26 24 21 20 18 16 15 12 12 10 9 6 5 5 3 3 3 3 6 3 3 10 6 6 12 14 5 8 14 3 3 1 3 4 3 6 10 10 9 9
31 29 27 27 24 23 23 22 20 19 17 14 11 11 8 6 6 5 4 2 3 3 4 3 4 11 7 6 11 12 9 7 4 8 7 5 5 8 4 8 10 10 10
30 30 28 28 27 25 24 24 22 18 15 13 13 10 9 7 7 7 6 3 1 5 1 2 2 12 8 4 8 13 13 12 9 7 8 4 4 6 8 8 8 10 10
32 30 29 29 29 28 26 25 23 21 18 14 13 18 13 9 8 8 8 6 3 2 0 1 3 2 12 13 2 1 11 10 12 13 7 7 11 7 10 12 14 13 14
32 32 31 30 30 30 29 28 26 25 22 18 17 17 16 12 10 9 8 6 5 4 2 2 1 2 5 13 15 9 3 5 5 7 3 5 6 6 10 12 11 12 13

GFSSE_700_spd_060.txt.gz
Wind_Speed
29 25 23 21 20 18 18 15 13 12 10 9 10 10 10 9 9 9 9 7 6 6 6 5 4 3 3 5 6 7 7 7 8 7 9 10 10 13 13 13 14 13 15
26 24 22 21 20 18 16 14 12 12 11 10 10 9 8 8 8 10 12 11 10 8 8 7 5 2 2 5 7 9 9 8 7 6 9 10 12 13 13 13 14 15 15
26 24 22 21 20 18 16 14 14 12 10 9 8 7 7 7 7 9 10 10 10 10 9 8 7 6 5 6 9 10 11 10 10 7 7 10 11 12 13 14 14 15 15
24 23 22 21 19 17 16 14 12 10 9 8 7 6 6 6 6 7 8 9 8 8 8 7 6 6 7 7 10 11 11 10 8 7 10 11 11 12 13 14 14 14 14
23 22 22 20 19 16 15 13 11 10 9 8 8 7 6 6 5 5 5 5 5 5 6 6 7 7 5 9 12 12 14 12 9 7 11 10 11 12 13 13 13 13 14
22 22 21 20 18 15 14 13 13 11 10 10 9 8 7 5 4 3 2 2 3 5 7 8 6 8 10 12 13 14 12 13 9 10 10 11 12 11 11 12 13 13 13
24 20 20 20 18 15 15 14 14 12 12 11 9 8 5 5 4 4 3 3 7 8 9 9 11 12 13 14 14 13 12 12 9 9 10 10 10 11 11 11 12 11 12
20 20 19 19 18 16 15 14 15 14 13 11 10 8 7 6 7 8 10 9 11 11 11 13 14 15 15 16 15 13 12 10 9 9 9 9 9 10 10 10 10 10 11
17 18 18 18 18 17 15 15 15 14 12 11 11 11 10 12 13 13 13 12 12 12 14 15 17 18 18 17 16 15 10 9 14 8 9 7 8 8 9 9 9 9 9
18 16 17 19 18 17 15 15 14 14 11 11 13 13 15 15 15 15 15 13 13 13 15 16 18 20 20 18 16 16 13 11 6 7 7 6 7 8 8 8 8 9 9
12 15 19 19 19 17 16 15 14 13 11 12 13 13 13 17 17 13 17 15 14 14 14 16 17 19 21 19 14 11 20 10 3 8 5 6 7 7 8 8 9 9 9
11 13 9 20 18 18 16 15 14 13 11 12 12 12 14 17 15 14 13 14 15 14 14 13 14 16 18 16 13 10 17 5 4 5 6 6 7 7 8 8 9 9 9
14 15 17 15 19 18 17 14 13 11 12 11 13 10 10 14 10 15 12 9 16 8 12 13 12 13 15 10 12 18 19 8 9 4 6 6 7 7 8 8 8 9 9
21 20 17 17 18 19 15 17 14 8 8 11 9 11 9 9 7 1 9 10 8 9 9 7 7 8 7 12 10 9 10 4 4 3 6 5 6 7 7 8 9 9 9
22 17 17 20 20 16 15 14 11 9 5 13 10 9 13 9 6 9 9 8 4 11 7 5 9 7 6 6 9 9 13 10 5 4 6 6 6 6 7 8 9 9 10
22 21 19 22 19 17 19 14 15 14 10 9 11 5 6 8 8 8 5 5 3 6 10 7 10 8 8 4 3 5 6 7 4 6 5 6 5 5 5 6 7 8 9
24 27 17 20 20 22 20 14 12 16 15 9 13 8 5 9 8 3 8 5 3 4 6 5 14 9 7 3 6 1 1 2 2 5 4 3 3 3 4 5 6 7 7
24 21 17 18 20 19 16 14 13 13 11 8 12 9 6 4 9 6 4 8 3 4 4 7 13 11 2 6 5 3 5 4 3 4 4 3 2 3 3 4 5 5 6
27 19 20 20 20 18 16 16 12 16 11 11 10 10 8 6 2 4 8 4 5 6 6 8 5 13 7 11 7 3 2 4 4 5 5 6 5 5 3 2 5 5 6
25 21 21 21 21 19 18 17 17 17 17 12 9 7 7 7 5 5 6 7 6 6 7 7 12 9 8 2 9 9 11 7 8 13 9 10 12 8 10 7 5 7 10
25 24 23 23 22 19 18 16 18 16 12 12 10 11 7 6 5 5 4 7 7 1 5 9 15 14 10 9 8 10 16 8 14 16 8 12 8 14 13 13 10 11 12
27 24 25 24 21 20 19 17 16 16 18 14 10 8 7 6 5 5 5 5 4 7 6 6 12 8 13 13 11 6 4 12 12 5 6 2 10 5 10 9 13 14 12
28 25 25 24 21 20 21 20 19 19 16 11 11 12 8 6 5 5 4 4 3 7 8 5 7 5 12 15 13 8 4 5 8 6 7 10 4 5 8 10 11 14 15
27 25 25 25 24 22 22 22 20 18 20 15 9 7 8 6 4 5 5 4 3 5 5 7 6 11 7 12 7 11 8 6 7 3 13 16 7 10 10 11 17 16 17
27 24 26 26 26 26 24 23 21 19 17 12 13 9 9 6 5 4 4 3 2 2 4 6 6 8 10 10 10 7 10 9 10 10 6 11 10 13 14 15 18 18 18
30 25 26 28 27 28 26 25 24 22 20 19 15 17 18 9 8 6 6 5 3 1 3 4 4 5 6 9 10 15 12 10 14 12 3 5 7 9 12 14 14 12 14

GFSSE_700_spd_063.txt.gz
Wind_Speed
28 25 22 22 21 18 17 15 13 12 12 13 13 13 12 12 12 11 10 9 9 8 7 7 6 6 5 6 7 8 8 9 10 10 12 12 12 14 15 15 15 14 15
24 24 22 21 18 17 15 14 13 12 11 12 12 12 11 11 12 14 14 13 11 10 8 8 7 7 7 8 9 9 9 9 10 9 11 12 12 14 14 15 15 15 15
23 24 22 20 18 16 14 13 13 12 11 11 10 10 10 10 10 11 12 12 12 12 11 10 9 8 9 10 12 12 11 12 11 11 11 12 11 13 15 16 15 16 16
22 23 22 19 18 17 15 14 12 11 10 9 9 8 8 8 8 9 11 10 9 9 9 9 9 9 9 12 14 14 13 12 13 13 11 11 12 13 14 15 15 16 16
24 22 21 20 19 16 14 12 11 10 9 10 9 8 7 8 6 7 6 7 7 7 8 8 7 7 9 14 15 14 12 12 12 13 12 12 12 13 14 15 15 16 15
25 22 21 19 17 16 13 12 12 10 10 10 9 9 7 6 6 5 5 6 8 9 10 10 10 10 14 15 15 15 12 10 14 13 11 12 12 13 14 14 14 15 14
24 22 20 19 17 15 14 14 13 13 11 10 9 8 7 6 7 6 7 9 11 12 13 14 15 16 16 16 15 13 11 10 12 11 11 13 12 12 12 13 14 14 14
21 21 20 19 18 16 15 15 15 14 12 10 9 10 9 11 12 13 14 14 15 15 17 18 19 19 19 19 16 13 10 7 10 11 13 12 11 12 12 12 13 13 14
19 19 19 18 17 17 17 17 16 13 11 10 13 15 16 17 18 19 18 17 17 19 20 22 22 21 21 19 15 13 10 10 15 12 12 11 11 12 12 12 13 13 13
16 17 18 19 18 17 17 17 15 12 11 12 15 17 20 20 20 19 19 17 18 19 20 21 22 22 23 22 17 13 11 12 11 12 12 11 11 12 12 12 12 12 12
20 17 19 19 18 18 17 17 15 13 12 14 16 16 18 21 20 20 20 17 17 18 19 19 18 20 19 18 17 12 13 12 12 13 12 11 11 12 11 11 12 13 13
21 19 19 19 18 18 17 16 15 13 12 14 13 15 15 18 19 19 19 18 17 16 17 19 16 20 14 14 15 11 14 12 14 10 10 10 11 13 12 11 12 13 14
10 22 22 21 19 19 17 16 14 13 12 14 13 12 15 19 17 14 12 13 18 17 16 14 16 14 12 16 15 11 15 15 9 7 8 9 11 12 13 12 11 11 11
10 14 25 22 20 20 17 15 15 10 12 13 12 10 14 17 8 11 10 13 12 14 10 10 11 9 15 13 12 5 6 8 7 8 9 9 10 11 12 12 11 10 10
20 10 7 18 23 21 18 18 15 13 12 13 9 9 6 10 11 10 11 10 13 10 9 7 11 10 11 10 7 4 7 6 4 7 7 8 8 9 10 10 9 9 9
21 17 11 16 22 19 19 14 10 14 16 11 10 7 9 6 11 6 6 7 13 10 12 8 16 13 10 8 6 3 4 3 5 6 7 7 6 7 7 8 7 8 8
18 17 14 20 18 18 19 18 12 15 14 9 8 9 7 8 8 8 5 3 7 10 11 6 9 9 7 8 5 2 2 5 4 7 7 6 5 5 6 6 6 7 7
21 20 18 22 21 21 18 14 14 16 16 15 10 12 11 10 6 6 8 6 2 7 12 9 14 5 12 11 10 10 6 7 5 6 8 3 4 4 3 4 6 7 8
23 18 18 21 20 21 17 16 17 17 14 18 13 9 8 9 5 6 7 6 6 9 11 9 5 9 13 12 13 10 6 7 5 7 7 6 6 6 4 5 7 9 9
25 18 19 23 23 20 19 19 18 18 17 16 14 12 9 9 7 8 6 7 9 11 11 10 15 12 10 6 12 15 12 14 14 13 14 15 14 14 16 12 12 11 11
23 20 21 22 23 22 21 18 15 15 17 18 14 9 8 6 7 9 6 10 9 4 12 17 15 11 10 9 12 15 14 16 13 18 15 14 13 15 15 13 12 12 12
24 22 23 22 23 22 19 19 16 17 16 15 12 11 9 7 5 5 7 6 8 8 6 15 14 13 13 8 7 10 9 10 12 12 13 10 14 13 14 15 13 13 15
26 24 25 22 22 22 22 20 23 24 20 16 17 13 11 8 6 6 6 8 7 8 9 17 12 5 14 14 11 1 8 5 13 17 18 15 12 11 17 18 17 17 19
27 23 25 23 23 23 23 21 20 19 21 16 14 14 11 8 6 5 4 7 8 8 8 6 11 11 12 11 10 12 9 10 7 13 16 14 13 10 18 17 20 21 20
25 25 25 24 26 25 24 22 19 17 15 16 15 13 7 9 8 7 6 5 6 7 5 6 12 10 9 12 14 14 11 14 11 9 12 14 14 16 20 19 18 18 18
31 26 27 26 27 27 25 23 22 18 16 17 17 13 12 10 9 9 5 6 6 6 6 5 7 6 7 13 13 15 16 16 16 11 7 10 14 15 14 13 13 14 13

GFSSE_700_spd_066.txt.gz
Wind_Speed
30 27 24 22 21 19 17 15 15 12 13 13 13 12 12 11 10 10 10 10 9 8 8 7 8 9 9 9 9 10 10 10 11 11 11 10 11 13 12 15 14 15 16
27 26 24 22 19 18 16 15 14 14 14 14 12 12 12 12 13 13 12 11 10 10 9 8 8 8 8 10 10 9 9 9 10 11 11 11 12 13 14 15 15 15 15
25 25 23 21 19 16 16 15 14 13 13 12 10 10 10 12 12 13 13 11 11 10 9 8 8 8 9 10 12 11 12 11 9 9 11 12 12 13 14 14 14 14 16
22 22 21 20 17 16 16 15 13 12 11 10 9 9 9 10 10 11 10 10 10 10 9 9 9 10 11 13 14 13 13 11 11 12 12 12 12 12 13 13 14 15 15
23 22 20 18 16 16 15 14 12 11 10 9 8 8 9 8 7 8 8 8 8 8 8 9 10 12 14 15 15 14 13 12 11 13 12 12 11 12 13 13 14 14 14
23 22 20 18 17 16 14 13 12 11 11 9 9 8 7 6 6 7 9 9 10 9 9 9 12 15 17 16 14 13 13 11 12 12 12 12 11 12 13 13 14 15 15
24 22 20 19 16 14 14 13 13 12 10 9 9 8 8 7 8 10 12 13 13 14 14 15 17 17 18 17 16 14 12 11 12 12 12 12 11 12 13 14 14 15 15
21 21 20 18 16 15 15 14 13 12 11 10 9 11 12 13 16 18 18 16 16 18 19 21 22 21 19 16 15 12 11 11 12 12 12 12 11 13 13 14 14 14 14
20 19 18 17 16 16 16 15 14 12 11 11 15 16 18 21 21 21 19 18 18 19 21 23 23 22 21 19 17 14 11 12 12 12 12 12 11 13 13 14 14 14 14
18 18 17 16 16 16 16 15 14 13 13 15 17 18 21 21 21 20 20 19 20 20 22 22 20 20 18 18 17 16 12 10 12 13 14 13 12 14 14 15 14 14 15
17 17 17 17 17 17 16 15 14 15 16 17 16 16 21 21 19 20 20 20 21 21 21 21 20 18 16 16 15 15 13 13 15 15 15 14 13 13 14 14 14 14 13
17 18 17 18 18 18 16 15 14 15 16 16 17 16 18 21 20 19 18 19 21 21 21 19 17 14 14 14 11 12 13 15 17 15 15 13 12 13 13 13 14 12 11
17 18 20 19 18 17 15 13 14 16 14 16 17 15 18 19 20 20 16 17 16 17 16 16 13 14 13 16 13 10 11 17 15 13 13 12 12 12 12 12 11 10 10
12 19 21 21 19 18 16 14 13 14 12 14 16 12 13 11 18 19 16 11 14 14 17 14 13 10 9 10 10 12 12 16 13 12 12 11 10 10 10 10 9 9 9
12 20 22 21 20 19 18 14 14 14 13 15 14 9 8 11 14 16 11 12 10 13 12 14 16 11 9 9 8 11 14 15 11 11 9 9 8 8 8 9 8 8 8
20 24 20 20 20 19 18 15 14 15 15 15 14 10 6 11 11 12 9 10 7 12 11 16 13 10 5 10 12 8 10 10 8 9 9 8 7 6 6 6 6 7 6
15 14 16 19 19 19 19 15 16 16 16 13 12 10 6 8 8 9 10 11 9 8 12 14 11 10 8 13 11 12 7 7 7 8 6 5 4 4 4 5 6 7 7
11 11 14 19 22 21 20 17 14 18 16 16 12 9 11 7 7 6 11 11 9 8 5 13 11 9 14 15 14 6 5 7 7 6 4 5 4 3 4 6 8 9 10
13 12 13 16 19 20 17 13 10 17 17 15 16 10 9 9 7 5 5 5 9 10 7 16 10 10 18 17 12 6 6 9 10 10 8 8 8 8 7 9 13 12 12
16 13 13 16 21 20 19 15 16 20 18 16 15 13 9 7 7 8 6 10 9 8 7 11 9 11 16 13 9 14 13 14 12 14 15 15 16 17 15 14 13 14 14
17 16 17 20 23 22 20 18 19 16 16 13 14 10 10 5 5 7 8 10 12 9 10 11 14 12 13 13 12 13 14 14 14 15 15 15 16 15 13 14 14 16 17
25 18 18 19 23 22 21 17 17 16 16 17 12 12 10 8 5 7 6 7 8 10 14 12 11 13 17 14 13 11 9 13 16 15 15 14 14 13 13 14 16 19 20
30 23 20 20 22 23 21 21 20 19 21 21 17 14 11 9 8 7 7 7 6 12 15 14 8 11 11 11 10 6 7 16 16 15 15 16 14 14 15 17 20 23 23
32 22 22 21 23 23 24 22 21 21 21 17 14 13 11 11 9 7 6 6 6 7 8 12 10 9 13 12 10 12 10 14 14 16 16 18 18 17 19 20 20 21 20
28 25 22 23 24 25 25 23 20 22 19 18 17 16 13 12 9 8 8 6 7 7 7 10 11 8 8 9 13 15 12 13 11 11 15 20 21 19 18 19 18 17 16
29 25 23 25 25 26 25 23 22 21 18 22 20 20 17 13 11 10 9 7 7 7 7 7 10 7 7 13 18 17 18 14 12 12 15 19 21 20 18 16 14 13 12

GFSSE_700_spd_069.txt.gz
Wind_Speed
29 26 24 22 20 17 14 14 14 12 12 13 13 11 10 9 10 9 8 8 8 7 7 6 6 6 6 7 7 9 10 11 12 12 12 12 12 13 14 15 15 15 16
26 26 23 20 18 15 13 13 13 14 14 13 12 12 12 11 11 10 9 9 8 8 8 8 7 6 7 7 7 8 9 10 11 11 12 11 12 13 14 14 15 14 15
24 23 22 20 17 13 12 13 13 13 12 11 10 10 10 12 12 11 10 9 8 8 8 8 7 8 9 10 10 10 10 9 9 10 11 12 12 13 14 13 14 14 13
22 22 20 18 15 13 12 12 12 11 10 9 9 9 10 10 10 10 9 9 9 9 8 9 10 11 12 12 13 11 10 10 10 10 11 12 12 13 13 13 13 13 12
22 21 18 17 14 13 13 12 11 10 9 8 8 8 9 8 8 8 8 8 8 8 9 10 11 12 13 14 13 12 11 11 10 11 12 12 13 13 13 13 13 13 12
21 20 18 16 15 13 12 12 10 9 9 8 7 7 7 6 7 8 8 9 8 8 8 10 13 15 15 15 13 11 11 10 12 12 12 12 11 12 12 13 13 12 12
20 19 17 16 14 12 10 10 10 9 8 7 6 7 7 8 9 10 11 11 10 11 12 16 19 18 17 15 13 12 10 11 13 12 12 11 11 12 13 13 12 13 12
18 18 17 15 14 12 11 10 11 9 7 7 8 9 10 15 16 14 12 11 13 14 18 20 21 19 18 16 13 10 8 11 12 12 12 12 12 13 13 13 12 12 12
18 16 15 13 13 12 12 11 10 8 8 10 12 14 17 19 17 15 14 15 15 17 19 20 20 19 16 15 12 10 9 11 13 12 13 13 12 13 13 13 12 12 12
18 16 14 13 13 13 12 11 10 10 11 13 15 18 20 20 17 17 18 17 18 18 18 19 20 20 17 15 13 12 10 11 12 13 14 13 12 13 13 12 11 12 12
19 17 15 14 14 14 12 11 11 13 14 13 15 17 20 19 19 20 20 21 19 20 20 18 18 18 17 15 11 11 11 12 13 15 15 14 13 13 12 12 12 11 12
18 17 15 14 13 13 12 11 12 15 14 13 13 16 17 19 19 19 19 21 20 20 21 19 16 14 13 12 10 9 12 13 14 15 15 14 13 11 11 11 11 12 11
15 16 16 15 14 13 11 11 12 13 14 13 14 15 16 17 17 17 17 18 18 17 17 19 18 15 14 13 11 11 11 14 15 14 14 13 12 11 10 10 10 10 10
14 15 17 16 15 14 12 12 13 14 13 13 14 14 11 14 15 16 15 15 14 12 11 12 15 15 14 12 12 11 13 14 13 13 13 12 11 10 10 9 9 9 9
9 13 17 17 16 15 14 13 13 13 13 14 13 12 12 12 13 13 13 12 11 10 8 8 9 11 13 14 11 12 11 13 11 12 11 10 9 9 8 8 8 8 8
10 13 18 18 16 16 14 12 12 13 15 14 12 11 8 13 10 10 11 9 10 11 11 11 8 7 10 11 9 8 9 10 10 9 9 8 8 7 7 6 7 7 8
8 16 18 19 17 15 13 11 11 14 13 12 12 11 11 8 9 6 6 8 9 7 8 10 9 10 13 11 10 10 10 10 8 8 7 5 5 6 7 8 9 10 11
15 16 17 18 18 15 15 12 11 13 13 12 12 11 11 6 5 5 7 8 8 8 8 8 7 8 11 12 8 8 8 9 8 7 6 6 6 7 9 12 12 12 12
10 15 17 15 16 17 17 14 12 15 13 12 13 11 8 5 5 7 7 5 8 7 11 10 9 13 12 8 7 6 7 9 10 10 10 8 9 11 13 13 14 13 14
6 8 12 13 17 16 17 15 12 17 14 12 11 9 9 6 4 7 7 8 8 10 8 11 11 10 12 8 10 9 8 10 11 14 14 14 16 16 14 13 13 15 17
12 9 8 12 18 17 18 15 12 17 16 13 11 10 8 7 5 4 7 9 9 6 8 14 14 9 10 9 12 12 13 12 13 14 15 14 14 14 15 15 16 18 20
16 9 9 11 16 18 18 16 14 17 16 14 12 10 8 6 5 4 5 6 4 5 6 9 12 12 11 12 12 10 9 11 13 13 13 13 13 14 16 18 19 22 22
21 17 14 9 12 16 18 19 17 21 19 16 11 9 9 7 6 5 4 4 6 7 9 6 12 15 13 11 9 9 12 13 13 12 11 12 14 16 18 21 21 22 21
20 19 16 13 14 17 21 20 17 16 17 15 12 10 9 9 7 6 5 5 5 7 9 10 8 11 13 11 7 10 11 13 13 12 12 14 16 20 20 21 21 20 18
21 18 18 16 17 20 22 21 20 18 17 16 17 15 11 9 9 9 7 4 2 3 5 13 8 8 7 10 12 11 12 13 13 14 17 19 21 20 19 19 19 17 15
22 23 19 18 20 22 24 22 20 19 20 18 20 17 13 10 9 9 8 7 4 2 2 5 9 8 9 11 15 14 14 13 15 17 18 20 22 22 20 18 15 13 10

GFSSE_700_spd_072.txt.gz
Wind_Speed
24 23 24 24 20 18 16 13 11 9 9 9 8 7 8 8 8 7 6 6 5 5 5 4 4 4 6 8 9 10 10 11 12 13 14 14 14 15 15 15 15 16 16
22 24 23 21 18 15 13 11 11 13 13 12 11 11 9 9 8 7 6 5 5 5 5 5 4 5 6 8 8 8 9 10 12 13 14 14 14 15 14 14 14 15 15
21 22 20 18 15 13 12 12 13 13 11 10 10 11 12 11 9 8 7 7 8 7 8 7 7 7 8 9 9 10 9 9 11 13 13 13 14 14 14 13 13 14 13
19 19 18 16 13 12 12 12 11 9 9 8 8 9 9 8 8 9 8 8 8 8 8 8 9 10 12 13 12 8 10 10 11 12 13 13 13 13 13 13 13 12 12
19 18 16 15 12 11 11 10 9 8 7 6 6 6 6 6 6 6 6 7 7 8 9 10 12 13 14 14 11 9 9 10 12 12 13 13 12 12 12 12 11 11 11
20 17 15 14 12 11 10 8 8 7 6 6 6 7 7 6 5 4 4 5 6 7 9 11 14 15 14 12 11 9 9 11 13 13 13 12 12 13 12 12 11 11 11
18 16 15 14 12 11 9 8 7 6 5 5 4 5 6 6 7 7 7 6 7 7 11 13 16 16 15 12 10 9 9 11 13 13 13 13 12 12 11 11 12 11 12
15 15 14 13 11 10 9 8 7 5 4 4 4 6 8 9 10 9 8 7 7 10 14 17 18 17 15 13 10 8 7 10 13 14 13 13 12 11 11 11 12 13 12
16 14 13 11 11 10 9 8 6 5 5 7 7 12 14 14 11 10 10 10 12 14 17 19 17 17 13 11 10 8 8 10 12 13 13 13 11 11 12 12 12 12 13
16 15 13 10 10 10 10 8 7 8 9 10 11 15 16 15 14 14 14 15 17 17 17 18 16 14 13 10 9 8 9 10 12 13 14 12 12 12 12 12 11 12 13
18 16 13 10 10 9 8 8 7 11 12 12 12 14 15 16 16 17 17 18 19 20 18 17 15 13 12 10 9 8 10 11 13 14 14 14 13 13 13 13 12 13 13
17 16 14 11 11 10 8 8 10 12 12 13 12 13 13 15 16 18 18 19 20 19 19 16 15 12 10 7 8 8 10 12 13 14 14 13 13 12 12 12 12 11 11
16 15 14 12 12 10 8 9 12 13 13 14 13 13 13 13 15 17 18 17 18 16 14 15 14 12 11 11 9 8 10 11 13 14 13 12 12 11 11 10 10 10 10
15 15 14 13 12 11 10 10 10 13 13 15 14 13 13 13 13 14 12 11 12 16 15 15 15 13 12 13 12 10 11 11 12 12 12 11 12 10 10 10 9 9 10
13 13 14 13 12 12 11 11 12 12 13 11 12 11 12 15 12 13 12 8 7 7 11 15 14 12 13 12 10 10 10 11 10 10 10 10 10 10 9 8 8 9 9
11 11 14 14 13 12 11 11 11 9 11 12 12 12 9 9 10 12 9 6 4 3 6 10 11 11 9 8 8 8 9 10 9 9 9 8 8 8 8 9 9 10 11
8 10 14 14 14 13 12 10 10 10 10 9 8 11 11 8 8 7 7 6 6 4 4 6 7 8 7 8 8 6 8 9 8 7 7 6 8 8 9 10 12 13 14
9 14 17 16 14 14 11 10 10 12 10 8 10 12 11 8 6 4 7 6 5 5 5 7 7 9 5 6 7 6 6 7 7 6 6 7 9 10 11 13 14 14 15
7 11 14 15 15 14 11 11 10 12 11 10 10 12 9 7 6 5 6 5 5 3 5 5 10 10 8 6 5 5 5 6 7 8 8 11 12 12 12 13 15 17 19
8 7 10 12 16 16 13 12 8 12 13 12 12 10 8 7 4 5 3 5 7 7 5 7 10 10 6 4 6 5 6 5 7 11 14 15 14 14 13 14 17 19 20
13 10 10 10 12 13 10 11 7 12 14 12 9 8 7 6 6 3 4 3 6 10 9 9 7 6 2 3 5 5 5 6 8 11 13 14 13 13 15 17 20 21 21
16 9 10 9 11 12 11 11 8 12 13 12 10 8 7 4 5 3 4 5 5 5 6 11 11 6 3 7 9 7 5 5 7 8 10 11 12 14 17 21 22 21 20
20 15 10 6 8 13 14 14 13 15 16 14 10 7 6 6 4 4 4 3 4 3 7 8 9 9 8 7 7 9 9 8 5 6 7 10 13 16 20 21 21 19 17
19 17 13 9 7 10 15 14 11 13 14 11 11 8 7 6 6 4 4 2 2 3 4 7 10 11 11 6 5 8 9 7 6 6 7 10 15 18 21 21 19 17 14
17 16 14 12 10 10 14 14 13 13 17 16 14 9 7 7 6 5 4 4 2 3 3 7 6 8 11 11 8 8 8 7 5 6 9 12 17 19 19 18 16 14 11
19 17 14 13 11 11 13 13 13 14 14 16 14 10 10 9 8 7 6 6 4 3 2 4 10 7 6 7 12 11 9 8 7 10 11 14 16 18 17 16 13 10 7

GFSSE_700_spd_075.txt.gz
Wind_Speed
24 22 21 20 18 16 15 13 10 9 8 8 8 7 7 8 7 6 5 4 3 3 3 4 5 6 7 9 11 12 12 13 14 14 14 14 16 16 15 15 15 17 17
22 23 21 18 16 14 12 10 9 9 10 9 7 7 8 8 8 6 5 5 4 3 3 3 4 5 7 8 9 11 12 12 13 14 13 14 15 16 15 14 14 15 15
22 22 20 17 15 13 11 11 12 11 11 10 10 8 7 7 6 6 6 6 6 5 6 6 6 7 8 10 12 10 10 11 12 13 13 14 14 14 14 14 14 13 13
21 19 17 15 14 13 12 12 11 10 9 9 8 9 9 9 8 7 7 7 6 6 6 7 9 12 12 13 9 8 10 11 12 13 13 13 13 13 13 13 13 12 13
20 17 16 14 13 13 11 10 8 7 6 7 7 7 7 7 7 6 7 7 7 7 8 11 13 15 15 17 7 8 10 10 12 13 13 13 12 12 12 12 12 12 12
18 16 14 13 13 12 10 8 7 5 5 5 5 4 4 4 4 3 5 6 6 8 11 14 16 15 13 10 8 9 10 10 13 13 13 13 12 12 12 13 13 13 13
17 15 13 14 13 11 8 7 6 5 4 4 4 4 4 3 3 3 4 6 6 8 12 16 15 14 12 10 9 9 9 10 12 13 13 13 13 13 13 13 14 14 13
15 14 14 13 11 9 8 7 6 5 3 3 2 4 4 6 5 5 5 6 7 11 14 16 14 13 11 10 9 9 9 10 11 12 13 13 12 12 12 13 14 14 14
16 14 13 12 10 9 8 7 6 5 5 7 7 9 10 9 7 7 9 9 11 15 16 16 14 14 12 10 9 8 10 9 11 13 13 12 11 12 13 13 14 15 15
17 16 12 11 10 10 9 8 8 9 10 11 13 14 12 10 10 13 13 14 16 18 17 15 13 11 11 10 10 10 10 10 11 13 13 13 13 13 13 13 13 14 13
18 16 12 12 12 10 8 8 11 11 12 14 14 13 13 12 13 16 17 18 19 18 16 14 12 11 10 11 10 10 11 11 12 13 13 13 14 14 13 13 13 12 11
18 15 13 13 12 11 9 10 12 13 14 15 13 13 14 14 15 18 18 18 18 18 15 13 11 10 8 9 9 9 10 11 12 13 13 11 12 12 13 12 11 10 10
17 15 13 13 13 11 10 11 11 13 15 14 14 13 13 15 16 18 19 18 16 15 14 13 9 8 8 9 10 9 9 11 11 12 12 11 10 11 10 10 10 10 11
16 15 14 13 13 11 12 12 12 12 15 14 14 13 13 14 15 15 16 16 14 12 12 12 10 10 9 9 10 9 9 10 10 10 11 10 10 9 9 9 9 9 10
15 15 14 13 12 12 12 12 12 12 15 14 12 13 14 13 12 12 12 12 11 10 11 12 10 10 9 9 9 8 8 9 8 9 9 9 8 8 8 7 8 9 10
14 14 15 14 13 11 11 13 13 12 10 11 14 14 13 10 11 9 7 8 9 10 11 10 11 8 6 7 6 6 6 7 6 7 8 7 7 7 8 9 10 11 13
13 14 14 15 14 12 10 11 10 10 11 8 9 11 11 10 9 8 5 5 7 8 8 7 8 7 6 6 6 5 4 6 6 5 5 6 7 8 10 11 12 13 15
13 14 16 15 14 12 10 10 9 10 10 7 9 9 10 11 8 7 6 6 5 6 5 5 4 5 5 4 5 5 4 3 3 4 5 6 8 10 11 13 14 16 17
14 15 17 16 14 12 10 9 10 10 9 7 8 9 8 7 7 7 9 6 5 4 3 2 4 4 3 2 2 2 3 2 2 5 7 8 10 12 13 14 17 18 17
13 15 16 16 16 14 12 11 8 9 8 7 8 9 7 6 7 9 8 6 5 4 5 5 6 4 1 1 1 2 2 2 2 7 10 11 12 12 15 18 19 18 17
14 12 13 14 15 14 10 8 6 6 9 9 9 8 6 5 5 8 5 6 5 6 3 5 5 2 1 1 4 4 3 3 5 8 9 10 11 14 18 19 19 18 16
14 12 12 13 12 12 10 10 8 8 10 12 9 7 5 3 2 4 7 7 7 7 6 8 6 3 4 7 8 7 5 5 5 5 6 9 11 14 18 19 19 17 14
20 15 12 10 11 10 10 9 9 8 13 11 8 7 5 3 3 3 5 6 7 6 6 9 9 6 5 6 7 7 7 7 4 3 5 8 11 16 18 19 18 15 11
22 16 15 10 9 9 9 9 9 8 10 7 8 7 5 4 3 2 3 3 6 5 7 7 8 8 8 7 8 6 8 6 5 4 5 8 12 16 17 17 15 12 9
22 21 17 13 11 9 9 10 10 11 11 12 11 8 6 4 4 3 3 4 3 4 7 9 8 11 11 7 5 7 6 6 5 5 5 8 13 16 16 15 12 9 5
24 24 21 18 12 10 9 11 11 11 12 13 11 10 7 6 5 5 4 4 3 4 5 8 10 9 8 8 9 11 8 7 6 6 7 10 12 14 14 13 10 6 2

GFSSE_700_spd_078.txt.gz
Wind_Speed
22 21 21 20 17 16 15 13 12 11 9 9 8 6 5 4 3 2 3 3 4 4 4 6 7 8 9 12 13 14 15 15 16 14 14 16 16 17 18 16 17 16 16
22 22 19 18 15 13 12 10 10 10 8 6 5 4 4 3 2 2 3 4 4 3 3 4 6 8 10 12 13 13 13 14 14 14 14 15 16 16 16 16 16 16 15
22 21 17 14 13 11 11 11 12 10 10 8 7 6 5 5 4 4 5 5 5 7 7 8 8 9 11 13 13 13 11 13 13 14 14 15 16 16 16 15 15 15 14
22 19 16 14 13 12 13 11 10 9 8 8 8 9 9 8 7 6 6 6 7 8 10 10 12 12 13 13 10 10 11 12 13 14 14 15 15 15 14 14 14 14 14
20 17 14 13 13 13 11 9 8 8 6 7 7 8 7 8 8 8 7 8 8 8 11 14 15 9 14 7 9 10 10 11 12 13 13 14 14 15 14 14 14 14 14
18 15 13 12 11 11 9 7 6 6 5 5 6 5 5 6 6 6 6 8 9 10 13 15 18 13 15 6 8 10 10 10 11 13 14 15 15 15 15 14 14 14 14
17 14 13 12 11 10 8 6 5 4 4 3 3 3 2 3 4 5 6 8 10 12 15 15 15 13 10 9 11 10 9 10 12 13 14 15 14 15 14 14 14 14 14
16 14 14 12 10 8 7 6 4 4 4 3 3 3 3 4 5 6 7 9 11 14 17 15 13 11 10 11 11 10 9 10 12 13 14 14 14 14 14 14 14 14 14
17 14 13 11 9 8 7 6 5 4 4 5 7 8 8 7 6 7 10 12 16 17 16 15 14 12 11 11 11 10 11 11 13 14 14 13 14 14 14 14 14 14 14
19 15 12 10 9 9 7 7 7 9 12 13 13 12 10 10 11 13 15 18 19 18 16 15 13 12 11 12 11 11 12 11 13 14 14 13 13 13 13 13 12 12 12
18 15 12 11 11 9 8 8 11 12 14 14 13 12 13 15 14 16 18 19 19 16 14 12 12 11 13 11 11 11 11 12 12 13 13 13 13 13 12 11 11 11 10
18 16 13 12 11 10 10 11 11 14 14 14 14 14 15 17 18 17 18 17 16 15 13 12 10 7 10 9 10 10 13 11 11 12 11 10 11 11 10 10 10 10 10
16 15 14 13 12 11 12 12 12 13 15 14 14 15 16 17 19 17 17 17 15 13 12 10 8 7 7 8 10 11 10 11 10 11 10 9 9 9 9 9 10 10 10
15 14 14 14 13 12 12 12 13 13 13 13 13 15 16 17 18 16 14 14 13 11 10 9 9 7 8 8 9 9 9 9 8 9 9 9 8 8 8 8 9 10 11
15 14 14 13 12 13 12 11 13 15 13 12 12 13 16 15 15 13 12 12 12 11 11 9 8 8 8 8 8 7 7 7 7 7 8 8 7 7 7 8 10 12 13
16 14 14 14 13 13 13 12 12 13 10 11 12 13 12 13 14 12 11 9 8 10 9 9 7 6 6 6 6 7 5 5 5 6 6 6 6 7 9 10 13 16 17
17 16 14 14 13 12 13 12 11 9 11 10 10 10 9 10 9 10 11 10 11 9 7 6 4 4 5 6 6 6 5 5 4 4 4 5 7 8 11 13 16 19 18
16 16 16 15 13 12 12 11 10 10 8 5 6 7 6 8 6 7 10 10 10 8 6 6 5 4 6 7 6 6 5 4 3 2 3 5 8 10 12 16 19 18 17
16 16 17 16 14 12 11 10 10 10 7 6 6 7 6 7 5 6 7 8 8 7 4 3 3 5 7 6 6 5 5 4 3 3 5 7 10 11 14 18 18 17 14
18 19 20 18 16 13 11 8 8 8 6 5 5 6 3 4 5 7 7 6 6 5 4 3 4 4 3 3 4 1 4 4 4 5 8 10 10 13 17 18 17 15 13
19 20 20 19 17 14 10 9 7 6 6 4 6 6 4 2 4 7 6 6 5 6 5 4 4 3 2 3 7 4 4 7 6 7 8 8 10 14 17 16 15 13 11
16 18 19 18 16 14 12 12 9 7 9 7 6 5 3 2 3 4 6 8 7 7 5 5 4 3 6 6 5 10 5 9 4 5 6 8 10 15 16 16 14 11 8
19 18 17 16 16 15 13 12 9 8 8 7 6 5 3 2 2 3 6 6 6 6 5 8 6 5 3 6 7 13 8 3 8 3 4 7 11 15 16 15 12 9 6
21 19 16 15 16 15 13 12 10 8 10 9 7 6 3 2 2 3 3 5 4 6 6 7 9 8 8 2 6 7 9 8 10 3 1 7 12 14 15 14 10 7 4
23 20 19 16 14 13 11 10 11 11 12 13 10 7 4 3 2 3 3 3 4 6 7 8 11 11 11 6 5 4 4 7 6 10 4 4 10 14 14 12 9 5 2
24 23 21 17 14 12 11 9 10 11 12 13 10 8 4 3 3 4 3 3 2 4 7 9 9 11 13 11 9 8 4 7 4 5 5 6 8 11 12 10 8 5 1

GFSSE_700_spd_081.txt.gz
Wind_Speed
23 21 21 18 18 17 15 14 13 11 10 9 7 6 6 6 5 4 4 4 3 5 7 8 11 10 12 13 15 16 15 15 16 16 17 17 18 19 18 19 17 16 16
21 20 19 18 16 13 12 11 9 8 7 6 5 4 4 3 2 1 1 1 2 3 5 7 9 11 13 13 15 15 15 14 16 16 16 17 17 17 18 18 16 15 15
22 19 17 16 14 11 12 13 11 9 8 7 6 4 4 4 3 3 3 4 4 6 7 9 10 13 14 14 16 14 13 12 15 14 16 17 17 16 16 16 15 14 14
20 17 15 14 12 13 13 12 10 9 8 9 8 8 7 6 6 6 6 7 8 8 10 12 12 14 14 13 9 10 12 12 13 14 12 15 15 16 16 14 14 14 14
17 14 13 12 13 12 11 9 7 7 6 7 7 7 7 7 8 9 8 8 9 11 14 13 12 11 10 12 10 11 11 12 14 14 15 16 15 15 14 14 14 13 14
15 13 12 12 12 10 8 7 5 4 4 4 4 5 5 7 7 7 9 9 11 13 15 12 12 10 9 8 10 10 10 10 16 15 15 16 15 14 14 15 13 14 13
14 13 11 11 10 8 7 6 5 4 3 4 4 4 4 4 5 7 9 9 12 14 15 13 13 11 7 9 10 10 9 13 15 13 14 15 14 14 13 14 13 13 12
10 10 12 11 9 7 6 5 4 4 3 3 3 3 4 5 6 8 10 11 14 15 14 12 11 10 10 10 11 10 10 15 15 13 13 13 14 13 14 13 13 13 13
8 11 12 10 8 6 5 5 5 5 5 6 7 7 8 7 7 9 11 13 16 15 14 13 12 11 11 11 12 11 12 12 10 12 12 12 14 13 13 13 13 13 14
12 10 6 9 9 7 6 5 8 11 13 14 13 10 10 10 11 13 15 17 17 15 15 14 13 13 13 12 12 11 13 15 14 13 13 12 12 12 11 11 12 12 12
17 12 6 4 10 6 6 8 10 14 15 14 12 11 22 12 16 15 19 18 16 15 13 12 13 14 13 13 12 10 13 15 8 9 12 11 12 12 11 11 12 11 11
14 12 14 10 9 7 10 11 12 15 11 13 14 14 12 16 17 18 19 16 14 12 12 10 8 8 16 15 9 8 13 13 7 11 11 11 10 11 10 11 11 11 12
14 9 10 11 9 10 12 10 10 13 12 13 15 17 20 13 19 18 15 16 14 11 9 8 10 7 13 11 5 7 11 13 4 10 10 10 9 10 10 11 11 11 12
16 14 9 12 15 12 13 11 11 10 10 12 14 18 18 15 16 16 12 14 8 11 8 5 5 7 10 12 9 9 10 8 5 10 9 9 9 9 9 10 11 13 14
15 14 11 11 11 13 21 11 12 13 8 11 13 19 14 16 16 13 14 8 10 6 9 6 9 6 5 8 8 7 8 8 8 6 7 7 7 8 10 12 14 16 17
16 14 13 11 11 13 13 14 17 11 8 9 11 12 13 13 10 11 10 7 9 6 7 9 9 7 10 4 6 7 7 6 6 8 7 7 7 10 12 15 17 17 17
16 15 13 12 10 12 12 14 13 16 8 7 11 9 11 11 11 12 7 10 9 8 5 8 9 9 8 8 4 9 6 5 6 6 7 8 9 11 13 17 17 16 16
17 17 15 13 11 11 12 9 14 12 9 6 3 5 7 7 8 9 7 7 6 10 6 6 4 9 6 5 7 4 5 5 6 6 8 8 9 14 15 15 15 15 15
17 18 16 16 14 12 12 10 10 14 6 6 3 1 3 3 5 8 7 8 3 7 6 3 3 6 8 9 11 8 9 6 14 4 7 8 10 14 17 15 14 14 13
16 19 19 16 14 13 11 9 11 11 12 5 7 6 2 1 3 6 4 7 5 7 7 3 8 6 7 4 10 4 3 2 4 3 5 9 11 15 15 12 12 13 12
18 19 21 19 16 13 12 9 9 6 7 8 3 4 3 2 3 4 3 4 3 4 7 8 7 9 8 11 11 6 8 10 8 5 5 8 7 13 12 12 11 10 11
18 20 21 20 18 15 12 13 11 13 4 6 4 4 3 3 3 5 4 4 2 6 3 8 8 11 3 6 15 9 4 10 3 3 3 6 12 12 12 10 9 8 10
16 22 21 20 20 17 15 13 10 15 13 11 6 3 3 2 2 3 5 5 7 5 3 6 10 12 10 4 19 16 10 10 5 5 3 5 9 11 12 9 7 7 8
17 19 21 21 20 18 16 14 11 10 7 5 5 5 4 1 3 3 1 3 4 8 8 7 8 10 7 7 6 3 13 14 15 6 8 5 9 7 9 8 5 4 6
19 21 21 21 20 19 16 16 14 11 10 7 13 4 4 3 3 2 0 1 1 2 4 8 8 11 10 13 2 6 4 11 14 11 4 2 5 6 8 6 4 1 4
20 21 21 20 20 19 17 15 14 14 16 15 10 8 4 1 1 2 0 0 0 1 5 4 5 9 13 12 13 12 6 8 11 5 1 8 4 4 3 6 5 2 3

GFSSE_700_spd_084.txt.gz
Wind_Speed
25 22 19 19 18 18 17 14 11 10 8 6 6 6 6 6 6 7 7 7 8 9 11 12 14 14 16 17 17 17 17 18 18 19 19 20 20 19 19 19 17 16 17
23 20 19 18 16 15 13 12 10 9 8 6 5 4 3 3 4 4 5 5 7 7 8 12 14 15 15 17 17 17 16 17 18 18 18 18 19 18 18 18 16 16 16
22 19 17 16 14 13 13 12 11 9 8 7 6 4 4 5 6 7 8 8 8 8 9 13 15 17 15 16 16 15 15 16 15 15 18 17 17 17 17 16 15 16 17
20 17 15 14 15 14 14 13 11 11 10 10 9 9 9 8 9 9 9 10 10 10 12 14 14 14 16 15 15 14 15 14 13 17 16 15 16 16 14 14 15 15 16
19 16 14 15 15 13 11 10 9 9 9 10 10 10 10 11 11 11 10 10 12 12 14 12 10 15 15 13 12 13 13 14 16 16 14 15 14 15 14 14 14 14 16
17 15 14 14 12 11 10 8 7 8 8 8 8 9 9 9 9 10 10 11 12 14 12 10 7 9 11 11 13 13 13 12 15 14 13 14 14 14 13 14 15 15 14
17 14 12 12 10 9 8 7 7 7 7 7 7 7 6 6 7 9 10 13 14 14 17 16 13 6 8 12 13 13 9 14 13 13 13 14 14 14 14 14 14 14 15
8 12 13 10 9 8 8 7 6 6 6 6 6 6 6 7 9 10 11 14 16 15 14 11 11 9 11 13 13 12 9 16 13 13 12 13 14 14 14 14 15 16 16
2 13 11 10 9 8 7 7 7 7 7 7 7 9 8 8 10 12 13 14 15 15 14 12 11 12 14 13 14 14 12 14 13 12 13 12 13 14 14 14 15 15 16
7 14 11 10 10 9 8 10 11 14 16 14 12 11 10 10 11 14 15 16 14 14 14 15 16 17 17 14 14 13 12 17 15 14 13 12 13 13 13 14 13 14 14
9 4 11 8 9 9 10 11 13 16 16 15 16 13 14 14 15 16 18 16 15 15 14 17 17 18 19 19 14 12 15 15 15 13 12 12 13 13 12 12 13 13 13
8 7 12 8 8 12 11 10 17 11 15 17 18 15 14 20 18 18 17 15 14 13 13 12 11 15 15 17 14 15 14 10 14 10 11 12 12 12 12 12 12 13 14
10 7 6 3 9 13 9 9 15 11 13 17 20 20 19 19 18 15 13 14 12 11 12 15 11 11 19 14 12 17 20 13 11 9 10 11 11 11 11 11 13 14 16
18 8 10 8 14 14 9 12 9 8 12 17 16 21 16 18 14 12 10 8 8 8 8 9 15 16 10 12 8 15 15 3 10 9 10 10 11 10 11 12 16 18 20
11 6 10 8 11 18 10 11 14 11 13 13 12 16 18 14 13 10 9 10 8 9 8 6 17 11 13 12 8 10 9 6 11 8 9 10 10 11 12 15 17 19 21
11 8 9 14 14 10 16 16 17 9 5 11 12 12 12 15 14 12 10 11 12 8 10 10 11 12 9 11 9 9 11 9 8 10 9 10 11 12 14 16 17 20 21
16 16 12 15 15 13 16 18 14 18 9 13 9 9 9 6 12 10 10 6 11 10 6 13 10 12 12 13 9 9 9 12 7 9 11 11 12 13 15 16 17 19 20
18 18 13 13 15 17 15 16 14 10 11 9 9 8 7 5 6 9 8 9 7 5 6 10 8 9 14 12 11 12 12 12 7 12 12 12 11 15 16 16 17 18 20
23 15 16 13 11 16 15 11 12 12 9 7 6 8 7 6 3 4 5 4 4 4 11 8 7 13 13 10 12 16 15 12 9 15 9 10 11 13 14 15 16 17 19
20 16 20 15 13 12 12 12 11 9 11 7 5 6 6 5 3 4 4 6 6 1 8 7 11 10 11 16 12 17 8 2 8 7 12 13 8 11 14 13 13 16 18
18 18 19 17 16 13 13 14 12 8 8 5 7 6 4 1 6 5 4 5 3 8 4 6 7 10 8 10 13 8 16 15 17 9 10 3 5 11 11 11 11 15 17
18 17 18 16 17 15 13 14 15 6 9 5 6 5 1 4 3 5 5 4 2 1 8 5 13 11 9 11 10 10 8 14 10 5 2 8 8 9 11 11 10 11 13
19 18 18 18 18 17 15 10 17 18 8 13 3 6 3 3 2 6 6 3 3 6 7 10 7 11 11 11 13 14 13 11 5 12 5 8 6 8 9 9 7 8 11
18 17 20 21 21 19 15 14 12 19 12 5 9 8 6 4 3 5 5 3 2 2 11 10 12 10 12 16 13 10 11 12 9 6 10 2 6 6 6 6 6 4 9
17 16 22 23 24 21 18 15 14 16 14 16 9 8 4 3 4 2 5 5 3 3 1 6 13 13 14 12 17 17 12 17 14 12 7 6 4 4 3 2 1 3 7
24 16 21 23 24 22 20 18 15 17 16 7 13 10 6 5 6 4 4 3 3 6 3 4 9 14 14 10 13 18 21 19 16 11 10 5 5 4 3 4 3 2 5

GFSSE_700_spd_087.txt.gz
Wind_Speed
26 23 19 17 16 16 14 13 11 10 9 9 10 9 9 9 9 9 9 10 11 14 15 16 17 17 19 19 19 19 20 20 20 20 20 20 20 20 20 20 18 18 18
23 21 20 18 17 15 13 11 10 8 7 7 7 7 6 7 6 6 7 8 9 12 15 16 16 16 18 18 19 18 19 18 19 20 19 18 18 18 18 19 18 18 18
21 20 18 16 14 13 13 11 10 8 6 7 7 7 8 8 9 10 10 11 11 13 16 17 17 16 18 18 18 18 16 15 17 20 17 17 17 17 18 17 18 18 18
20 18 16 14 14 14 14 13 12 12 11 11 11 11 10 10 11 12 12 13 14 15 15 16 17 18 18 18 17 17 15 16 16 18 16 16 15 16 16 17 17 17 18
18 15 14 15 15 13 11 11 11 11 11 12 12 12 12 12 13 13 13 14 16 15 14 14 14 18 17 16 17 18 15 16 18 17 15 15 15 15 16 17 16 15 16
19 17 16 15 13 11 10 9 9 9 10 11 11 11 11 11 12 14 14 14 15 11 11 11 13 16 13 15 15 16 15 14 18 16 14 15 14 15 16 16 16 15 14
20 17 15 14 12 11 9 9 9 9 9 9 9 9 9 9 11 15 15 14 13 15 15 11 11 11 13 15 17 13 14 15 16 15 15 14 14 16 17 17 17 17 16
15 15 12 12 11 10 8 8 8 9 9 8 8 9 9 10 12 15 16 15 15 18 13 12 11 13 14 16 15 15 16 18 15 15 15 15 16 17 17 17 17 17 17
14 12 11 11 11 9 8 8 9 10 10 8 9 10 12 12 14 16 18 16 14 13 13 13 14 16 15 17 17 17 16 19 17 16 15 15 15 15 15 16 16 17 17
17 11 11 11 11 11 11 13 14 16 16 12 10 10 13 13 15 18 19 17 16 14 14 13 14 17 15 17 17 14 18 19 20 18 16 14 14 14 15 16 16 16 16
18 14 12 12 12 13 13 15 16 15 18 15 15 15 16 18 16 19 18 17 16 17 19 16 16 17 17 16 18 21 20 19 22 17 15 12 14 15 15 15 16 17 19
15 14 11 14 13 16 15 15 15 16 16 16 20 19 22 22 19 17 16 16 14 11 13 16 15 17 19 16 19 17 19 18 19 14 13 13 14 14 15 16 17 20 23
8 5 8 12 15 18 14 15 15 14 13 17 19 21 24 23 20 17 15 13 11 5 11 13 17 19 17 20 20 12 16 16 14 12 12 12 13 14 16 19 21 24 26
11 7 9 13 12 20 14 12 16 15 21 17 20 21 21 17 16 16 16 14 13 7 12 12 12 16 15 12 19 7 11 9 11 11 10 11 13 15 19 22 24 25 25
8 6 8 10 6 16 16 17 17 17 18 15 17 18 12 15 13 14 10 10 11 13 16 13 12 13 11 11 10 7 12 8 9 9 10 12 15 19 22 23 24 25 24
11 7 7 10 12 12 19 21 18 18 13 14 15 12 17 16 15 12 11 14 10 12 13 13 13 15 14 12 13 9 7 13 10 9 12 15 18 21 23 24 24 24 23
12 12 12 12 12 12 18 13 14 17 21 13 12 10 14 12 10 10 8 8 11 11 10 13 16 17 15 13 13 14 14 14 13 12 13 16 19 21 23 23 23 23 23
12 10 13 10 13 15 17 15 16 17 14 14 13 9 10 11 8 8 10 10 10 12 10 11 13 11 15 16 15 14 15 17 13 16 13 14 17 20 22 21 22 22 23
13 11 15 17 14 13 16 15 14 12 13 10 10 10 7 7 9 7 4 8 7 11 12 12 12 11 18 16 15 14 14 16 14 16 17 13 17 18 20 19 19 22 23
20 13 15 20 17 14 13 15 14 14 11 10 13 11 6 3 6 8 5 8 8 5 8 9 12 12 16 13 18 19 18 12 14 14 14 16 17 16 18 18 17 20 22
19 15 16 17 18 16 15 13 14 11 11 11 12 10 7 6 5 5 5 9 6 5 10 11 8 9 12 12 21 21 19 16 17 9 13 14 16 15 17 15 14 18 19
16 18 16 15 15 15 16 15 16 11 10 9 10 9 8 6 7 6 6 5 5 4 9 12 8 12 14 16 15 17 18 14 12 13 7 9 13 14 14 13 12 14 16
15 18 15 15 17 16 16 17 13 8 11 12 6 8 8 6 7 5 6 7 6 5 6 10 9 11 15 13 11 10 9 12 13 16 8 5 8 9 11 9 9 12 12
13 14 16 18 20 19 16 13 15 12 15 11 9 8 8 7 9 7 5 3 7 7 6 11 9 14 14 17 17 16 10 8 9 13 11 6 5 7 7 5 4 9 11
12 11 17 20 22 21 17 15 15 15 15 13 12 8 8 7 8 6 4 5 6 6 6 11 9 11 16 15 16 18 17 13 9 8 11 7 2 5 6 5 3 4 9
15 11 9 20 22 21 20 16 17 17 14 12 12 8 7 8 9 8 4 7 4 5 5 9 14 10 15 13 15 18 19 16 13 8 5 5 5 3 2 1 3 4 7

GFSSE_700_spd_090.txt.gz
Wind_Speed
25 22 19 17 16 16 15 14 14 13 12 12 12 11 10 10 11 10 11 11 13 14 15 17 17 17 18 18 18 18 19 20 19 18 18 17 18 18 18 18 18 19 18
21 20 18 17 16 14 14 13 12 10 8 8 9 8 8 7 8 9 10 11 13 14 15 16 16 17 17 17 17 17 16 18 19 18 17 16 16 18 18 18 18 18 17
20 20 20 17 15 14 12 11 10 8 8 8 7 7 8 9 10 11 12 13 15 17 17 18 17 16 16 16 15 15 15 15 17 17 16 15 15 17 17 17 18 17 17
19 18 16 15 14 13 11 11 10 10 10 11 11 11 11 12 13 14 14 16 16 18 18 18 18 17 17 16 15 15 15 13 15 16 15 14 16 16 16 16 16 16 15
19 16 15 17 16 14 13 12 12 13 14 14 14 14 14 14 13 15 14 16 15 16 16 17 17 19 17 16 15 16 15 14 15 15 14 15 15 16 15 14 14 15 14
17 17 17 15 14 12 12 12 12 13 13 13 13 14 14 13 13 15 17 15 15 14 13 15 17 16 16 15 16 14 15 16 15 15 14 15 15 14 14 14 14 14 16
17 17 15 13 11 10 9 9 11 11 11 11 11 12 14 13 14 16 17 13 17 14 13 13 15 15 15 15 14 14 16 18 17 15 15 15 14 14 15 16 16 17 17
14 14 12 11 9 8 8 9 10 10 10 10 11 13 14 15 16 18 18 19 18 14 13 11 15 16 16 17 17 14 16 17 17 16 16 15 15 15 16 18 18 18 18
14 12 11 11 10 8 7 8 10 11 10 10 11 15 16 17 17 18 16 15 13 12 11 13 16 17 18 19 19 17 17 17 17 16 15 14 14 16 18 18 19 19 18
14 12 10 11 11 12 11 11 13 13 13 13 14 18 19 18 19 17 16 17 15 13 14 15 17 18 18 20 18 19 18 17 17 17 15 14 14 16 18 19 19 19 21
15 12 10 13 13 15 16 16 15 15 14 15 18 19 22 19 18 17 16 15 14 13 13 14 17 18 17 20 20 19 19 18 18 17 15 14 16 17 19 19 21 22 23
13 12 11 13 14 16 16 16 16 14 15 17 20 22 24 23 18 17 17 15 12 12 8 14 14 18 19 17 18 16 18 19 17 16 15 15 16 18 20 22 23 24 25
11 11 11 14 16 16 14 15 15 13 16 20 22 23 24 23 19 16 15 14 12 11 11 13 12 17 15 14 18 14 17 18 15 15 15 15 17 20 22 24 25 25 24
11 8 10 11 14 17 14 17 15 14 16 19 22 21 20 20 19 16 13 13 11 12 10 9 13 14 14 17 15 14 17 15 13 14 15 17 20 22 24 24 25 24 23
8 6 10 9 11 14 11 17 19 16 16 18 22 20 18 16 15 13 13 11 12 11 12 14 11 11 12 11 17 15 14 12 13 14 17 20 22 23 23 25 25 23 23
5 2 6 9 6 14 15 19 20 17 19 16 14 14 16 16 13 10 10 13 12 13 13 14 13 12 13 10 14 16 13 11 12 16 19 21 23 23 24 24 24 23 23
1 5 6 6 6 18 17 19 15 18 19 16 17 14 14 12 10 12 10 13 12 11 12 13 15 14 15 17 13 15 15 15 15 17 20 20 20 23 23 22 23 23 22
2 6 4 7 7 13 12 16 18 15 15 14 14 12 8 12 10 10 10 11 11 12 11 10 14 14 15 16 13 15 18 18 19 17 19 20 20 21 21 21 22 23 22
7 8 8 11 8 12 16 21 19 16 13 10 10 10 8 8 7 9 7 9 8 10 11 12 12 12 14 13 12 14 16 18 19 18 18 18 19 19 20 21 21 22 22
11 12 12 13 12 11 7 7 9 13 12 11 10 9 9 7 5 7 7 8 10 10 10 12 16 10 11 15 17 17 14 16 18 18 17 17 18 18 19 20 21 21 21
13 11 11 14 14 13 10 10 11 8 8 5 10 8 7 9 8 7 7 9 10 13 11 12 11 11 9 18 18 19 16 14 16 18 18 16 15 15 16 17 18 18 19
13 13 11 17 15 15 15 15 11 11 11 12 11 8 6 8 9 6 8 6 7 10 9 10 8 10 12 16 16 13 15 14 14 15 15 15 14 13 14 14 14 14 15
15 12 11 15 15 18 19 18 14 14 12 12 9 7 7 7 12 8 5 4 7 8 14 10 9 13 17 14 15 14 13 14 14 13 13 13 14 12 10 10 12 11 12
13 11 12 16 19 19 18 16 16 13 10 11 10 8 5 7 11 9 7 5 6 8 10 11 10 12 17 10 13 13 10 11 12 12 11 10 10 9 8 7 6 7 9
12 9 12 14 19 19 17 14 14 14 17 11 11 7 7 5 8 8 8 9 9 9 9 9 9 16 16 14 13 11 10 10 11 11 11 9 6 4 5 5 5 4 6
14 9 11 12 19 21 18 15 13 13 18 10 10 8 6 6 7 6 7 8 8 7 9 10 9 12 18 18 14 13 13 8 8 9 10 9 7 6 5 2 2 2 2

GFSSE_700_spd_093.txt.gz
Wind_Speed
24 20 19 17 16 15 14 15 14 13 12 12 11 11 11 10 10 11 12 13 14 15 16 16 15 16 17 17 17 18 18 17 16 15 15 15 16 17 16 16 16 16 16
19 19 17 17 15 13 12 10 10 9 9 9 8 7 6 7 8 9 10 12 13 15 15 14 14 15 16 16 15 15 15 16 15 15 14 14 15 16 15 15 16 15 15
17 16 16 16 14 12 11 10 9 7 7 7 6 6 6 7 8 9 11 12 15 16 15 15 15 15 15 15 13 13 13 14 14 14 14 13 14 15 14 14 14 15 15
16 16 15 14 13 11 10 9 8 9 8 8 9 10 10 11 12 12 14 15 16 17 16 16 15 15 14 14 13 12 13 13 13 13 13 13 14 14 14 13 13 14 14
16 14 12 13 12 11 11 10 11 12 12 12 12 12 13 13 13 14 15 17 16 16 16 16 15 15 15 15 14 13 13 13 14 14 13 13 13 12 12 11 13 14 14
14 13 15 14 12 11 10 11 12 12 13 13 13 13 13 13 15 16 16 15 13 14 16 16 16 15 15 15 16 15 14 14 16 14 14 12 12 12 11 12 13 14 14
15 15 13 12 11 10 9 10 11 11 12 12 12 12 14 14 17 14 12 13 13 12 14 16 16 15 14 15 15 15 16 16 17 15 14 13 13 13 14 15 15 15 15
13 12 10 9 9 8 9 10 10 10 10 10 11 12 14 16 17 14 19 15 11 12 12 13 16 17 15 16 16 15 17 17 17 16 15 14 15 15 15 16 17 16 17
14 10 9 8 7 7 7 9 10 10 10 9 10 13 15 17 17 17 16 12 12 12 13 15 18 18 17 17 16 16 17 17 17 15 14 14 14 15 16 17 17 18 18
14 11 9 7 7 8 8 10 10 10 11 11 13 16 17 18 17 15 13 12 13 14 14 16 18 17 17 18 17 16 17 17 17 15 14 15 15 16 17 17 18 19 18
13 11 9 9 11 13 13 13 12 11 14 16 17 18 19 19 17 16 13 14 15 13 13 15 17 17 19 17 15 16 17 17 16 16 15 16 16 17 19 20 20 19 19
12 12 10 11 13 15 16 17 14 13 15 18 19 19 20 18 17 15 14 12 12 14 13 14 16 17 16 14 15 16 17 17 17 15 14 16 17 19 21 21 20 19 19
12 11 11 13 13 13 16 15 15 14 17 19 19 18 19 19 16 15 14 12 8 11 12 13 16 13 13 12 13 16 17 17 16 15 16 18 21 22 22 21 20 19 18
10 12 12 12 11 11 13 15 16 17 19 19 20 19 17 18 14 12 9 8 9 10 9 10 11 12 13 13 16 14 17 16 17 17 19 21 22 22 21 21 20 20 19
8 10 11 10 9 10 10 16 19 18 20 20 18 16 14 16 13 12 8 9 6 12 10 11 11 10 14 13 14 14 15 17 19 19 21 22 21 21 20 20 20 20 19
7 6 8 9 7 10 12 16 17 19 19 19 15 15 13 11 11 12 10 9 10 10 10 10 10 11 14 13 14 15 16 19 20 20 20 20 20 20 19 19 19 18 17
7 4 3 4 7 11 13 14 17 19 18 16 15 14 12 10 9 11 12 11 11 11 12 11 11 12 14 14 15 16 20 20 19 19 20 19 19 19 18 18 18 17 18
6 1 4 7 8 11 13 12 14 19 18 15 14 11 9 10 9 9 10 8 9 12 12 11 11 10 11 12 13 16 19 20 19 19 19 18 18 17 18 18 18 19 19
3 1 5 8 11 10 14 14 14 14 15 13 11 10 8 9 10 8 8 9 8 10 10 10 10 10 9 10 11 15 17 19 19 18 18 17 18 18 19 20 20 19 18
3 4 7 8 10 14 16 15 11 10 9 8 9 9 7 6 7 5 7 7 8 8 11 7 7 5 6 10 12 14 15 17 18 19 18 17 17 18 19 19 19 18 17
7 5 7 8 13 13 11 13 11 8 6 4 4 6 6 5 5 5 5 5 7 8 8 10 8 6 8 14 14 13 15 16 16 17 16 17 16 16 17 17 16 15 15
6 5 8 9 11 13 11 11 13 10 9 6 7 4 7 7 7 6 5 4 5 8 10 10 8 6 9 12 13 13 13 14 16 16 16 15 15 14 13 13 13 12 12
6 5 8 9 10 12 11 12 12 10 9 9 6 4 3 8 9 8 7 5 5 8 9 9 6 9 9 9 11 12 13 14 15 15 14 13 12 12 10 10 9 9 10
3 6 7 10 14 14 14 12 10 8 8 10 8 6 4 5 9 7 6 7 6 5 9 7 7 11 13 9 8 9 8 10 14 14 12 12 11 9 8 7 6 6 7
2 4 7 9 14 16 16 12 11 10 12 13 10 6 4 5 8 7 6 5 7 6 7 9 8 9 15 10 9 8 7 8 10 12 13 13 11 9 5 3 3 3 2
9 7 8 8 13 16 16 13 10 9 13 12 13 8 4 4 6 6 6 8 8 8 9 9 9 11 14 12 12 9 8 8 8 9 11 11 10 8 7 5 4 1 3

GFSSE_700_spd_099.txt.gz
Wind_Speed
22 21 21 21 21 20 18 17 15 14 14 13 12 12 12 12 13 14 15 15 15 15 15 16 16 16 16 16 17 17 17 17 16 14 14 15 14 14 14 14 14 14 14
18 18 17 17 17 16 14 12 11 10 10 9 9 9 10 11 11 12 13 13 15 15 15 16 16 16 16 15 16 16 16 16 15 13 13 13 14 14 15 15 14 14 14
16 16 14 14 13 12 11 9 8 7 7 6 6 7 8 9 11 13 13 13 15 15 15 15 15 14 15 15 15 14 15 15 14 13 13 12 14 14 14 14 14 14 14
14 13 13 12 10 8 7 5 6 6 6 7 7 9 10 11 12 13 14 15 15 15 15 14 14 13 13 14 14 14 14 14 14 13 13 13 13 14 13 14 14 14 13
13 12 11 10 9 7 6 7 7 7 9 10 11 13 13 14 13 15 14 14 14 14 14 15 14 15 12 14 14 14 14 14 14 14 13 13 12 13 13 13 13 13 13
15 12 11 10 10 10 8 10 11 11 11 12 13 13 12 14 14 14 13 14 13 13 14 14 14 15 14 14 14 14 13 13 13 14 13 13 12 13 13 13 13 13 12
12 12 11 11 10 11 11 11 11 12 13 12 12 13 14 15 13 12 12 12 12 12 13 12 14 15 15 15 15 15 14 14 14 15 15 14 14 15 15 14 13 13 13
13 11 10 10 9 10 10 11 11 11 12 12 12 14 15 14 13 11 12 11 12 12 13 15 15 15 15 15 15 14 14 14 14 15 15 16 15 16 15 14 14 13 12
13 10 8 8 9 9 10 10 11 11 11 11 14 14 15 16 15 12 12 11 12 13 15 16 15 16 15 15 14 14 13 13 14 15 16 17 17 17 15 14 13 12 12
11 8 8 8 8 9 9 11 11 11 12 13 15 15 15 15 12 12 12 13 14 13 14 15 15 15 16 15 13 13 13 14 15 16 17 17 18 17 15 15 13 12 11
9 8 7 8 10 11 10 10 11 12 13 13 15 15 15 15 13 14 14 13 14 13 12 13 15 16 15 14 13 13 14 15 16 17 18 18 17 16 15 14 13 12 12
10 10 10 11 12 12 11 11 12 13 14 14 15 16 16 15 15 14 14 14 14 12 13 14 14 14 14 13 12 13 14 15 16 18 19 18 17 15 14 13 13 14 14
11 12 12 13 14 14 12 12 14 15 16 16 16 15 15 15 15 14 13 12 12 13 12 11 12 13 14 13 12 13 14 17 18 19 19 17 16 15 14 13 14 14 14
13 14 12 13 14 12 13 15 16 17 17 17 16 15 14 12 11 11 13 12 13 14 11 10 12 13 12 12 13 15 17 20 20 19 18 16 14 14 14 14 14 14 15
15 14 13 13 13 14 14 18 19 19 18 17 16 14 11 10 10 10 11 12 12 12 12 12 10 11 11 10 12 15 18 20 20 18 16 14 14 13 14 14 13 15 16
15 14 12 11 12 15 16 19 21 21 19 17 14 12 9 8 8 9 10 9 11 10 11 10 9 11 10 11 13 15 18 18 17 15 14 13 13 13 13 13 15 16 17
15 14 12 11 14 15 17 19 21 19 17 15 13 11 8 6 5 9 10 8 9 9 10 10 9 11 12 13 14 16 18 17 16 14 13 11 12 12 12 14 15 16 18
12 11 11 13 15 14 16 18 19 17 13 13 12 9 8 7 7 8 9 8 8 10 9 10 10 11 11 13 15 17 17 16 14 13 11 11 11 12 13 13 14 16 17
13 11 11 15 16 15 16 16 16 12 11 13 11 10 9 8 8 8 7 7 7 8 9 8 8 9 10 11 13 15 16 14 13 11 10 11 12 12 12 12 12 14 15
11 11 11 14 15 15 16 13 13 12 10 10 9 9 9 10 9 9 6 7 6 6 6 6 5 7 9 11 13 14 14 13 12 10 9 10 12 11 10 10 10 11 12
8 11 10 11 10 13 14 14 12 10 10 10 9 8 7 7 5 6 6 7 5 5 3 4 6 4 7 10 13 13 13 12 11 10 9 9 9 8 7 7 8 9 11
8 9 9 12 14 17 16 12 12 11 10 9 9 8 7 6 6 6 7 5 7 5 5 4 3 5 4 9 11 13 13 12 11 10 9 9 7 5 4 4 5 7 9
9 8 10 11 14 12 11 9 9 8 7 8 8 7 6 7 7 7 7 5 7 6 6 6 4 2 2 6 11 12 13 13 12 11 9 8 6 4 2 0 2 4 7
10 7 12 13 15 14 10 8 8 6 5 8 7 5 3 6 7 6 6 5 5 5 8 8 4 5 5 6 10 11 12 13 12 10 10 8 8 6 4 4 5 6 8
12 8 8 15 16 15 13 10 9 7 6 7 5 3 3 4 6 3 3 3 2 3 6 8 6 6 8 7 7 10 10 11 11 10 9 10 10 9 8 7 7 7 9
13 11 10 12 16 16 13 12 9 7 5 5 4 4 4 5 7 6 5 4 3 3 4 6 7 7 11 10 7 7 9 9 10 10 9 10 10 12 11 10 9 9 10

GFSSE_700_spd_102.txt.gz
Wind_Speed
23 23 22 21 21 19 17 17 14 14 14 13 12 11 12 13 13 14 14 15 15 16 16 17 17 17 18 17 17 17 17 17 16 15 15 16 15 15 15 14 15 15 15
21 21 20 19 19 17 15 14 12 10 10 9 9 8 10 12 12 12 13 15 15 15 16 16 17 17 17 16 16 16 15 15 16 15 15 16 16 16 15 15 15 15 14
19 18 17 15 15 13 11 9 8 7 7 7 7 9 10 12 13 14 13 14 15 15 15 14 15 15 15 15 15 15 14 15 15 15 14 15 15 16 16 15 14 14 13
16 14 12 12 11 9 7 6 6 6 6 8 9 11 12 12 14 15 14 15 15 14 12 12 13 14 14 14 14 14 14 15 15 15 15 15 15 15 15 14 14 13 13
14 12 12 10 9 7 6 6 7 8 10 11 13 12 13 13 14 14 14 14 14 13 13 12 13 13 14 13 12 13 14 14 14 15 14 14 14 15 14 13 13 13 13
13 10 10 9 9 9 9 10 11 11 11 12 12 12 15 15 14 13 13 12 12 12 13 12 13 14 13 12 12 12 13 13 13 14 14 13 13 14 13 13 13 13 13
11 11 10 11 10 11 10 12 12 13 12 11 13 15 15 14 13 11 11 12 12 12 11 14 14 14 13 12 12 12 12 13 13 14 14 14 13 14 13 12 14 13 13
12 10 10 9 10 10 11 12 12 12 12 13 13 14 14 14 13 11 10 11 12 13 14 14 14 14 14 13 12 12 12 13 13 14 16 16 15 15 13 13 14 12 12
13 10 9 8 9 10 10 10 12 11 12 14 13 13 13 13 11 9 12 12 13 13 14 14 13 15 13 13 12 11 12 12 14 15 17 16 15 14 13 13 12 13 12
11 9 9 8 10 9 10 10 10 11 11 13 14 14 15 11 11 11 11 13 13 13 13 15 14 14 14 13 12 12 13 13 15 16 16 15 15 14 13 13 13 12 13
9 9 8 9 11 11 10 10 10 12 13 13 14 12 12 11 13 12 11 11 12 13 14 14 14 14 13 13 12 12 13 15 16 16 16 15 15 13 13 13 14 14 14
9 8 8 10 13 13 12 11 11 13 14 14 14 14 13 14 13 14 13 13 12 14 14 12 13 13 12 13 12 12 15 15 16 17 16 15 14 13 14 14 15 15 14
10 10 10 12 13 14 13 12 14 16 15 16 15 15 15 15 14 14 14 13 12 11 11 11 10 11 11 12 12 13 15 16 17 17 15 14 13 14 14 15 15 15 15
13 12 12 14 14 14 16 16 16 17 17 16 14 14 13 12 13 14 14 13 14 9 7 8 10 10 10 11 11 13 15 17 16 16 14 13 13 15 14 15 15 16 17
14 13 13 13 13 14 16 19 19 18 18 16 15 12 11 12 11 12 12 13 10 9 9 9 9 9 10 11 13 14 16 15 15 14 13 13 14 14 14 15 17 18 19
17 14 12 14 13 15 18 20 20 18 18 16 13 11 10 11 11 11 12 12 12 11 9 9 9 10 10 12 14 16 17 15 13 12 12 13 13 14 14 16 18 18 19
16 14 13 13 14 16 20 21 20 19 16 14 12 9 8 9 11 11 11 11 11 9 10 11 11 10 10 12 14 15 15 13 12 11 11 12 12 13 15 16 16 17 18
15 13 14 15 15 16 19 19 18 16 15 12 11 8 7 8 9 9 9 11 11 11 11 11 10 9 9 12 13 14 13 11 10 9 10 10 11 13 13 13 14 16 17
14 14 15 17 15 16 18 17 16 13 11 11 9 7 6 8 9 10 8 9 10 10 10 9 9 9 7 9 8 12 11 9 8 8 8 8 9 10 10 11 13 15 16
15 14 18 18 15 16 17 16 11 12 12 9 7 7 6 6 6 7 8 8 9 10 10 8 7 8 10 12 9 11 11 9 7 6 6 7 7 7 8 9 11 13 14
13 13 17 17 16 15 15 15 12 11 11 9 9 6 5 6 5 6 5 7 6 7 8 8 7 8 8 12 11 8 9 8 5 4 5 6 5 5 5 6 9 10 13
13 13 15 16 16 16 16 14 13 10 9 7 7 7 7 5 4 5 6 5 7 6 6 6 6 7 8 11 12 11 5 5 6 5 4 4 3 2 3 5 7 10 12
13 14 14 16 18 20 17 13 10 9 7 7 6 6 6 7 5 4 5 4 8 5 7 6 5 5 5 9 12 11 5 5 6 6 5 4 3 2 3 6 8 10 11
13 15 14 17 19 18 15 14 11 11 9 8 6 5 5 8 8 6 5 3 5 6 6 7 4 4 5 7 10 11 11 10 7 2 6 8 6 5 6 6 9 11 11
14 11 15 16 18 16 13 13 12 11 8 9 8 5 5 7 9 7 6 5 4 5 7 8 6 6 8 8 8 11 10 9 10 8 3 4 8 9 10 9 11 11 12
17 14 12 15 19 17 16 14 13 10 8 9 8 7 4 4 8 8 7 6 5 4 6 7 7 6 9 10 10 10 10 8 5 4 2 4 6 9 11 12 12 12 14

GFSSE_700_spd_105.txt.gz
Wind_Speed
19 20 21 20 18 17 15 15 15 15 13 13 13 14 14 15 14 15 16 17 18 18 18 18 18 18 17 17 17 17 16 17 17 18 17 16 17 16 16 16 16 15 14
20 20 19 18 17 15 14 13 13 11 10 9 12 12 13 13 13 14 15 16 16 17 17 17 17 16 16 16 15 16 16 17 16 18 17 16 17 17 17 17 15 15 14
18 17 16 15 15 13 12 10 10 8 7 7 10 11 12 12 13 14 14 15 15 15 15 15 15 15 15 15 14 15 15 16 15 20 15 16 17 17 16 16 15 15 16
15 14 14 12 11 10 9 8 8 6 6 7 8 10 12 13 14 14 15 15 14 14 13 13 14 14 14 14 14 15 15 15 14 16 13 16 15 16 16 16 16 16 16
15 12 11 10 9 8 7 8 7 8 9 10 12 14 14 14 13 14 14 13 12 11 13 13 12 13 13 13 13 13 14 14 13 11 15 15 15 15 16 16 16 17 16
12 11 9 8 9 9 10 10 10 11 11 11 13 14 14 14 13 13 13 12 12 12 12 12 12 12 13 12 12 13 12 10 14 13 15 15 14 15 16 16 16 15 16
10 9 9 10 10 12 12 11 11 12 12 13 15 14 14 12 12 12 12 11 11 12 13 13 13 13 13 11 12 12 11 10 12 14 14 14 15 16 16 16 16 15 14
8 12 12 11 11 12 12 12 11 11 13 14 15 14 12 11 10 11 11 11 12 12 12 13 13 13 13 12 12 12 11 9 13 15 14 15 16 16 16 16 14 13 13
12 4 9 10 10 11 10 11 11 12 11 13 14 13 12 10 9 11 11 12 13 13 13 13 13 13 13 12 12 11 11 12 18 8 15 16 16 16 16 14 14 13 15
10 13 9 9 10 10 10 10 12 13 11 12 13 14 11 10 10 11 12 13 14 13 13 12 13 13 14 13 11 11 12 15 16 16 16 16 15 15 14 15 15 16 15
12 11 5 10 9 10 10 11 12 13 11 12 13 11 10 10 12 12 14 12 13 14 13 13 13 13 14 14 11 11 11 18 14 16 16 15 15 15 15 15 16 16 16
5 9 12 8 10 9 10 11 13 12 12 12 11 10 13 10 14 13 13 13 14 13 12 11 12 9 15 14 11 9 16 15 16 17 16 15 16 16 16 16 17 18 18
7 8 5 11 6 11 9 11 10 16 13 12 12 15 15 14 13 15 13 12 12 12 9 9 14 12 15 12 9 10 15 16 16 16 15 16 17 16 16 17 18 19 19
11 12 10 13 17 16 14 11 13 11 11 14 13 15 15 14 10 14 10 11 11 8 9 12 7 12 11 16 12 10 15 16 17 16 15 17 16 16 16 18 19 20 22
11 12 12 12 13 15 16 16 16 15 13 14 14 12 11 12 13 5 13 9 13 8 8 8 8 8 11 12 11 14 16 16 17 16 15 16 15 16 17 18 19 20 22
12 13 12 11 11 14 16 18 21 10 13 14 10 12 16 8 8 11 13 9 9 9 7 4 15 11 9 10 12 15 16 14 14 16 16 15 15 17 17 18 19 21 22
13 12 14 13 11 15 17 18 13 16 12 13 8 9 10 9 12 11 11 9 2 8 12 13 19 15 11 9 11 13 12 13 13 13 14 13 15 15 16 16 18 20 21
14 12 14 12 13 16 18 18 14 15 14 11 8 8 8 10 12 13 9 8 8 12 10 14 9 9 9 4 10 6 10 11 11 10 10 11 12 15 14 15 17 19 21
14 12 16 14 15 15 17 18 15 12 8 8 7 4 7 9 10 15 9 8 10 12 12 7 7 12 9 7 11 6 8 8 9 9 8 11 10 12 13 12 15 17 19
15 14 16 17 16 17 18 17 10 9 7 7 5 6 5 7 7 9 9 10 11 12 5 11 10 15 12 20 9 6 6 7 7 6 7 9 8 9 10 11 14 15 17
14 14 17 17 17 18 17 14 10 10 9 6 9 5 6 6 5 5 5 7 12 7 5 7 8 7 3 11 12 2 5 6 6 5 5 5 4 6 6 9 12 13 17
14 13 17 18 16 17 15 16 13 6 9 7 5 5 4 4 5 6 5 5 7 7 6 7 8 10 1 15 11 8 2 5 3 1 2 2 3 1 5 7 9 12 14
15 14 17 16 16 16 14 16 15 12 12 10 6 3 4 5 4 6 6 6 9 7 3 7 9 15 5 8 13 11 10 6 2 2 1 3 2 3 4 9 12 12 14
17 16 16 16 18 17 18 14 12 10 7 5 2 0 5 6 6 5 7 5 7 9 8 6 3 11 11 4 6 14 15 11 8 2 2 6 4 4 7 5 7 16 16
19 17 16 16 17 18 16 14 11 11 10 4 3 8 5 5 7 6 6 5 5 5 8 7 7 6 14 13 6 3 8 4 12 11 4 3 6 2 5 6 6 4 16
20 18 18 19 19 16 15 14 15 15 13 10 11 8 3 4 9 7 6 5 5 5 7 8 7 6 7 13 11 12 10 12 11 6 4 6 6 9 5 9 13 4 9

GFSSE_700_spd_108.txt.gz
Wind_Speed
23 22 22 21 19 18 18 15 16 16 15 15 15 15 16 17 17 18 18 18 19 19 19 19 18 17 18 18 18 18 19 19 18 19 18 16 17 18 18 19 18 16 16
22 20 18 17 17 16 15 15 13 14 12 12 13 13 14 16 16 17 17 18 18 18 17 17 16 17 16 17 17 18 19 19 19 18 18 17 18 19 19 18 17 17 17
18 17 16 15 14 12 12 12 10 10 10 10 12 14 15 16 16 16 17 17 17 16 15 16 16 16 16 16 16 17 18 16 15 19 18 17 18 18 18 18 18 19 18
16 15 14 12 11 9 9 8 8 8 9 10 12 13 15 17 16 16 16 16 15 15 15 14 15 15 17 17 16 17 18 15 15 17 18 18 18 19 19 19 19 19 18
11 13 10 9 8 7 8 8 9 11 10 11 13 12 14 14 14 14 14 14 14 13 14 13 14 15 16 16 16 15 14 13 18 17 16 17 19 20 20 19 19 18 18
13 12 9 7 7 9 11 12 12 12 13 13 13 14 13 14 13 13 13 13 13 13 13 13 13 15 16 16 14 13 12 11 18 16 17 18 19 20 20 19 18 18 16
11 11 10 10 11 12 13 13 13 12 13 15 14 14 13 13 13 14 13 12 13 14 14 13 15 16 16 15 13 13 10 17 17 18 18 19 20 19 19 18 17 16 14
12 12 12 13 13 13 12 13 13 13 13 15 14 12 12 12 12 13 14 14 13 14 15 15 16 16 16 14 13 13 10 15 20 20 19 19 18 19 18 16 15 15 15
10 11 11 12 12 11 12 12 13 14 14 15 13 12 11 11 12 13 14 14 14 15 15 16 16 16 15 14 14 13 15 17 22 19 19 18 17 18 17 16 16 17 17
1 4 12 11 12 11 10 11 13 15 14 13 13 12 12 10 12 14 14 14 14 15 16 16 16 16 15 15 14 13 17 20 23 20 19 17 18 18 17 16 18 18 18
6 9 7 11 11 12 10 10 12 14 14 14 12 12 12 13 13 13 15 13 15 16 16 15 16 16 17 16 14 12 16 24 21 19 18 17 18 18 18 18 20 21 21
8 11 8 10 10 11 10 10 11 12 12 10 11 15 15 17 14 15 17 16 16 16 16 14 12 14 15 15 17 16 21 21 22 20 18 18 18 18 19 20 22 23 23
6 11 15 6 12 12 11 11 12 12 12 9 6 14 17 14 15 12 16 15 16 12 11 14 12 2 20 20 18 19 19 21 21 20 19 19 18 18 20 23 24 25 25
8 7 9 9 13 9 11 8 10 11 11 11 13 13 15 11 12 6 17 20 14 11 16 14 14 14 13 20 12 18 18 20 21 19 18 18 19 20 23 24 24 25 25
6 8 10 11 14 13 13 13 9 10 13 12 8 13 13 8 12 9 14 18 22 19 8 8 18 20 19 17 20 18 17 21 21 18 17 18 19 21 22 23 24 25 25
6 13 10 12 13 17 19 19 13 12 14 8 8 7 13 9 12 18 15 5 16 12 12 12 20 17 19 14 16 19 18 15 18 17 17 18 19 20 21 22 23 24 24
15 11 13 12 12 13 15 19 11 9 10 12 8 7 11 12 11 7 13 8 14 15 23 26 20 18 14 14 14 17 15 16 13 14 17 17 19 19 19 20 21 23 24
13 11 13 10 12 18 20 16 13 9 11 7 10 6 8 9 13 9 17 10 11 18 20 17 17 10 8 13 12 14 14 13 12 14 13 13 15 18 17 17 20 21 23
11 11 14 11 16 17 16 16 10 8 7 10 10 12 9 7 9 11 11 13 13 18 12 9 14 18 13 4 9 7 11 8 11 13 9 12 12 15 15 13 16 18 19
12 13 10 11 17 18 16 18 14 12 10 3 10 6 10 7 8 10 10 11 15 13 9 16 10 16 9 15 11 2 6 8 10 8 8 12 7 10 14 9 13 14 14
13 16 16 15 18 17 16 11 12 11 13 8 6 8 7 7 6 10 11 7 14 11 10 15 19 18 19 14 11 7 5 7 7 4 7 7 4 9 6 9 13 15 16
14 15 15 15 17 20 15 11 13 11 7 3 5 5 6 8 6 6 10 10 6 9 9 9 12 14 16 16 12 5 6 7 7 5 3 5 2 2 5 7 8 13 17
12 12 17 17 16 19 19 14 13 11 10 8 6 6 4 5 6 5 4 6 10 10 7 8 13 12 16 13 12 11 8 7 5 7 6 2 2 4 7 7 8 11 15
12 14 18 18 17 16 18 18 19 9 8 8 7 6 7 4 6 6 5 6 7 4 10 8 12 11 9 13 17 13 8 10 12 2 7 7 7 4 1 4 7 12 18
16 14 17 19 18 18 16 13 15 13 10 8 7 14 2 4 6 7 8 6 7 6 6 10 9 12 15 12 11 10 9 4 6 14 19 8 5 2 11 9 5 4 12
20 20 16 18 21 18 16 15 14 11 12 9 13 8 2 4 8 5 5 6 6 6 6 10 9 10 13 14 14 16 17 18 21 14 17 4 6 14 10 10 10 10 11

GFSSE_700_spd_111.txt.gz
Wind_Speed
29 25 20 18 18 18 18 19 18 18 18 18 18 18 18 18 19 19 19 20 20 20 20 20 20 20 20 20 20 20 19 19 19 18 18 19 20 20 19 19 17 17 16
25 21 18 17 16 16 15 15 15 15 16 16 15 16 16 17 18 18 19 19 19 19 19 19 19 19 19 19 19 19 18 20 20 20 19 19 19 19 19 18 18 18 17
20 19 18 16 15 13 12 11 12 13 13 15 15 15 16 17 17 18 17 18 18 18 18 18 18 18 18 18 18 18 18 16 19 21 19 18 18 19 20 19 19 19 17
18 17 15 13 11 10 9 10 10 11 13 15 16 16 18 18 18 18 17 17 17 17 17 17 18 18 18 18 17 18 18 20 19 20 19 19 19 20 20 20 19 18 19
16 14 12 9 9 9 9 10 12 13 14 14 15 15 16 16 16 16 16 16 16 16 16 17 18 17 17 17 16 17 18 20 20 20 19 19 19 20 21 20 19 19 20
14 13 10 8 8 9 11 12 14 14 15 14 15 15 15 15 15 16 16 16 15 16 17 17 18 18 17 15 16 16 16 21 22 20 20 20 20 20 20 19 19 19 17
12 11 10 11 13 13 13 14 15 15 15 15 15 15 14 14 14 15 15 16 16 17 19 19 18 17 16 14 16 18 17 23 22 21 20 19 18 20 20 19 18 16 15
10 13 13 14 15 15 14 15 16 17 16 16 14 12 13 14 14 15 16 17 17 18 19 19 19 17 16 15 18 18 21 24 23 21 20 18 19 20 19 17 16 17 16
13 13 13 14 15 14 15 16 16 17 16 14 14 12 12 13 15 16 17 18 19 19 20 19 18 17 17 17 18 21 24 25 24 21 20 19 19 19 18 18 18 18 18
12 9 11 13 14 13 15 15 15 15 14 13 11 12 13 14 15 17 18 19 19 20 20 21 20 18 17 19 20 24 25 24 23 23 20 20 19 19 20 20 21 21 21
9 11 13 12 13 13 12 13 14 15 15 12 11 12 13 13 14 15 18 19 19 20 21 18 21 16 18 20 19 21 24 24 24 23 21 20 21 21 21 23 24 24 23
7 8 12 13 12 14 12 14 14 13 13 11 9 11 15 14 14 15 18 17 18 18 14 13 15 17 21 23 24 23 24 23 23 21 21 22 21 23 24 25 25 26 26
7 6 14 14 15 14 13 14 12 10 12 13 13 16 17 15 14 16 18 15 19 19 16 9 18 24 24 24 26 25 24 23 22 21 22 22 24 25 25 25 25 26 26
6 11 13 10 12 13 14 15 15 11 11 13 14 15 14 25 13 11 10 11 26 20 19 15 20 22 25 24 25 25 24 23 21 21 22 23 24 24 24 24 25 25 25
9 16 15 11 13 12 15 15 14 15 11 10 9 10 9 12 15 16 8 13 21 24 25 24 20 16 18 22 20 20 22 22 21 21 22 22 22 22 23 24 24 24 25
7 13 12 10 13 14 17 14 9 13 11 12 6 9 10 14 11 19 14 15 19 23 23 24 24 22 17 16 19 19 18 18 20 22 22 21 21 21 22 22 23 23 24
3 6 6 13 16 9 16 16 12 12 11 12 13 8 10 12 12 14 15 21 27 24 20 16 20 21 17 16 17 18 17 15 15 19 20 20 21 20 19 20 20 21 22
3 7 10 12 14 16 21 17 14 12 11 12 14 8 10 11 15 13 14 17 25 23 18 18 14 20 22 16 15 16 14 15 13 14 16 16 18 19 17 16 18 18 20
5 9 11 14 18 21 19 15 11 13 9 7 10 10 9 10 11 10 13 21 17 19 16 19 13 13 18 15 14 10 11 12 10 14 12 13 13 15 15 13 13 15 16
7 9 12 15 17 16 18 15 15 13 12 11 14 11 9 11 9 7 9 17 14 15 16 18 17 16 9 8 7 8 6 9 9 13 9 10 12 10 14 10 11 13 13
9 10 15 16 19 16 12 11 13 10 11 9 9 8 8 9 10 9 12 10 12 11 17 17 16 13 17 12 7 9 11 11 9 8 8 7 8 6 12 12 13 14 15
11 12 11 16 17 18 16 17 13 10 11 10 9 8 9 8 7 4 11 7 11 10 16 15 18 18 18 15 10 11 8 5 8 10 11 8 7 11 12 9 17 21 19
11 12 12 16 18 18 19 17 13 11 10 7 7 7 8 7 8 6 6 7 9 10 11 15 18 23 15 14 10 6 3 4 4 6 4 5 7 8 10 8 6 4 8
6 6 11 16 18 16 13 15 13 12 12 10 10 8 7 7 7 8 8 7 7 6 8 13 14 19 19 14 13 10 9 11 9 8 9 9 7 12 11 9 12 8 10
10 6 5 15 16 17 14 12 14 10 11 11 6 8 4 5 7 6 7 7 12 6 8 10 13 10 16 17 17 10 11 11 14 12 16 11 10 11 14 11 11 7 4
16 8 8 12 15 17 15 16 15 11 8 8 4 6 9 7 10 7 5 6 6 7 11 12 9 11 13 13 14 11 10 10 9 13 9 16 17 14 11 21 9 9 12

GFSSE_700_spd_114.txt.gz
Wind_Speed
33 30 30 27 26 23 21 17 17 18 17 18 18 18 18 19 19 19 19 20 20 20 20 20 20 20 19 20 20 20 20 20 20 19 18 17 17 17 17 17 16 16 14
25 24 22 20 20 19 18 16 16 16 15 17 18 18 18 18 18 18 19 18 19 19 19 18 18 19 20 20 20 19 19 19 19 20 18 17 16 17 18 18 17 17 16
19 19 18 17 16 15 14 14 14 15 15 16 17 17 17 17 16 17 17 18 18 18 17 17 17 18 19 18 18 18 17 18 19 20 19 17 18 19 19 18 18 18 17
17 16 14 13 11 10 10 11 12 14 15 16 17 17 17 16 16 16 16 17 17 17 16 17 17 17 18 18 16 18 18 17 19 20 20 18 18 19 20 19 18 18 17
16 14 11 10 9 8 8 10 13 14 15 16 17 17 15 15 16 16 16 16 17 17 16 17 17 16 16 17 18 17 18 19 20 21 19 19 18 19 20 19 18 17 16
14 12 9 8 8 10 11 13 15 16 15 16 16 16 15 16 16 15 16 16 17 17 16 16 17 16 16 16 17 18 19 21 21 20 19 19 18 18 19 17 16 15 13
11 10 9 10 12 13 14 15 16 16 17 16 15 15 15 15 16 17 18 17 18 18 17 16 14 16 16 15 19 18 20 22 21 19 18 18 17 17 17 16 15 14 13
10 11 13 14 15 14 15 16 17 17 17 16 15 15 14 15 17 18 19 19 19 18 17 17 16 17 18 19 19 19 21 22 21 20 18 17 17 17 16 15 15 15 15
14 14 15 16 16 16 16 18 18 18 15 15 15 15 15 16 18 19 19 20 20 18 16 15 15 18 20 22 21 22 20 21 21 20 18 17 18 17 17 17 18 18 18
14 13 14 15 16 15 16 17 17 15 15 13 14 16 17 16 18 19 19 20 20 19 18 18 17 18 21 24 24 22 21 20 21 20 20 19 19 19 19 20 20 21 20
13 14 14 14 16 15 14 14 14 15 13 12 12 15 18 17 17 19 19 17 16 15 18 17 17 20 24 23 23 22 22 21 21 22 21 20 20 20 21 22 22 22 21
10 13 14 14 15 15 15 15 16 14 13 13 13 12 14 16 15 16 19 17 15 17 18 16 18 18 21 23 22 23 23 23 22 22 22 21 21 21 23 23 25 24 23
9 15 14 15 14 15 14 15 14 12 9 10 12 12 11 11 14 15 15 15 13 13 15 19 21 20 20 22 21 21 22 23 22 21 22 21 21 21 22 23 24 24 23
6 15 14 13 14 16 14 14 13 10 11 12 14 11 12 10 15 15 12 14 15 24 22 18 21 20 20 20 20 20 22 23 21 21 20 19 19 20 21 22 23 23 23
4 15 17 16 16 16 14 13 15 13 16 13 12 11 10 15 16 15 21 19 22 26 21 19 16 15 18 18 19 20 20 23 21 21 19 18 18 19 20 21 22 22 23
3 14 12 14 15 15 16 15 14 14 14 10 11 12 15 14 16 20 20 16 22 22 27 23 21 19 18 16 17 18 17 21 22 20 19 18 18 19 19 20 21 22 22
12 12 10 10 11 19 20 16 14 10 12 11 12 12 14 15 13 15 17 22 22 22 21 22 21 19 16 16 15 14 15 15 17 19 19 19 18 17 16 18 19 20 21
3 9 9 11 14 20 21 19 17 11 10 10 10 7 11 12 11 16 18 24 22 20 19 19 18 16 16 17 16 14 14 14 12 14 15 14 16 15 15 14 14 16 18
2 4 8 13 15 18 15 15 16 15 14 11 10 13 11 12 11 9 15 11 15 15 16 16 15 17 17 15 16 15 13 13 12 10 12 12 12 12 13 13 12 15 16
3 2 7 14 17 18 17 16 13 13 15 11 10 11 9 13 7 12 17 14 15 12 13 15 12 12 13 13 14 13 11 12 13 13 12 9 9 9 10 7 8 8 7
5 5 7 14 17 16 15 13 12 11 12 13 11 11 9 7 6 9 15 16 14 13 16 16 13 6 10 12 13 15 15 15 12 10 6 7 5 5 1 3 7 7 6
4 6 6 15 17 16 15 15 14 12 10 9 11 11 12 9 7 8 10 11 10 12 17 16 14 10 10 10 11 12 12 13 11 10 7 4 2 3 4 5 7 12 14
3 6 6 14 17 15 16 15 15 13 13 13 10 9 10 9 10 9 8 5 10 11 16 15 15 13 12 12 12 11 13 12 8 6 3 4 7 7 7 8 9 13 16
2 4 6 14 18 16 13 13 14 10 16 12 9 9 9 9 9 10 10 9 8 9 10 13 15 18 15 15 12 11 9 8 9 7 7 6 8 10 9 10 14 15 15
6 1 4 13 15 14 14 14 10 11 10 6 8 7 7 7 8 10 8 9 10 4 9 11 14 18 17 17 15 14 9 7 11 11 12 14 15 14 10 13 17 14 12
8 6 6 9 12 15 15 12 12 11 9 7 9 11 6 6 8 9 9 8 10 10 9 10 14 14 15 19 19 17 13 13 13 12 10 12 19 18 16 12 13 6 17

GFSSE_700_spd_117.txt.gz
Wind_Speed
26 25 27 22 20 19 19 15 15 15 14 14 16 17 17 17 18 19 21 20 19 19 18 17 16 16 17 17 17 17 17 17 17 17 16 15 14 13 13 13 12 12 11
29 28 24 21 19 16 15 15 15 14 14 14 16 17 17 17 17 18 18 18 18 18 16 16 16 17 17 17 17 16 15 16 17 16 15 14 14 14 15 15 14 14 14
24 23 21 18 15 13 12 13 13 13 13 15 16 16 16 16 16 17 16 17 17 16 16 16 17 17 17 17 17 16 15 16 15 15 15 15 15 17 17 17 15 15 14
22 21 19 16 14 12 11 11 12 13 14 15 15 15 15 15 16 15 15 15 15 15 15 16 16 16 15 14 15 16 16 15 16 17 17 16 16 17 17 16 15 14 13
19 16 14 12 11 10 10 11 13 14 15 16 15 15 14 14 14 15 14 14 14 15 15 15 16 15 15 16 15 15 16 17 17 18 17 16 15 16 16 15 14 13 11
14 12 11 10 10 10 12 14 14 15 15 15 15 15 14 14 14 15 14 14 14 15 14 14 15 14 14 14 15 15 17 19 19 18 17 14 13 14 14 13 12 11 10
10 9 9 10 11 12 14 15 16 16 16 15 15 14 14 14 15 14 15 14 13 15 15 15 14 12 13 16 16 17 18 18 18 17 15 13 13 14 14 13 12 12 11
7 8 11 12 12 14 15 16 16 16 15 14 15 14 14 15 16 17 16 16 15 14 15 16 15 15 18 18 18 17 18 18 17 17 15 14 14 14 14 14 14 14 13
11 12 13 13 13 14 15 16 16 15 14 13 14 14 15 15 16 17 17 16 15 14 14 16 15 17 18 19 18 18 17 17 17 17 16 16 16 15 15 15 16 16 17
14 14 14 13 13 13 15 16 15 13 12 12 14 16 15 16 17 17 16 16 14 14 14 15 16 18 18 18 18 17 17 17 17 18 18 18 16 16 16 18 18 18 17
14 15 15 14 14 15 15 15 14 13 12 12 13 15 14 15 16 16 16 15 15 16 15 16 19 21 20 18 17 17 17 17 19 19 18 19 19 18 19 19 19 19 20
12 14 15 14 14 15 14 14 13 12 12 13 12 12 13 15 15 15 15 16 15 14 17 20 21 21 20 18 17 17 17 18 19 20 20 20 19 19 21 21 21 22 21
11 12 14 14 15 16 15 15 11 7 8 12 14 12 13 15 14 14 14 12 12 11 16 18 20 21 20 19 18 18 17 18 21 22 21 19 19 19 20 22 22 22 22
11 14 14 14 15 16 15 12 10 12 12 13 12 13 15 16 12 14 14 12 15 16 17 18 18 17 18 18 17 16 17 20 22 21 20 19 19 19 20 20 21 20 21
9 14 15 14 14 15 14 11 12 15 15 14 12 10 16 15 10 12 13 19 20 19 17 17 16 16 17 17 17 17 19 22 21 20 19 19 17 18 18 19 19 20 21
10 12 15 14 13 15 14 13 13 13 12 10 10 14 17 13 15 20 18 20 19 19 18 17 17 16 17 17 17 18 19 21 20 19 19 17 17 18 18 19 19 20 20
11 10 10 12 11 14 15 15 13 10 9 12 11 11 15 12 18 15 13 18 18 21 19 17 15 14 18 18 17 18 17 15 15 15 16 16 16 16 15 13 14 14 16
4 5 9 15 16 17 15 15 14 9 15 14 15 13 12 10 12 11 14 18 19 18 18 17 16 15 15 17 17 18 17 15 13 11 11 12 11 11 8 9 9 11 13
6 6 7 12 17 17 17 15 13 11 12 10 14 14 10 9 11 16 18 19 15 18 16 16 16 14 13 16 16 13 15 15 13 9 9 8 7 9 6 7 8 9 10
4 4 6 13 16 16 18 15 12 11 11 11 12 13 11 11 12 14 15 12 15 14 15 14 14 15 14 14 14 13 13 15 13 11 10 8 6 5 5 6 10 14 13
2 2 4 12 15 18 18 16 14 12 13 12 12 13 13 10 10 16 14 12 10 8 11 12 12 15 15 14 13 12 12 13 12 9 8 7 5 2 3 5 8 12 15
3 1 2 10 15 16 16 15 14 15 13 12 13 13 13 11 8 12 13 8 6 11 8 14 11 11 9 8 12 12 11 11 11 10 9 8 4 4 6 7 11 12 15
5 1 2 10 16 16 14 16 16 14 13 11 10 10 10 10 10 10 13 10 10 12 12 15 14 9 11 9 11 10 9 9 7 6 6 7 7 6 10 10 16 20 18
5 1 5 12 16 12 12 14 14 10 10 10 8 9 11 11 11 9 11 9 9 9 14 16 16 15 11 14 11 10 9 10 11 11 11 9 9 9 10 9 15 26 18
8 2 4 13 15 14 12 13 14 11 13 10 9 8 8 9 10 11 9 10 10 10 10 15 15 17 17 15 14 13 10 11 14 13 15 14 15 13 15 14 19 19 17
10 9 6 9 13 14 14 13 11 12 13 10 9 9 8 7 8 9 11 11 13 13 9 9 13 15 16 20 19 16 15 14 15 14 14 17 18 14 20 17 8 13 15

GFSSE_700_spd_120.txt.gz
Wind_Speed
21 15 17 18 18 24 20 16 14 13 13 14 15 16 18 18 19 19 19 18 17 17 15 16 15 15 16 16 16 14 14 14 14 14 14 13 12 12 12 12 12 11 11
25 22 18 19 17 15 15 14 14 14 14 16 16 18 19 19 19 19 17 16 16 16 16 16 15 16 16 15 15 15 15 15 15 14 14 14 14 14 14 14 13 13 12
21 19 17 16 13 13 13 13 13 13 14 16 16 17 18 18 18 17 17 15 15 15 15 16 17 16 16 15 14 15 15 15 16 16 16 15 16 15 15 15 14 13 12
19 16 14 13 12 11 12 12 12 13 13 14 15 16 16 17 16 16 16 15 14 14 15 15 15 15 15 15 14 15 15 16 18 19 18 16 15 15 15 15 13 12 11
18 15 13 11 10 10 11 12 13 13 14 14 14 14 14 14 14 15 15 14 14 15 15 15 15 14 14 14 14 15 16 18 18 18 17 15 14 14 14 13 12 11 10
15 12 11 10 10 10 11 13 14 15 14 13 14 13 13 14 13 14 14 14 14 15 15 15 14 14 14 15 15 16 17 18 17 17 15 14 13 13 12 12 11 10 9
12 10 10 11 11 12 13 14 14 14 14 14 14 13 13 13 12 12 13 13 13 15 15 14 14 14 15 15 16 16 17 16 15 15 15 14 13 13 12 12 11 10 10
11 10 12 13 13 14 15 15 15 14 13 14 13 12 13 12 12 11 12 13 12 13 12 13 14 17 16 16 16 16 15 15 15 15 15 15 15 14 13 14 13 13 12
13 13 13 13 14 15 16 16 15 14 13 13 13 13 13 13 13 13 12 13 13 13 12 13 16 18 19 18 16 15 15 15 15 16 17 17 16 16 16 16 16 17 18
14 14 13 13 14 15 15 16 13 12 11 11 13 13 14 14 14 13 13 12 12 12 12 14 17 17 18 17 15 15 15 15 17 18 18 18 18 18 17 17 17 17 17
12 13 12 12 14 15 14 13 13 11 10 9 11 12 13 14 14 14 13 13 12 13 14 15 18 18 17 16 15 15 15 17 18 20 21 21 20 19 19 19 20 20 21
12 12 12 13 15 14 14 13 10 10 10 10 11 12 13 15 15 15 14 14 13 13 17 19 19 18 16 15 16 16 16 18 20 20 21 21 21 20 20 21 21 21 21
12 12 12 14 16 15 14 13 10 11 12 13 12 13 14 16 15 14 12 12 13 15 17 19 19 18 16 15 16 17 18 19 19 20 20 20 20 20 20 21 21 21 21
13 12 12 13 15 15 15 13 12 12 14 14 13 14 14 14 14 11 10 9 10 16 18 20 19 17 16 16 17 18 19 19 18 18 18 19 20 19 19 18 19 19 18
12 12 12 13 14 14 14 13 14 14 13 13 13 14 12 11 14 11 11 14 14 17 18 19 18 17 17 18 17 18 19 18 18 17 17 18 18 17 16 15 16 15 15
12 11 11 11 12 13 13 14 14 13 12 13 10 16 12 8 11 12 15 14 14 16 18 17 16 16 16 16 16 18 17 17 17 18 17 17 16 14 13 13 13 13 15
12 11 11 10 11 12 13 15 13 11 11 14 15 13 10 11 15 14 16 12 14 14 15 15 14 14 15 14 16 16 13 12 13 14 15 14 13 12 12 13 13 13 15
12 9 10 13 15 13 13 14 13 10 13 15 14 13 9 13 12 11 10 12 15 15 15 14 13 13 12 13 15 14 14 12 12 12 10 8 9 8 9 9 11 12 14
10 8 9 11 12 16 13 12 11 15 13 12 11 13 10 9 10 13 14 15 16 15 15 14 14 13 13 13 14 13 12 11 10 9 7 5 5 6 8 9 11 12 15
7 8 12 12 14 16 13 12 12 14 12 13 12 10 11 12 14 15 14 12 14 12 14 14 12 12 12 11 11 10 10 10 9 8 6 5 3 4 5 7 10 11 13
8 7 10 12 13 14 12 11 10 11 11 12 12 14 13 10 13 17 11 10 12 11 12 11 10 11 10 9 8 8 8 9 7 6 6 4 2 2 5 8 10 14 16
7 8 7 10 12 13 14 11 11 11 10 11 10 12 12 11 12 17 13 11 10 9 11 11 10 11 11 9 9 8 7 7 7 6 5 5 7 8 9 11 11 13 23
7 7 8 10 14 15 16 15 13 11 10 9 8 8 10 10 10 12 12 10 8 11 7 12 12 11 12 9 8 7 6 6 6 5 6 8 8 9 9 12 14 19 21
9 7 7 14 15 16 16 15 13 10 10 10 11 9 9 9 10 8 11 9 10 9 10 12 13 13 10 13 11 9 9 8 10 11 13 14 12 12 16 17 18 24 22
10 6 7 13 15 15 15 15 14 12 12 12 9 8 8 7 7 8 10 11 10 9 9 14 14 14 16 13 15 14 13 11 12 13 14 15 16 15 18 19 18 21 17
12 8 5 9 13 14 14 15 13 12 12 9 7 7 7 8 9 10 10 9 10 9 9 11 13 15 15 15 17 16 16 15 15 15 15 15 17 18 17 14 14 14 13